[[{"header":{"parameterUnit":"m.s-1","parameterCategory":1,"la1":30.6,"la2":28.766,"lo1":-90.7593,"lo2":-88.6598,"dy":0.0162,"dx":0.0183,"nx":116,"ny":114,"refTime":"2024-04-26T00:00:00:Z","depth":0,"parameterNumber":2,"parameterNumberName":"U-component_of_WINDS"},"data":[0.0,0.0,0.0,0.0,0.0,0.0,0.0,0.0,0.0,0.0,0.0,0.0,0.0,0.0,0.0,0.0,0.0,0.0,0.0,0.0,0.0,0.0,0.0,0.0,0.0,0.0,0.0,0.0,0.0,0.0,0.0,0.0,0.0,0.0,0.0,0.0,0.0,0.0,0.0,0.0,0.0,0.0,0.0,0.0,0.0,0.0,0.0,0.0,0.0,0.0,0.0,0.0,0.0,0.0,0.0,0.0,0.0,0.0,0.0,0.0,0.0,0.0,0.0,0.0,0.0,0.0,0.0,0.0,0.0,0.0,0.0,0.0,0.0,0.0,0.0,0.0,0.0,0.0,0.0,0.0,0.0,0.0,0.0,0.0,0.0,0.0,0.0,0.0,0.0,0.0,0.0,0.0,0.0,0.0,0.0,0.0,0.0,0.0,0.0,0.0,0.0,0.0,0.0,0.0,0.0,0.0,0.0,0.0,0.0,0.0,0.0,0.0,0.0,0.0,0.0,0.0,0.0,0.0,0.0,0.0,0.0,0.0,0.0,0.0,0.0,0.0,0.0,0.0,0.0,0.0,0.0,0.0,0.0,0.0,0.0,0.0,0.0,0.0,0.0,0.0,0.0,0.0,0.0,0.0,0.0,0.0,0.0,0.0,0.0,0.0,0.0,0.0,0.0,0.0,0.0,0.0,0.0,0.0,0.0,0.0,0.0,0.0,0.0,0.0,0.0,0.0,0.0,0.0,0.0,0.0,0.0,0.0,0.0,0.0,0.0,0.0,0.0,0.0,0.0,0.0,0.0,0.0,0.0,0.0,0.0,0.0,0.0,0.0,0.0,0.0,0.0,0.0,0.0,0.0,0.0,0.0,0.0,0.0,0.0,0.0,0.0,0.0,0.0,0.0,0.0,0.0,0.0,0.0,0.0,0.0,0.0,0.0,0.0,0.0,0.0,0.0,0.0,0.0,0.0,0.0,0.0,0.0,0.0,0.0,0.0,0.0,0.0,0.0,0.0,0.0,0.0,0.0,0.0,0.0,0.0,0.0,0.0,0.0,0.0,0.0,0.0,0.0,0.0,0.0,0.0,0.0,0.0,0.0,0.0,0.0,0.0,0.0,0.0,0.0,0.0,0.0,0.0,0.0,0.0,0.0,0.0,0.0,0.0,0.0,0.0,0.0,0.0,0.0,0.0,0.0,0.0,0.0,0.0,0.0,0.0,0.0,0.0,0.0,0.0,0.0,0.0,0.0,0.0,0.0,0.0,0.0,0.0,0.0,0.0,0.0,0.0,0.0,0.0,0.0,0.0,0.0,0.0,0.0,0.0,0.0,0.0,0.0,0.0,0.0,0.0,0.0,0.0,0.0,0.0,0.0,0.0,0.0,0.0,0.0,0.0,0.0,0.0,0.0,0.0,0.0,0.0,0.0,0.0,0.0,0.0,0.0,0.0,0.0,0.0,0.0,0.0,0.0,0.0,0.0,0.0,0.0,0.0,0.0,0.0,0.0,0.0,0.0,0.0,0.0,0.0,0.0,0.0,0.0,0.0,0.0,0.0,0.0,0.0,0.0,0.0,0.0,0.0,0.0,0.0,0.0,0.0,0.0,0.0,0.0,0.0,0.0,0.0,0.0,0.0,0.0,0.0,0.0,0.0,0.0,0.0,0.0,0.0,0.0,0.0,0.0,0.0,0.0,0.0,0.0,0.0,0.0,0.0,0.0,0.0,0.0,0.0,0.0,0.0,0.0,0.0,0.0,0.0,0.0,0.0,0.0,0.0,0.0,0.0,0.0,0.0,0.0,0.0,0.0,0.0,0.0,0.0,0.0,0.0,0.0,0.0,0.0,0.0,0.0,0.0,0.0,0.0,0.0,0.0,0.0,0.0,0.0,0.0,0.0,0.0,0.0,0.0,0.0,0.0,0.0,0.0,0.0,0.0,0.0,0.0,0.0,0.0,0.0,0.0,0.0,0.0,0.0,0.0,0.0,0.0,0.0,0.0,0.0,0.0,0.0,0.0,0.0,0.0,0.0,0.0,0.0,0.0,0.0,0.0,0.0,0.0,0.0,0.0,0.0,0.0,0.0,0.0,0.0,0.0,0.0,0.0,0.0,0.0,0.0,0.0,0.0,0.0,0.0,0.0,0.0,0.0,0.0,0.0,0.0,0.0,0.0,0.0,0.0,0.0,0.0,0.0,0.0,0.0,0.0,0.0,0.0,0.0,0.0,0.0,0.0,0.0,0.0,0.0,0.0,0.0,0.0,0.0,0.0,0.0,0.0,0.0,0.0,0.0,0.0,0.0,0.0,0.0,0.0,0.0,0.0,0.0,0.0,0.0,0.0,0.0,0.0,0.0,0.0,0.0,0.0,0.0,0.0,0.0,0.0,0.0,0.0,0.0,0.0,0.0,0.0,0.0,0.0,0.0,0.0,0.0,0.0,0.0,0.0,0.0,0.0,0.0,0.0,0.0,0.0,0.0,0.0,0.0,0.0,0.0,0.0,0.0,0.0,0.0,0.0,0.0,0.0,0.0,0.0,0.0,0.0,0.0,0.0,0.0,0.0,0.0,0.0,0.0,0.0,0.0,0.0,0.0,0.0,0.0,0.0,0.0,0.0,0.0,0.0,0.0,0.0,0.0,0.0,0.0,0.0,0.0,0.0,0.0,0.0,0.0,0.0,0.0,0.0,0.0,0.0,0.0,0.0,0.0,0.0,0.0,0.0,0.0,0.0,0.0,0.0,0.0,0.0,0.0,0.0,0.0,0.0,0.0,0.0,0.0,0.0,0.0,0.0,0.0,0.0,0.0,0.0,0.0,0.0,0.0,0.0,0.0,0.0,0.0,0.0,0.0,0.0,0.0,0.0,0.0,0.0,0.0,0.0,0.0,0.0,0.0,0.0,0.0,0.0,0.0,0.0,0.0,0.0,0.0,0.0,0.0,0.0,0.0,0.0,0.0,0.0,0.0,0.0,0.0,0.0,0.0,0.0,0.0,0.0,0.0,0.0,0.0,0.0,0.0,0.0,0.0,0.0,0.0,0.0,0.0,0.0,0.0,0.0,0.0,0.0,0.0,0.0,0.0,0.0,0.0,0.0,0.0,0.0,0.0,0.0,0.0,0.0,0.0,0.0,0.0,0.0,0.0,0.0,0.0,0.0,0.0,0.0,0.0,0.0,0.0,0.0,0.0,0.0,0.0,0.0,0.0,0.0,0.0,0.0,0.0,0.0,0.0,0.0,0.0,0.0,0.0,0.0,0.0,0.0,0.0,0.0,0.0,0.0,0.0,0.0,0.0,0.0,0.0,0.0,0.0,0.0,0.0,0.0,0.0,0.0,0.0,0.0,0.0,0.0,0.0,0.0,0.0,0.0,0.0,0.0,0.0,0.0,0.0,0.0,0.0,0.0,0.0,0.0,0.0,0.0,0.0,0.0,0.0,0.0,0.0,0.0,0.0,0.0,0.0,0.0,0.0,0.0,0.0,0.0,0.0,0.0,0.0,0.0,0.0,0.0,0.0,0.0,0.0,0.0,0.0,0.0,0.0,0.0,0.0,0.0,0.0,0.0,0.0,0.0,0.0,0.0,0.0,0.0,0.0,0.0,0.0,0.0,0.0,0.0,0.0,0.0,0.0,0.0,0.0,0.0,0.0,0.0,0.0,0.0,0.0,0.0,0.0,0.0,0.0,0.0,0.0,0.0,0.0,0.0,0.0,0.0,0.0,0.0,0.0,0.0,0.0,0.0,0.0,0.0,0.0,0.0,0.0,0.0,0.0,0.0,0.0,0.0,0.0,0.0,0.0,0.0,0.0,0.0,0.0,0.0,0.0,0.0,0.0,0.0,0.0,0.0,0.0,0.0,0.0,0.0,0.0,0.0,0.0,0.0,0.0,0.0,0.0,0.0,0.0,0.0,0.0,0.0,0.0,0.0,0.0,0.0,0.0,0.0,0.0,0.0,0.0,0.0,0.0,0.0,0.0,0.0,0.0,0.0,0.0,0.0,0.0,0.0,0.0,0.0,0.0,0.0,0.0,0.0,0.0,0.0,0.0,0.0,0.0,0.0,0.0,0.0,0.0,0.0,0.0,0.0,0.0,0.0,0.0,0.0,0.0,0.0,0.0,0.0,0.0,0.0,0.0,0.0,0.0,0.0,0.0,0.0,0.0,0.0,0.0,0.0,0.0,0.0,0.0,0.0,0.0,0.0,0.0,0.0,0.0,0.0,0.0,0.0,0.0,0.0,0.0,0.0,0.0,0.0,0.0,0.0,0.0,0.0,0.0,0.0,0.0,0.0,0.0,0.0,0.0,0.0,0.0,0.0,0.0,0.0,0.0,0.0,0.0,0.0,0.0,0.0,0.0,0.0,0.0,0.0,0.0,0.0,0.0,0.0,0.0,0.0,0.0,0.0,0.0,0.0,0.0,0.0,0.0,0.0,0.0,0.0,0.0,0.0,0.0,0.0,0.0,0.0,0.0,0.0,0.0,0.0,0.0,0.0,0.0,0.0,0.0,0.0,0.0,0.0,0.0,0.0,0.0,0.0,0.0,0.0,0.0,0.0,0.0,0.0,0.0,0.0,0.0,0.0,0.0,0.0,0.0,0.0,0.0,0.0,0.0,0.0,0.0,0.0,0.0,0.0,0.0,0.0,0.0,0.0,0.0,0.0,0.0,0.0,0.0,0.0,0.0,0.0,0.0,0.0,0.0,0.0,0.0,0.0,0.0,0.0,0.0,0.0,0.0,0.0,0.0,0.0,0.0,0.0,0.0,0.0,0.0,0.0,0.0,0.0,0.0,0.0,0.0,0.0,0.0,0.0,0.0,0.0,0.0,0.0,0.0,0.0,0.0,0.0,0.0,0.0,0.0,0.0,0.0,0.0,0.0,0.0,0.0,0.0,0.0,0.0,0.0,0.0,0.0,0.0,0.0,0.0,0.0,0.0,0.0,0.0,0.0,0.0,0.0,0.0,0.0,0.0,0.0,0.0,0.0,0.0,0.0,0.0,0.0,0.0,0.0,0.0,0.0,0.0,0.0,0.0,0.0,0.0,0.0,0.0,0.0,0.0,0.0,0.0,0.0,0.0,0.0,0.0,0.0,0.0,0.0,0.0,0.0,0.0,0.0,0.0,0.0,0.0,0.0,0.0,0.0,0.0,0.0,0.0,0.0,0.0,0.0,0.0,0.0,0.0,0.0,0.0,0.0,0.0,0.0,0.0,0.0,0.0,0.0,0.0,0.0,0.0,0.0,0.0,0.0,0.0,0.0,0.0,0.0,0.0,0.0,0.0,0.0,0.0,0.0,0.0,0.0,0.0,0.0,0.0,0.0,0.0,0.0,0.0,0.0,0.0,0.0,0.0,0.0,0.0,0.0,0.0,0.0,0.0,0.0,0.0,0.0,0.0,0.0,0.0,0.0,0.0,0.0,0.0,0.0,0.0,0.0,0.0,0.0,0.0,0.0,0.0,0.0,0.0,0.0,0.0,0.0,0.0,0.0,0.0,0.0,0.0,0.0,0.0,0.0,0.0,0.0,0.0,0.0,0.0,0.0,0.0,0.0,0.0,0.0,0.0,0.0,0.0,0.0,0.0,0.0,0.0,0.0,0.0,0.0,0.0,0.0,0.0,0.0,0.0,0.0,0.0,0.0,0.0,0.0,0.0,0.0,0.0,0.0,0.0,0.0,0.0,0.0,0.0,0.0,0.0,0.0,0.0,0.0,0.0,0.0,0.0,0.0,0.0,0.0,0.0,0.0,0.0,0.0,0.0,0.0,0.0,0.0,0.0,0.0,0.0,0.0,0.0,0.0,0.0,0.0,0.0,0.0,0.0,0.0,0.0,0.0,0.0,0.0,0.0,0.0,0.0,0.0,0.0,0.0,0.0,0.0,0.0,0.0,0.0,0.0,0.0,0.0,0.0,0.0,0.0,0.0,0.0,0.0,0.0,0.0,0.0,0.0,0.0,0.0,0.0,0.0,0.0,0.0,0.0,0.0,0.0,0.0,0.0,0.0,0.0,0.0,0.0,0.0,0.0,0.0,0.0,0.0,0.0,0.0,0.0,0.0,0.0,0.0,0.0,0.0,0.0,0.0,0.0,0.0,0.0,0.0,0.0,0.0,0.0,-5.2956,-5.2424,0.0,0.0,0.0,0.0,0.0,0.0,0.0,0.0,0.0,0.0,0.0,0.0,0.0,0.0,0.0,0.0,0.0,0.0,0.0,0.0,0.0,0.0,0.0,-5.1701,-5.175,-5.2066,-5.2114,-5.1993,-5.1725,-5.1192,0.0,0.0,0.0,0.0,-4.8226,-4.7605,-4.6862,-4.5989,-4.4937,-4.4266,-4.3916,-4.5263,-4.6824,-4.8588,0.0,0.0,0.0,0.0,0.0,0.0,0.0,0.0,0.0,0.0,0.0,0.0,0.0,0.0,0.0,0.0,0.0,0.0,0.0,0.0,0.0,0.0,0.0,0.0,0.0,0.0,0.0,0.0,0.0,0.0,0.0,0.0,0.0,0.0,0.0,0.0,0.0,0.0,0.0,0.0,0.0,0.0,0.0,0.0,0.0,0.0,0.0,0.0,0.0,0.0,0.0,0.0,0.0,0.0,0.0,0.0,0.0,0.0,0.0,0.0,0.0,0.0,0.0,0.0,0.0,0.0,0.0,0.0,0.0,0.0,-5.3463,-5.2554,0.0,0.0,0.0,0.0,0.0,0.0,0.0,0.0,0.0,0.0,0.0,0.0,0.0,0.0,0.0,0.0,0.0,0.0,0.0,0.0,0.0,-5.114,-5.1218,-5.0955,-5.0947,-5.1439,-5.1586,-5.1597,-5.1424,-5.1087,-5.0612,-4.9913,-4.9381,-4.8671,-4.7836,-4.6999,-4.5989,-4.4818,-4.3615,-4.2737,-4.221,-4.2881,-4.4383,-4.6708,-4.8275,0.0,0.0,0.0,0.0,0.0,0.0,0.0,0.0,0.0,0.0,0.0,0.0,0.0,0.0,0.0,0.0,0.0,0.0,0.0,0.0,0.0,0.0,0.0,0.0,0.0,0.0,0.0,0.0,0.0,0.0,0.0,0.0,0.0,0.0,0.0,0.0,0.0,0.0,0.0,0.0,0.0,0.0,0.0,0.0,0.0,0.0,0.0,0.0,0.0,0.0,0.0,0.0,0.0,0.0,0.0,0.0,0.0,0.0,0.0,0.0,0.0,0.0,0.0,-5.5711,-5.6113,-5.6113,-5.6596,-5.6647,-5.6375,-5.466,-5.3253,-5.2113,-5.148,0.0,0.0,0.0,0.0,0.0,0.0,0.0,0.0,0.0,0.0,0.0,0.0,0.0,0.0,0.0,0.0,0.0,0.0,0.0,-5.0776,-5.0564,-5.0102,-4.9925,-5.03,-5.0542,-5.0714,-5.0749,-5.0557,-5.0257,-4.9737,-4.9015,-4.8226,-4.7471,-4.617,-4.4937,-4.3719,-4.2008,-4.0786,-4.0133,-4.1245,-4.2306,-4.3369,-4.5505,-4.7107,-4.822,0.0,0.0,0.0,0.0,0.0,0.0,0.0,0.0,0.0,0.0,0.0,0.0,0.0,0.0,0.0,0.0,0.0,0.0,0.0,0.0,0.0,0.0,0.0,0.0,0.0,0.0,0.0,0.0,0.0,0.0,0.0,0.0,0.0,0.0,0.0,0.0,0.0,0.0,0.0,0.0,0.0,-5.2414,-5.3133,0.0,0.0,0.0,0.0,0.0,0.0,0.0,0.0,0.0,0.0,0.0,0.0,0.0,-5.5529,-5.5709,-5.6855,-5.7513,-5.7603,-5.8261,-5.8644,-5.8644,-5.8697,-5.8697,-5.8667,-5.8065,0.0,-5.3252,-5.2587,0.0,0.0,0.0,0.0,0.0,0.0,0.0,0.0,0.0,0.0,0.0,0.0,0.0,0.0,0.0,0.0,0.0,0.0,0.0,0.0,0.0,-4.9127,-4.9049,-4.9828,-5.0129,-5.043,-5.0645,-5.065,-5.0297,-4.9624,-4.8892,-4.8097,-4.727,-4.5602,-4.3659,-4.1308,-4.0449,-3.9767,-3.9155,-4.0037,-4.0929,-4.171,-4.3128,-4.4675,-4.6295,-4.6661,0.0,0.0,0.0,0.0,0.0,0.0,0.0,0.0,0.0,0.0,0.0,0.0,0.0,0.0,0.0,0.0,0.0,0.0,0.0,0.0,0.0,0.0,0.0,0.0,0.0,0.0,0.0,0.0,0.0,0.0,0.0,0.0,0.0,0.0,0.0,0.0,0.0,0.0,0.0,-5.3053,-5.4176,-5.4853,-5.4268,-5.353,0.0,0.0,0.0,0.0,0.0,0.0,0.0,0.0,0.0,-5.5927,-5.6825,-5.7633,-5.8351,-5.8949,-5.9428,-5.9817,-6.0086,-6.0236,-6.0236,-6.0236,-6.0236,-6.0236,-5.9874,-5.8174,-5.5483,-5.3743,-5.1991,-5.0261,0.0,0.0,0.0,0.0,-4.5993,-4.5916,0.0,0.0,0.0,0.0,0.0,0.0,0.0,0.0,0.0,0.0,0.0,0.0,-4.8975,-4.8293,-4.8233,-4.9094,-4.9654,-5.0077,-5.0493,-5.0543,-5.0264,-4.9596,-4.8805,-4.7869,-4.6795,-4.4582,-4.2106,-3.9353,-3.9254,-3.8968,-3.853,-3.9094,-3.9724,-4.0389,-4.1004,-4.2601,-4.4813,-4.523,-4.5429,-4.5414,0.0,0.0,0.0,0.0,0.0,0.0,0.0,0.0,0.0,0.0,0.0,0.0,0.0,0.0,0.0,0.0,0.0,0.0,0.0,0.0,0.0,0.0,0.0,0.0,0.0,0.0,0.0,0.0,0.0,0.0,0.0,0.0,0.0,0.0,0.0,0.0,0.0,-5.4691,-5.5846,-5.6666,-5.618,-5.5486,0.0,0.0,0.0,0.0,0.0,0.0,-5.6645,-5.7184,-5.7872,-5.886,-5.9039,-5.9608,-6.0595,-6.0775,-6.1104,-6.1613,-6.1613,-6.1613,-6.1613,-6.1613,-6.1613,-6.1556,-6.1072,-5.9677,-5.748,-5.4967,-5.2779,-5.0833,-4.8439,-4.7387,-4.6995,-4.5567,-4.5067,-4.4911,0.0,0.0,0.0,0.0,0.0,0.0,0.0,0.0,0.0,0.0,0.0,-4.909,-4.8478,-4.7791,-4.7437,-4.7684,-4.8586,-4.9436,-5.0021,-4.9923,-4.9845,-4.9779,-4.8626,-4.7404,-4.5996,-4.2533,-4.0087,-3.8647,-3.8475,-3.8236,-3.804,-3.8325,-3.8607,-3.8921,-3.9145,-4.1157,-4.4401,-4.419,-4.4733,-4.5669,-4.4755,0.0,0.0,0.0,0.0,0.0,0.0,0.0,0.0,0.0,0.0,0.0,0.0,0.0,0.0,0.0,0.0,0.0,0.0,0.0,0.0,0.0,0.0,0.0,0.0,0.0,0.0,0.0,0.0,0.0,0.0,0.0,0.0,0.0,0.0,0.0,0.0,0.0,0.0,-5.7865,-5.7416,0.0,0.0,0.0,0.0,-5.862,-5.883,-5.9428,-6.0745,-6.0835,-6.0894,-6.0954,-6.1583,-6.1942,-6.2002,-6.26,-6.2959,-6.2989,-6.2989,-6.2989,-6.2989,-6.2989,-6.2989,-6.2931,-6.1998,-6.0471,-5.8522,-5.6251,-5.367,-5.1035,-4.9443,-4.8315,-4.7476,-4.6895,-4.6517,-4.632,0.0,0.0,0.0,0.0,0.0,-5.2929,-5.3265,-5.2857,-5.2338,-5.175,-5.0362,-4.9059,-4.7998,-4.7303,-4.7109,-4.7547,-4.8407,-4.9015,-4.9251,-4.9617,-4.946,-4.8822,-4.8034,-4.6451,-4.3976,-4.1736,-3.9782,-3.8122,-3.7683,-3.7491,-3.7493,-3.7415,-3.7714,-3.8315,-3.8888,-3.9878,-4.1301,-4.2138,-4.2648,-4.2958,-4.3596,-4.3864,0.0,0.0,0.0,0.0,0.0,0.0,0.0,0.0,0.0,0.0,0.0,0.0,0.0,0.0,0.0,0.0,0.0,0.0,0.0,0.0,0.0,0.0,0.0,0.0,0.0,0.0,0.0,0.0,0.0,0.0,0.0,0.0,0.0,0.0,0.0,0.0,0.0,-6.0228,-6.0335,0.0,-6.0655,-6.0266,-6.0266,-6.0984,-6.1433,-6.2032,-6.2929,-6.26,-6.257,-6.2959,-6.281,-6.272,-6.272,-6.2959,-6.3079,-6.3079,-6.3079,-6.3079,-6.3079,-6.3079,-6.3079,-6.2991,-6.1644,-6.0062,-5.8314,-5.6055,-5.3996,-5.1909,-4.9791,-4.8811,-4.844,-4.7262,-4.6704,-4.6338,0.0,0.0,0.0,0.0,0.0,-5.2478,-5.3166,-5.2915,-5.2384,-5.175,-5.0417,-4.9025,-4.7802,-4.7212,-4.7045,-4.7317,-4.824,-4.885,-4.8909,-4.9274,-4.9079,-4.8166,-4.7026,-4.5311,-4.2872,-4.1224,-3.9607,-3.805,-3.7505,-3.7242,-3.7343,-3.7067,-3.723,-3.7702,-3.8311,-3.8618,-3.8839,-4.0037,-4.0785,-4.1286,-4.2183,-4.2896,-4.346,0.0,0.0,0.0,0.0,0.0,0.0,0.0,0.0,0.0,0.0,0.0,0.0,0.0,0.0,0.0,0.0,0.0,0.0,0.0,0.0,0.0,0.0,0.0,0.0,0.0,0.0,0.0,0.0,0.0,0.0,0.0,0.0,0.0,0.0,-5.85,-6.0729,-6.2261,-6.291,-6.3381,-6.3737,-6.3558,-6.3588,-6.4036,-6.4276,-6.4665,-6.5293,-6.4515,-6.4156,-6.4336,-6.3707,-6.3288,-6.3079,-6.3079,-6.3079,-6.3079,-6.3079,-6.3079,-6.3079,-6.3079,-6.3079,-6.3049,-6.1408,-5.9858,-5.8284,-5.5811,-5.3909,-5.229,-4.9988,-4.9146,-4.9021,-4.7535,-4.6829,-4.6373,0.0,0.0,0.0,0.0,0.0,-5.234,-5.3078,-5.2872,-5.2431,-5.1897,-5.0465,-4.9116,-4.7964,-4.7566,-4.7254,-4.6897,-4.8097,-4.8836,-4.8818,-4.8807,-4.8569,-4.7961,-4.5751,-4.399,-4.2931,-4.093,-3.9502,-3.8602,-3.7882,-3.7583,-3.7643,-3.7326,-3.7183,-3.7173,-3.7465,-3.7501,-3.7417,-3.8183,-3.9514,-4.0967,-4.0611,-4.1467,-4.2858,0.0,0.0,0.0,0.0,0.0,0.0,0.0,0.0,0.0,0.0,0.0,0.0,0.0,0.0,0.0,0.0,0.0,0.0,0.0,0.0,0.0,0.0,0.0,0.0,0.0,0.0,0.0,0.0,0.0,0.0,0.0,0.0,0.0,-5.6068,-5.9074,-6.1839,-6.3762,-6.4955,-6.5975,-6.6937,-6.649,-6.661,-6.7867,-6.7388,-6.7298,-6.7897,-6.67,-6.5712,-6.5084,-6.4366,-6.3707,-6.3109,-6.3079,-6.3079,-6.3079,-6.3079,-6.3079,-6.3079,-6.3079,-6.3079,-6.3049,-6.138,-5.9976,-5.8578,-5.5635,-5.3518,-5.2017,-5.0167,-4.9412,-4.9256,-4.7735,-4.6997,-4.6527,0.0,0.0,0.0,-5.0842,-5.1131,-5.1674,-5.3004,-5.3039,-5.268,-5.2161,-5.1173,-4.9992,-4.8689,-4.7959,-4.7367,-4.6642,-4.7107,-4.7285,-4.6948,-4.7368,-4.7289,-4.6586,-4.5241,-4.3982,-4.2921,-4.1449,-4.0185,-3.9141,-3.8371,-3.8044,-3.8114,-3.8038,-3.8216,-3.8586,-3.9002,-3.887,-3.8296,-3.8854,-3.9023,-3.8942,-3.9983,-4.1052,-4.2112,0.0,0.0,0.0,0.0,0.0,0.0,0.0,0.0,0.0,0.0,0.0,0.0,0.0,0.0,0.0,0.0,0.0,0.0,0.0,0.0,0.0,0.0,0.0,0.0,0.0,0.0,0.0,0.0,0.0,0.0,0.0,-5.3129,-5.4943,-5.6451,-5.9366,-6.2125,-6.4052,-6.6041,-6.747,-6.7935,-6.8068,-6.8136,-6.7986,-6.7807,-6.7567,-6.7268,-6.646,-6.5922,-6.5742,-6.4605,-6.3917,-6.3737,-6.3288,-6.3079,-6.3079,-6.3079,-6.3079,-6.3079,-6.3079,-6.3079,-6.2961,-6.0849,-5.9568,-5.8578,-5.5699,-5.3561,-5.2071,-5.0638,-4.9941,-4.9666,-4.8401,-4.6823,-4.5217,0.0,0.0,0.0,-5.0917,-5.0985,-5.1417,-5.2968,-5.3082,-5.2828,-5.2361,-5.1555,-5.0635,-4.9443,-4.8659,-4.8009,-4.7253,-4.7253,-4.6997,-4.6347,-4.6222,-4.5987,-4.5546,-4.4624,-4.3741,-4.2951,-4.1852,-4.0873,-4.0012,-3.9176,-3.8796,-3.8897,-3.8666,-3.8897,-3.9445,-3.9728,-3.9636,-3.9287,-3.9454,-3.932,-3.9059,-3.9768,-4.0584,-4.1456,-4.1892,-4.2637,-4.3512,-4.4092,-4.4389,-4.4699,-4.5616,0.0,0.0,0.0,0.0,0.0,0.0,0.0,0.0,0.0,0.0,0.0,0.0,0.0,0.0,0.0,0.0,0.0,0.0,0.0,0.0,0.0,0.0,0.0,0.0,-5.4286,-5.578,-5.7204,-5.979,-6.2379,-6.4643,-6.6764,-6.8262,-6.8944,-6.9333,-6.9385,-6.8854,-6.8555,-6.8106,-6.7448,-6.6789,-6.6281,-6.6011,-6.5263,-6.4575,-6.4006,-6.3647,-6.3318,-6.3079,-6.3079,-6.3079,-6.3079,-6.3079,-6.3079,-6.2989,-6.096,-5.974,-5.8987,-5.6063,-5.3854,-5.2112,0.0,0.0,0.0,0.0,-4.6088,-4.4474,0.0,0.0,0.0,-5.1023,-5.1101,-5.144,-5.2884,-5.3072,-5.2937,-5.2545,-5.191,-5.1138,-5.0244,-4.9505,-4.8795,-4.8153,-4.7746,-4.717,-4.6373,-4.5466,-4.496,-4.4998,-4.4165,-4.3578,-4.326,-4.2392,-4.1673,-4.1184,-4.0374,-3.9953,-3.9934,-3.9578,-3.9726,-4.0372,-4.0376,-4.0508,-4.0615,-4.03,-4.0286,-4.0411,-3.9964,-4.02,-4.0939,-4.1263,-4.225,-4.3505,-4.4237,-4.4485,-4.4758,-4.6028,0.0,0.0,0.0,0.0,0.0,0.0,0.0,0.0,0.0,0.0,0.0,0.0,0.0,0.0,0.0,0.0,0.0,0.0,0.0,0.0,0.0,0.0,0.0,0.0,-5.5749,-5.7054,-5.8292,-6.0264,-6.2517,-6.5056,-6.6976,-6.8538,-6.967,-7.0134,-7.026,-7.0021,-6.9363,-6.8704,-6.8016,-6.7358,0.0,0.0,0.0,-6.5413,-6.4126,-6.4036,-6.3677,-6.3079,-6.3079,-6.3079,-6.3079,-6.3079,-6.3079,-6.3019,-6.1303,-6.0284,-5.9479,-5.662,-5.4076,-5.1898,-5.0314,-4.9262,-4.8387,-4.6622,-4.5217,-4.3939,0.0,0.0,-5.0741,-5.074,-5.1091,-5.1658,-5.2451,-5.3055,-5.3339,-5.3136,-5.2769,-5.2172,-5.1282,-4.9819,-4.8639,-4.8164,-4.6738,-4.5659,-4.5217,-4.5233,-4.5325,-4.548,-4.5013,-4.4777,-4.4856,-4.3807,-4.3031,-4.2519,-4.2193,-4.1881,-4.1594,-4.2066,-4.261,-4.3117,-4.3347,-4.3324,-4.3142,-4.2671,-4.1853,-4.0852,-4.0765,-4.0769,-4.0846,-4.1191,-4.1816,-4.2602,-4.3796,-4.4503,-4.5037,-4.6005,-4.6558,-4.6935,-4.7052,-4.7294,0.0,0.0,0.0,0.0,0.0,0.0,0.0,0.0,0.0,0.0,0.0,0.0,0.0,0.0,0.0,0.0,0.0,0.0,0.0,-5.6486,-5.8024,-5.9278,-5.9968,-6.0952,-6.221,-6.3619,-6.5866,-6.7719,-6.8905,-6.984,-7.026,-7.0021,-6.9363,-6.8704,-6.8016,-6.7358,-6.6939,-6.6819,-6.6281,-6.5622,-6.4844,-6.4276,-6.3677,-6.3079,-6.3079,0.0,-6.3079,-6.3079,-6.3079,-6.3019,-6.1303,-6.0284,-5.9478,-5.6651,-5.3522,-5.0345,-4.9048,-4.7594,-4.6257,-4.6068,-4.4673,-4.2899,0.0,-5.1916,-5.1233,-5.1314,-5.1528,-5.1852,-5.2475,-5.318,-5.3622,-5.3464,-5.3261,-5.2681,-5.1641,-5.0322,-4.9141,-4.8167,-4.6581,-4.5696,-4.5833,-4.5596,-4.5624,-4.608,-4.5923,-4.5923,-4.615,-4.5217,-4.4616,-4.4421,-4.3675,-4.3249,-4.3051,-4.3707,-4.4322,-4.4882,-4.528,-4.542,-4.5314,-4.4565,-4.3697,-4.2735,-4.2137,-4.1796,-4.1785,-4.1794,-4.2399,-4.3481,-4.4609,-4.5195,-4.5552,-4.6469,-4.7078,-4.7452,-4.7549,-4.7958,-4.8401,0.0,0.0,0.0,0.0,0.0,0.0,0.0,0.0,0.0,0.0,0.0,0.0,0.0,0.0,-5.1713,-5.332,0.0,-5.7064,-5.8769,-6.0155,-6.1302,-6.2107,-6.2436,-6.2702,-6.3216,-6.5,-6.6679,-6.7885,-6.9106,-6.9772,-6.967,-6.9236,-6.8704,-6.8016,-6.7358,-6.6999,-6.6999,-6.667,-6.6011,-6.5054,-6.4695,-6.4036,-6.3079,-6.3079,-6.3079,-6.3079,-6.3079,-6.3079,-6.3019,-6.1503,-6.0568,-5.985,-5.6445,-5.3218,-5.0305,-4.882,-4.7033,-4.5342,-4.5175,-4.3954,-4.2351,0.0,0.0,-5.186,-5.2137,-5.2159,-5.2322,-5.2781,-5.3531,-5.3999,-5.3795,-5.3662,-5.3094,-5.1799,-5.0855,-4.9599,-4.7832,-4.6706,-4.6209,-4.6634,-4.6195,-4.6198,-4.6877,-4.6956,-4.7153,-4.7536,-4.6854,-4.6517,-4.6517,-4.5515,-4.5046,-4.4963,-4.5449,-4.5988,-4.6545,-4.6967,-4.7164,-4.7203,-4.6329,-4.5648,-4.5025,-4.3876,-4.3395,-4.338,-4.3036,-4.3495,-4.4383,-4.5489,-4.5882,-4.6057,-4.6924,-4.7486,-4.7892,-4.8238,-4.8826,-4.9383,-4.9552,-4.9134,0.0,0.0,0.0,0.0,0.0,0.0,0.0,0.0,-4.8507,-4.9635,-5.1434,-5.2149,-5.3136,-5.5075,-5.6727,-5.8542,-6.0882,-6.2248,-6.3289,-6.4107,-6.4084,-6.3857,-6.3499,-6.4618,-6.5834,-6.6958,-6.8402,-6.9339,-6.9589,-6.9351,-6.8884,-6.8196,-6.7537,-6.7119,-6.6999,-6.6879,-6.6221,-6.5054,-6.4904,-6.4246,-6.3079,-6.3079,-6.3079,-6.3079,-6.3079,-6.3079,-6.2989,-6.1616,-6.0525,-5.9536,-5.609,-5.3303,-5.0978,-4.9135,-4.7265,-4.5488,-4.4585,-4.3316,-4.1932,0.0,0.0,0.0,-5.2579,-5.2987,-5.3391,-5.3414,-5.4053,-5.4533,-5.45,-5.4313,-5.3716,-5.2438,-5.1096,-4.9238,-4.6562,-4.6435,-4.6421,-4.6198,-4.673,-4.7341,-4.8066,-4.8224,-4.866,-4.9486,-4.8937,-4.8659,-4.8659,-4.8526,-4.8308,-4.8009,-4.8372,-4.8753,-4.9114,-4.9108,-4.9017,-4.8872,-4.8179,-4.749,-4.6844,-4.6284,-4.5958,-4.5761,-4.5292,-4.4533,-4.3848,-4.5346,-4.5876,-4.6016,-4.672,-4.7309,-4.7946,-4.9026,-4.9681,-5.0233,-5.0916,-5.0324,-4.9357,-4.9146,-4.7371,-4.5401,-4.4668,-4.5206,-4.6094,0.0,-4.8968,-5.0993,-5.1616,-5.358,-5.5426,-5.6363,-5.8487,-6.0634,-6.2247,-6.3997,-6.5249,-6.5376,-6.5852,-6.5793,-6.4735,-6.5121,-6.5834,-6.6958,-6.8402,-6.9612,-7.0212,-7.0037,-6.9572,-6.8914,-6.8226,-6.7597,-6.6999,-6.643,-6.5772,-6.5054,-6.4425,-6.3767,-6.3079,-6.3079,-6.3079,-6.3079,-6.3079,-6.3079,-6.3019,-6.1389,-5.9177,-5.6692,-5.5692,-5.4038,-5.1894,-5.0067,-4.8464,-4.6928,-4.5037,-4.3088,-4.1376,0.0,0.0,0.0,-5.3905,-5.3736,-5.3651,-5.3623,-5.4343,-5.4889,-5.4889,-5.4784,-5.4053,-5.2373,-5.0212,-4.8381,-4.7025,-4.684,-4.6962,-4.7454,-4.7732,-4.8593,-5.0153,-5.0614,-5.1312,-5.2333,-5.1765,-5.1416,-5.1278,-5.0554,-4.9952,-4.9604,-5.0206,-5.0462,-5.0536,-5.0709,-5.0661,-5.0422,-4.9527,-4.8922,-4.847,-4.7758,-4.7352,-4.7184,-4.6897,-4.6301,-4.5608,-4.5948,-4.6303,0.0,0.0,-4.7485,-4.8265,-4.8952,-4.9689,-5.0498,-5.1022,-5.0453,-4.9434,-4.8273,-4.6719,-4.5296,-4.4994,-4.5515,-4.6448,-4.7804,-4.9731,-5.1753,-5.3578,-5.5005,-5.6366,-5.7796,-5.9503,-6.1274,-6.3389,-6.5109,-6.6509,-6.7358,-6.7369,-6.701,-6.6254,-6.5984,-6.6138,-6.679,-6.8334,-6.9508,-7.0068,-6.9997,-6.9692,-6.9034,-6.8345,-6.7657,-6.6999,-6.634,-6.5682,-6.5054,-6.4336,-6.3677,-6.3079,-6.3079,-6.3079,-6.3079,-6.3079,-6.266,-6.1882,-6.0813,-5.8892,-5.6545,-5.6249,-5.4793,-5.2562,-5.0909,-4.9294,-4.762,-4.5511,-4.3621,-4.1998,0.0,0.0,0.0,-5.4767,-5.4345,-5.4007,-5.4064,-5.468,-5.513,-5.5195,-5.5127,-5.4244,-5.215,-4.9769,-4.8115,-4.7523,-4.7282,-4.7577,-4.8564,-4.873,-4.9789,-5.2029,-5.2557,-5.3445,-5.4725,-5.436,-5.4025,-5.372,-5.2769,-5.1961,-5.1363,-5.1866,-5.1998,-5.1823,-5.1969,-5.1878,-5.1586,-5.096,-5.06,-5.0366,-4.9577,-4.9161,-4.8861,-4.8321,-4.7716,-4.7137,-4.6635,-4.6616,-4.6809,-4.6943,-4.7443,-4.8139,-4.8641,-4.9452,-5.0242,-5.0593,-5.004,-4.9075,-4.7559,-4.6476,-4.5764,-4.5682,-4.6227,-4.7149,-4.8748,-5.0492,-5.235,-5.4546,-5.5753,-5.6891,-5.8513,-5.9929,-6.1627,-6.3962,-6.5724,-6.7272,-6.8509,-6.8381,-6.7878,-6.7411,-6.6793,-6.647,-6.6805,-6.8258,-6.9376,-6.9736,-7.0057,-6.9871,-6.9034,-6.8525,-6.7867,-6.7029,-6.634,-6.5682,-6.5054,-6.4336,-6.3677,-6.3079,-6.3079,-6.3079,-6.3079,-6.2899,-6.2181,-6.1074,-6.0386,-5.8841,-5.6779,-5.6779,-5.5447,-5.3175,-5.1786,-5.0181,-4.8401,-4.6489,-4.4491,-4.2652,0.0,0.0,0.0,0.0,-5.4752,-5.4837,-5.5047,-5.5143,-5.5236,-5.5364,-5.5262,-5.4292,-5.1952,-5.0415,-4.8922,-4.7435,-4.7663,-4.8189,-4.8941,-4.9493,-5.0836,-5.3232,-5.3548,-5.4453,-5.6099,-5.6468,-5.6351,-5.5718,-5.5524,-5.4888,-5.3811,-5.3682,-5.345,-5.3111,-5.2938,-5.2626,-5.2305,-5.2781,-5.2893,-5.2637,-5.2259,-5.1836,-5.1303,-4.9761,-4.8573,-4.7701,-4.7306,-4.6624,-4.6016,-4.6681,-4.7024,-4.7425,-4.8345,-4.8978,-4.9481,-4.9762,-4.9056,-4.8039,-4.7592,-4.728,-4.7026,-4.6953,-4.7608,-4.8467,-4.8956,-5.1073,-5.2961,-5.3346,-5.5357,-5.7244,-5.8053,-5.9761,-6.1694,-6.3717,-6.5768,-6.7374,-6.8216,-6.8648,-6.8569,-6.7878,-6.726,-6.7019,-6.737,-6.8312,-6.9057,-6.9382,-7.0336,-7.032,-6.9064,-6.8974,-6.8345,-6.7029,-6.634,-6.5682,-6.5054,-6.4336,-6.3677,-6.3079,-6.3079,-6.3079,-6.3049,-6.2421,-6.1762,-6.1074,-6.0386,-5.8949,-5.7094,-5.7094,-5.5803,-5.3683,-5.2752,-5.1279,-4.9557,-4.8042,-4.5629,-4.2974,0.0,0.0,0.0,0.0,0.0,-5.473,-5.4867,-5.5085,-5.5262,-5.5425,-5.4842,0.0,0.0,0.0,0.0,0.0,-4.8235,-4.8671,-4.8982,-5.0249,-5.1763,-5.3448,-5.4398,-5.5513,-5.6764,-5.6943,-5.6927,-5.6621,-5.6153,-5.5529,-5.4738,-5.4491,-5.4173,-5.3848,-5.4059,-5.416,-5.4194,-5.4659,-5.4483,-5.3908,-5.3625,-5.2858,-5.1736,-5.043,-4.9335,-4.8311,0.0,-4.638,-4.5578,-4.5285,-4.5779,-4.655,-4.6737,-4.7636,-4.8576,-4.8547,-4.8593,-4.8479,-4.7825,-4.7857,-4.821,-4.8482,-4.9023,-4.9799,-5.1005,-5.2098,-5.3172,-5.4409,-5.5324,-5.6261,-5.744,-5.8688,-6.0198,-6.2123,-6.4137,-6.5851,-6.7147,-6.7756,-6.7998,-6.756,-6.7383,-6.6997,-6.6192,-6.7234,-6.8126,-6.8669,-6.9321,-6.9243,-6.8375,-6.8315,-6.7897,-6.7029,-6.634,-6.5682,-6.5054,-6.4336,-6.3677,-6.3079,-6.3079,-6.3079,-6.3049,-6.1942,-6.1313,-6.1044,-5.9937,-5.853,-5.7094,-5.7094,-5.5773,-5.3704,-5.2951,-5.1628,-4.9911,-4.8629,-4.6809,-4.4837,0.0,0.0,0.0,0.0,0.0,0.0,0.0,0.0,0.0,0.0,0.0,0.0,0.0,0.0,0.0,0.0,0.0,-4.9238,-4.9451,-5.0795,-5.2402,-5.4227,-5.5029,-5.6133,-5.7645,-5.7817,-5.7746,-5.7489,-5.7025,-5.6403,-5.5665,-5.5224,-5.4892,-5.4614,-5.4783,-5.4892,-5.5058,-5.5616,-5.5483,-5.4939,-5.4703,-5.3885,-5.2751,-5.1487,-5.0103,0.0,-4.755,-4.6263,-4.5007,-4.4647,-4.4936,-4.5375,-4.5415,-4.6289,-4.7437,-4.7967,-4.8251,-4.8397,-4.836,-4.8853,-4.9441,-4.9721,-5.0403,-5.1232,-5.2039,-5.2762,-5.3445,-5.4284,-5.4758,-5.5293,-5.6028,-5.7145,-5.8426,-6.0017,-6.2182,-6.4079,-6.5445,-6.6503,-6.7084,-6.6846,-6.6872,-6.6616,-6.5971,-6.6478,-6.7165,-6.782,-6.8579,-6.8704,-6.8016,-6.7956,-6.7657,-6.6999,-6.634,-6.5682,-6.5054,-6.4336,-6.3677,-6.3079,-6.3079,-6.3079,-6.3019,-6.1702,-6.1104,-6.1014,-5.9428,-5.8112,-5.7064,-5.6615,-5.5287,-5.3496,-5.2841,-5.167,-5.029,-4.9243,-4.7971,-4.6397,0.0,0.0,0.0,0.0,0.0,0.0,0.0,0.0,0.0,0.0,0.0,0.0,0.0,0.0,0.0,0.0,0.0,0.0,-5.0327,-5.1175,-5.279,-5.5354,-5.5344,-5.6303,-5.8542,-5.878,-5.8673,-5.8264,-5.8005,-5.7361,-5.6385,-5.5808,-5.5501,-5.5361,-5.5104,-5.5018,-5.5088,-5.5819,-5.6039,-5.5782,-5.5464,-5.4937,-5.4193,-5.2794,-5.0925,-4.8893,-4.7965,-4.6205,-4.4356,-4.4784,-4.4464,-4.3979,-4.4451,-4.5191,-4.6231,-4.7988,-4.8142,-4.7981,-4.925,-5.0135,-5.0695,-5.0788,-5.1821,-5.2734,-5.2226,-5.3028,-5.3778,-5.3196,-5.3701,-5.4195,-5.3952,-5.5108,-5.6479,-5.7373,-5.996,-6.2175,-6.3126,-6.4889,-6.5895,-6.5677,-6.5873,-6.6129,-6.6382,-6.6216,-6.634,-6.6909,-6.8166,-6.8615,-6.7956,-6.7926,-6.7627,-6.6969,-6.634,-6.5682,-6.4994,-6.4306,-6.3647,-6.3079,-6.3079,-6.3049,-6.2989,-6.1702,-6.1104,-6.0954,-5.8979,-5.7723,-5.7004,-5.5718,-5.4401,-5.3114,-5.2456,-5.1655,-5.0698,-5.0009,-4.9001,-4.7633,0.0,0.0,0.0,0.0,0.0,0.0,0.0,0.0,0.0,0.0,0.0,0.0,0.0,0.0,0.0,0.0,0.0,0.0,-5.0926,-5.2108,-5.3012,-5.3487,-5.4251,-5.4962,-5.5641,-5.6029,-5.6116,-5.603,-5.5958,-5.568,-5.5241,-5.532,-5.5275,-5.5182,-5.6075,-5.6599,-5.6901,-5.7617,-5.7211,-5.6011,-5.5836,-5.4478,-5.2479,-5.1857,-5.0827,-4.9567,-4.8711,-4.7341,-4.5681,-4.4146,-4.3761,-4.4144,-4.5641,-4.6308,-4.6889,-4.8217,-4.8928,-4.9453,-5.0253,-5.1343,-5.2347,-5.2891,-5.341,-5.3894,-5.4667,-5.4019,-5.3382,-5.3895,-5.3213,-5.2522,-5.2522,-5.3505,-5.4645,-5.5621,-5.7939,-6.004,-6.1244,-6.3343,-6.4697,-6.4722,-6.6232,-6.686,-6.5811,-6.6773,-6.7148,-6.6311,-6.7029,-6.7418,-6.7238,-6.7238,-6.6939,-6.6281,-6.6101,-6.5443,-6.4276,-6.3617,-6.3228,-6.3079,-6.3079,-6.281,-6.2331,-6.1493,-6.0835,-6.0266,-5.877,-5.7723,-5.7004,-5.5718,-5.4401,-5.3114,-5.2456,-5.1655,-5.0698,-5.0202,-4.9248,-4.7982,0.0,0.0,0.0,0.0,0.0,0.0,0.0,0.0,0.0,0.0,0.0,0.0,0.0,0.0,0.0,0.0,0.0,0.0,0.0,-5.2186,-5.2819,-5.3028,-5.3584,-5.4179,-5.4749,-5.5073,-5.5259,-5.5373,-5.5327,-5.5212,-5.5073,-5.5135,-5.5152,-5.5086,-5.5749,-5.6143,-5.6338,-5.6742,-5.6313,0.0,0.0,-5.4183,-5.2879,-5.242,-5.1688,-5.0825,-4.9886,-4.8351,-4.6513,-4.5084,-4.45,-4.4661,-4.6699,-4.7442,-4.7937,-4.9617,-5.0408,-5.0921,-5.1691,-5.2651,-5.3456,-5.3765,-5.4234,-5.4666,-5.5076,-5.4262,-5.3438,-5.3492,-5.2489,-5.1513,-5.1243,-5.2108,-5.3205,-5.4299,-5.6695,-5.8921,-6.0164,-6.2412,-6.4012,-6.4198,-6.6025,-6.7024,-6.6376,-6.7411,-6.7799,-6.6939,-6.6939,-6.6999,-6.6999,-6.6999,-6.67,-6.6041,-6.5712,-6.4934,-6.3617,-6.3258,-6.3079,-6.3079,-6.3079,-6.272,-6.2061,-6.1403,-6.0745,-5.9997,-5.8381,-5.7453,-5.6944,-5.5089,-5.3862,-5.3084,-5.2127,-5.1434,-5.0917,-5.0537,-4.9815,-4.8681,0.0,0.0,0.0,0.0,0.0,0.0,0.0,0.0,0.0,0.0,-5.5377,0.0,0.0,0.0,0.0,0.0,0.0,0.0,0.0,0.0,-5.239,-5.3059,-5.3084,-5.358,-5.4591,-5.4792,-5.4998,-5.5258,-5.517,-5.5125,-5.5088,-5.4971,-5.4891,-5.4867,-5.4858,-5.4882,-5.4882,-5.4882,-5.4665,-5.432,-5.4102,-5.3983,-5.3899,0.0,0.0,-5.2266,-5.114,-4.9363,-4.7448,-4.6993,-4.6117,-4.5605,-4.7731,-4.8573,-4.9198,-5.1498,-5.2178,-5.2373,-5.3247,-5.3892,-5.4291,-5.4062,-5.4619,-5.5083,-5.4555,-5.4095,-5.3525,-5.2735,-5.1763,-5.0879,-5.0276,-5.1156,-5.226,-5.3362,-5.6011,-5.8375,-5.957,-6.1967,-6.3695,-6.4051,-6.5752,-6.7027,-6.7451,-6.8106,-6.8385,-6.8016,-6.7448,-6.7089,-6.6999,-6.6909,-6.652,-6.5772,-6.5114,-6.4216,-6.3079,-6.3079,-6.3079,-6.3079,-6.3079,-6.269,-6.1942,-6.1373,-6.0685,-5.9847,-5.7932,-5.7094,-5.6885,-5.4251,-5.3174,-5.3054,-5.1738,-5.1229,-5.1182,-5.0917,-5.0394,-4.9543,0.0,0.0,0.0,0.0,0.0,0.0,0.0,0.0,0.0,0.0,-5.5848,-5.517,0.0,0.0,0.0,0.0,0.0,0.0,0.0,0.0,0.0,0.0,-5.2025,-5.2257,-5.2689,-5.3049,-5.3273,-5.3463,-5.3564,-5.3586,-5.3586,-5.4115,-5.434,-5.4355,-5.4898,-5.5212,-5.5304,-5.5304,-5.4765,-5.3963,-5.4436,-5.3867,-5.2819,0.0,0.0,0.0,-5.1421,-5.0454,-4.9752,-4.9292,-4.81,-4.7109,-4.8807,-4.9711,-5.0463,-5.2618,-5.3381,-5.3723,-5.4619,-5.494,-5.5029,-5.4979,-5.4926,-5.4849,-5.4665,-5.3811,-5.3017,-5.2862,-5.1718,-5.0639,-5.0273,-5.1178,-5.2274,-5.3205,-5.5564,-5.8052,-6.004,-6.1862,-6.3542,-6.5,-6.6538,-6.7688,-6.8093,-6.8785,-6.8891,-6.8046,-6.7867,-6.7567,-6.7029,-6.646,-6.5622,-6.4395,-6.3737,-6.3318,-6.3079,-6.3079,-6.3079,-6.3079,-6.3079,-6.245,-6.1283,-6.1164,-6.0446,-5.9189,-5.7723,-5.7094,-5.6885,-5.4251,-5.3174,-5.3054,-5.1738,-5.1229,-5.1182,-5.0917,-5.0585,-5.0103,0.0,0.0,0.0,0.0,0.0,0.0,0.0,-5.6532,-5.7052,-5.7497,-5.7046,-5.6586,-5.6282,-5.5317,-5.4578,0.0,0.0,0.0,0.0,0.0,0.0,0.0,0.0,0.0,-5.1994,-5.2806,-5.3358,-5.3639,0.0,-5.3812,-5.3812,-5.3748,-5.3689,-5.3689,-5.4027,-5.4173,-5.4276,-5.4276,-5.391,-5.3425,-5.4113,-5.4086,-5.377,0.0,0.0,0.0,-5.2254,-5.1462,-5.0955,-5.0653,-4.9931,-4.9366,-5.0765,-5.161,-5.2399,-5.4174,-5.505,-5.5512,-5.608,-5.6166,-5.6107,-5.5777,-5.5616,-5.5334,-5.4619,-5.3733,-5.2891,-5.2417,-5.1382,-5.0535,-5.0421,-5.1248,-5.2375,-5.3634,-5.5817,-5.8053,-6.0239,-6.1879,-6.3543,-6.5278,-6.6621,-6.7742,-6.8736,-6.9332,-6.9322,-6.8615,-6.8495,-6.8076,-6.7059,-6.6041,-6.5024,-6.4036,-6.3408,-6.3079,-6.3079,-6.3079,-6.3079,-6.3079,-6.3079,-6.2391,-6.1104,-6.1104,-6.0386,-5.9039,-5.7663,-5.7094,-5.6885,-5.4251,-5.3174,-5.3054,-5.1738,-5.1229,-5.1182,-5.1058,-5.0691,-4.9994,0.0,0.0,0.0,0.0,0.0,0.0,0.0,-5.719,-5.7751,-5.8635,-5.877,-5.8754,-5.8696,-5.6866,-5.5473,0.0,0.0,0.0,0.0,0.0,0.0,0.0,0.0,0.0,-5.2101,0.0,0.0,-5.4355,-5.4547,0.0,0.0,0.0,0.0,0.0,-5.3482,-5.3371,-5.3203,-5.3203,-5.3234,0.0,0.0,-5.4623,-5.5136,0.0,0.0,0.0,0.0,-5.2422,-5.1848,-5.1621,-5.1289,-5.118,-5.2244,-5.2938,-5.3746,-5.525,-5.6258,-5.6862,-5.7242,-5.7304,-5.7154,-5.6526,-5.6286,-5.5837,-5.4521,-5.3683,-5.2916,-5.1869,-5.1065,-5.057,-5.0573,-5.1334,-5.2471,-5.3923,-5.5858,-5.7941,-6.032,-6.1912,-6.3611,-6.5537,-6.6599,-6.7713,-6.9278,-6.9707,-6.9666,-6.903,-6.8615,-6.7837,-6.664,-6.5443,-6.4515,-6.3827,-6.3318,-6.3079,-6.3079,-6.3079,-6.3079,-6.3079,-6.3079,-6.2391,-6.1104,-6.1104,-6.0386,-5.9039,-5.7663,-5.7094,-5.6885,-5.4251,-5.3174,-5.3054,-5.1738,-5.1229,-5.1229,-5.1229,-5.067,-4.9875,0.0,0.0,0.0,0.0,0.0,0.0,0.0,-5.8269,-5.9577,-6.0473,-6.1019,-6.1559,-6.2162,-5.8904,-5.6218,0.0,0.0,0.0,0.0,0.0,0.0,0.0,0.0,0.0,0.0,0.0,0.0,-5.494,-5.5195,0.0,0.0,0.0,0.0,0.0,0.0,-5.3885,-5.3203,-5.3203,0.0,0.0,0.0,0.0,0.0,0.0,0.0,0.0,0.0,-5.3376,-5.2805,-5.2357,-5.184,-5.1439,-5.1828,-5.2474,-5.3383,-5.4973,-5.6074,-5.6979,-5.7785,-5.8022,-5.7872,-5.7184,-5.6585,-5.5837,-5.4521,-5.3683,-5.2815,-5.1511,-5.1024,-5.0775,-5.0787,-5.1375,-5.2348,-5.3635,-5.5219,-5.73,-6.0112,-6.1642,-6.3422,-6.6041,-6.6883,-6.7959,-6.9678,-6.9869,-6.9666,-6.903,-6.7328,-6.5981,-6.5233,-6.4485,-6.3797,-6.3169,-6.3109,-6.3079,-6.3079,-6.3079,-6.3079,-6.3079,-6.3079,-6.2391,-6.1104,-6.1104,-6.0386,-5.9039,-5.7663,-5.7094,-5.6885,-5.4251,-5.3174,-5.3054,-5.1738,-5.1229,-5.1229,-5.1229,-5.0764,-5.0106,0.0,0.0,0.0,0.0,0.0,0.0,-5.7615,-5.8357,-5.9435,-6.1331,-6.1761,-6.209,-6.265,-6.0709,-5.8852,-5.7486,0.0,0.0,0.0,0.0,0.0,0.0,0.0,0.0,0.0,0.0,-5.4906,-5.5473,-5.5848,0.0,0.0,0.0,0.0,0.0,0.0,-5.4216,-5.3922,-5.3922,0.0,0.0,0.0,0.0,0.0,0.0,0.0,0.0,0.0,0.0,-5.3335,-5.279,-5.2085,-5.1435,-5.1189,-5.1302,-5.1933,-5.4088,-5.5707,-5.703,-5.834,-5.871,-5.865,-5.8381,-5.7513,-5.6286,-5.461,-5.3683,-5.2815,-5.1498,-5.1105,-5.1058,-5.1058,-5.1498,-5.224,-5.3537,-5.4856,-5.6533,-5.9045,-6.0668,-6.2308,-6.422,-6.5477,-6.6664,-6.8036,-6.8484,-6.8417,-6.7834,-6.6311,-6.5114,-6.4455,-6.4156,-6.3707,-6.3109,-6.3079,-6.3079,-6.3079,-6.3079,-6.3079,-6.3079,-6.3079,-6.2391,-6.1104,-6.1104,-6.0386,-5.9039,-5.7663,-5.7094,-5.6915,-5.47,-5.3563,-5.3084,-5.2157,-5.1558,-5.1229,-5.1229,-5.0571,-4.9613,0.0,0.0,0.0,0.0,0.0,-5.6383,-5.7692,-5.8357,-5.9385,-6.1423,-6.2042,-6.25,-6.3001,-6.2276,-6.1182,-5.9746,-5.6551,0.0,0.0,0.0,0.0,0.0,0.0,0.0,0.0,0.0,-5.5462,-5.6351,-5.6792,-5.7085,0.0,0.0,-5.6418,-5.5941,0.0,0.0,0.0,0.0,0.0,0.0,0.0,0.0,0.0,0.0,0.0,0.0,0.0,0.0,0.0,0.0,0.0,-5.1246,-5.0455,-5.0179,-5.0608,-5.2892,-5.4627,-5.6221,-5.8005,-5.865,-5.88,-5.88,-5.7812,-5.6346,-5.461,-5.3533,-5.2576,-5.1439,-5.1229,-5.1229,-5.1229,-5.1399,-5.2048,-5.3357,-5.4289,-5.5625,-5.7924,-5.9479,-6.0969,-6.2583,-6.4075,-6.5483,-6.676,-6.7393,-6.7479,-6.6728,-6.5652,-6.4635,-6.3767,-6.3707,-6.3528,-6.3079,-6.3079,-6.3079,-6.3079,-6.3079,-6.3079,-6.3079,-6.2869,-6.2211,-6.1104,-6.0894,-6.0176,-5.9039,-5.7663,-5.7094,-5.6944,-5.4999,-5.3803,-5.3114,-5.2456,-5.1798,-5.1229,-5.1229,-5.0345,-4.9164,0.0,0.0,0.0,0.0,0.0,0.0,-5.7,-5.8434,-5.9796,-6.0621,-6.2081,-6.3298,-6.3823,-6.351,-6.2748,-6.1405,-5.8342,0.0,0.0,0.0,0.0,0.0,0.0,0.0,0.0,0.0,-5.5988,-5.7674,-5.8166,-5.8576,-5.8981,-5.91,-5.8304,-5.6785,0.0,0.0,0.0,0.0,0.0,0.0,0.0,0.0,0.0,0.0,0.0,0.0,0.0,0.0,0.0,0.0,0.0,0.0,0.0,-4.9274,-4.9613,-5.1327,-5.2783,-5.4339,-5.6534,-5.7603,-5.8141,-5.8141,-5.7154,-5.5837,-5.4521,-5.3174,-5.2007,-5.1349,-5.1229,-5.1229,-5.1229,-5.1182,-5.1648,-5.2965,-5.3496,-5.456,-5.6898,-5.8124,-5.9538,-6.1863,-6.3254,-6.4687,-6.6353,-6.7107,-6.7076,-6.607,-6.5413,-6.4455,-6.3169,-6.3079,-6.3079,-6.3079,-6.3079,-6.3079,-6.3079,-6.3079,-6.3079,-6.3079,-6.2421,-6.1762,-6.1104,-6.0416,-5.9727,-5.9039,-5.7663,-5.7094,-5.6944,-5.4999,-5.3803,-5.3114,-5.2456,-5.1798,-5.1229,-5.1229,-5.0253,-4.8907,0.0,0.0,0.0,0.0,0.0,0.0,0.0,-5.7378,-5.8431,-6.0393,-6.0979,-6.1588,-6.2694,-6.2077,-6.1262,-6.0422,-5.845,0.0,0.0,0.0,0.0,0.0,0.0,0.0,0.0,-5.517,-5.6139,-5.7091,-5.8192,-5.9032,-5.955,-5.9774,-5.937,-5.8414,-5.7886,-5.7152,0.0,0.0,0.0,0.0,0.0,0.0,-5.7881,0.0,0.0,0.0,0.0,0.0,0.0,0.0,0.0,0.0,0.0,0.0,0.0,-4.9269,-5.0939,-5.3256,-5.5807,-5.6615,-5.6885,-5.7304,-5.6466,-5.5149,-5.3803,-5.2815,-5.2007,-5.1349,-5.1229,-5.1229,-5.1229,-5.1229,-5.1648,-5.2965,-5.3496,-5.4383,-5.6308,-5.7579,-5.8668,-5.941,-6.1574,-6.3738,-6.5616,-6.6428,-6.6391,-6.5383,-6.5144,-6.4455,-6.3139,-6.3079,-6.3079,-6.3079,-6.3079,-6.3079,-6.3079,-6.3079,-6.2839,-6.2391,-6.2181,-6.1493,-6.0416,-6.0176,-5.9488,-5.8381,-5.7483,-5.6855,-5.6346,-5.482,-5.3803,-5.3114,-5.2456,-5.1798,-5.1122,-5.0534,-4.9727,-4.8803,0.0,0.0,0.0,0.0,0.0,0.0,0.0,-5.6633,-5.7479,-5.928,-5.9922,-6.054,-6.1513,-6.1297,-6.0885,-6.0333,-5.9297,0.0,0.0,0.0,0.0,0.0,0.0,0.0,-5.3882,-5.5092,-5.6151,-5.7043,-5.8763,-5.9937,-6.0511,-6.0876,-6.0493,-5.9553,-5.8781,-5.8033,0.0,0.0,0.0,0.0,0.0,0.0,-5.795,0.0,0.0,0.0,0.0,0.0,0.0,0.0,0.0,0.0,0.0,0.0,0.0,0.0,-4.9434,-5.1289,-5.3952,-5.485,-5.5149,-5.5508,-5.464,-5.3473,-5.2636,-5.1947,-5.1409,-5.1259,-5.1229,-5.1229,-5.1229,-5.1229,-5.1648,-5.2965,-5.3287,-5.3976,-5.5854,-5.6979,-5.806,-5.9205,-6.112,-6.3048,-6.4915,-6.5492,-6.549,-6.4845,-6.4725,-6.4186,-6.3139,-6.3079,-6.3079,-6.3079,-6.3079,-6.3079,-6.3079,-6.2839,-6.251,-6.2091,-6.1583,-6.0894,-6.0057,-5.9578,-5.889,-5.8082,-5.7154,-5.6526,0.0,-5.476,-5.3803,-5.3114,-5.2456,-5.1648,-5.0764,-5.0113,-4.9261,-4.831,0.0,0.0,0.0,0.0,0.0,0.0,0.0,-5.6053,-5.6843,-5.7558,-5.8897,-5.9933,-6.0342,-6.0977,-6.128,-6.0929,0.0,0.0,0.0,0.0,0.0,0.0,0.0,0.0,-5.3684,-5.4832,-5.6077,-5.744,-5.9708,-6.1123,-6.1756,-6.2231,-6.1693,-6.0347,-5.9614,-5.8804,0.0,0.0,0.0,0.0,-5.7997,-5.7997,0.0,0.0,0.0,0.0,0.0,0.0,0.0,0.0,0.0,0.0,0.0,0.0,0.0,0.0,0.0,0.0,0.0,-5.2426,-5.2965,-5.2965,-5.2067,-5.1139,-5.1079,-5.0614,0.0,-5.0973,-5.1105,-5.1135,-5.1135,-5.1135,-5.1553,-5.2868,-5.2881,-5.3402,-5.5445,-5.6245,-5.7729,-6.0546,-6.137,-6.2388,-6.4059,-6.4391,-6.4464,-6.4426,-6.4159,-6.3737,-6.3109,-6.3079,-6.3049,-6.3019,-6.3019,-6.3019,-6.3019,-6.2361,-6.2002,-6.1942,-6.0685,-6.0057,-5.9967,-5.871,-5.8082,-5.7992,-5.6705,-5.6188,-5.5927,-5.467,-5.3713,-5.3054,-5.2396,-5.1349,-5.0196,-4.9905,-4.8873,-4.7552,0.0,0.0,0.0,0.0,0.0,0.0,0.0,0.0,0.0,0.0,-5.7494,-5.7975,-5.9077,-5.9329,-5.9515,0.0,0.0,0.0,0.0,0.0,0.0,0.0,0.0,0.0,-5.3551,-5.5077,-5.6199,-5.6965,-5.9571,-6.1325,-6.2234,-6.2699,-6.2602,-6.1992,-6.0677,-5.9318,0.0,0.0,0.0,0.0,-5.7997,-5.7997,0.0,0.0,0.0,0.0,-5.5337,-5.4741,0.0,0.0,0.0,0.0,0.0,0.0,0.0,0.0,-4.7908,-4.8416,-4.9045,0.0,-5.093,-5.093,-5.0644,-5.0285,0.0,-4.9865,-5.0024,-5.0173,-5.026,-5.0375,-5.0375,-5.0202,-5.0467,-5.1754,-5.1909,-5.2587,-5.4524,-5.5653,-5.7048,-5.9166,-5.996,-6.0971,-6.2713,-6.3596,-6.4012,-6.3832,-6.392,-6.3737,-6.3109,-6.3079,-6.2839,-6.2331,-6.2331,-6.2331,-6.2331,-6.1672,-6.1074,-6.0565,-6.0236,-5.9817,-5.9308,-5.8501,-5.7842,-5.7304,-5.6496,-5.5598,-5.461,-5.3773,-5.3025,-5.2366,-5.1708,-5.096,-5.009,-4.9215,-4.8351,-4.7494,0.0,0.0,0.0,0.0,0.0,0.0,0.0,0.0,0.0,0.0,0.0,-5.7173,-5.8516,-5.8698,0.0,0.0,0.0,0.0,0.0,0.0,0.0,0.0,0.0,-5.3783,-5.3518,-5.5145,-5.6167,-5.6537,-5.9664,-6.1689,-6.2551,-6.3454,-6.3551,-6.2871,-6.0787,-5.9171,-5.7997,-5.7997,-5.7997,-5.7997,-5.7997,0.0,0.0,0.0,0.0,0.0,-5.5337,-5.4741,0.0,-5.28,-5.2056,-5.1401,0.0,0.0,0.0,0.0,-4.7461,-4.7702,-4.8,-4.8716,-4.9344,-4.9344,-4.9105,-4.8865,-4.8835,-4.8894,-4.904,-4.9199,-4.9369,-4.9426,-4.933,-4.9502,-5.0025,-5.1027,-5.1431,-5.2304,-5.4327,-5.5065,-5.6034,-5.7758,-5.8401,-5.9304,-6.0895,-6.1869,-6.2633,-6.3088,-6.3298,-6.3263,-6.3109,-6.278,-6.245,-6.2121,-6.1493,-6.1313,-6.1642,-6.0984,-6.0446,-6.0086,-5.9787,-5.9458,-5.9069,-5.8112,-5.7453,-5.7034,-5.6137,-5.5149,-5.4162,-5.3473,-5.2785,-5.2127,-5.1468,-5.0631,-4.9687,-4.901,-4.8088,-4.7185,0.0,0.0,0.0,0.0,0.0,0.0,0.0,0.0,0.0,0.0,0.0,0.0,0.0,0.0,0.0,0.0,0.0,0.0,0.0,0.0,0.0,0.0,-5.4945,-5.4014,-5.3653,-5.5076,-5.6063,-5.6406,-5.9908,-6.2022,-6.2763,-6.4219,-6.4249,-6.2948,-6.0456,-5.8854,-5.7997,-5.7997,-5.7997,-5.7997,-5.7997,0.0,0.0,0.0,0.0,0.0,0.0,0.0,0.0,-5.28,-5.2056,-5.1401,-4.9718,0.0,0.0,0.0,0.0,0.0,-4.754,-4.7867,-4.8075,-4.8209,-4.7762,-4.736,-4.7926,-4.7867,-4.7716,-4.8018,-4.8206,-4.8201,-4.8044,-4.8666,-4.946,-5.0279,-5.1148,-5.2278,-5.4047,-5.4467,-5.4996,-5.6389,-5.6925,-5.7742,-5.9039,-6.0002,-6.1051,-6.228,-6.2499,-6.2701,-6.2929,-6.2391,-6.2002,-6.1792,-6.0685,-6.0326,-6.0805,-6.0236,-5.9937,-5.9937,-5.9368,-5.9069,-5.8919,-5.7663,-5.7034,-5.6885,-5.5598,-5.467,-5.4012,-5.3324,-5.2636,-5.2007,-5.1439,-5.0481,-4.9404,-4.9058,-4.8119,-4.7006,0.0,0.0,0.0,0.0,0.0,0.0,0.0,0.0,0.0,0.0,0.0,0.0,0.0,0.0,0.0,0.0,0.0,0.0,0.0,0.0,0.0,-5.8492,-5.5593,-5.4122,-5.4329,-5.4929,-5.5934,-5.7395,-6.0396,-6.222,-6.2927,-6.4546,-6.3968,-6.1506,-6.0505,-5.9296,-5.7997,-5.7997,-5.7997,-5.7997,-5.7997,0.0,0.0,0.0,0.0,0.0,0.0,0.0,0.0,-5.2732,-5.2056,-5.1401,-4.9718,0.0,0.0,0.0,0.0,0.0,-4.6786,-4.6841,-4.7141,-4.7926,-4.7512,-4.6891,-4.6978,-4.6686,-4.6315,-4.6167,-4.6259,-4.6408,-4.6651,-4.6808,-4.7432,-4.8964,-5.0768,-5.213,-5.2597,-5.3464,-5.426,-5.51,-5.5934,-5.6741,-5.765,-5.9183,-6.045,-6.128,-6.2116,-6.2493,-6.2271,-6.2151,-6.1583,-6.0416,-6.0206,-5.9877,-5.9428,-5.9308,-5.9249,-5.9249,-5.9159,-5.88,-5.8261,-5.7453,-5.6795,-5.6226,-5.494,-5.3982,-5.3294,-5.2636,-5.1977,-5.1349,-5.1259,-5.0704,-4.9986,-4.9161,-4.8387,-4.7674,0.0,0.0,0.0,0.0,0.0,0.0,0.0,0.0,0.0,0.0,0.0,0.0,0.0,0.0,0.0,0.0,0.0,0.0,0.0,0.0,-6.0079,-5.9455,-5.6843,-5.5279,-5.5002,-5.5752,-5.6671,-5.7854,-6.0608,-6.2514,-6.3675,-6.4519,-6.4128,-6.2612,-6.0809,-5.9688,-5.915,-5.8723,-5.8844,-5.9245,0.0,0.0,0.0,0.0,0.0,0.0,0.0,0.0,0.0,0.0,-5.2128,-5.1438,-5.0026,0.0,0.0,0.0,0.0,0.0,-4.6679,-4.6332,-4.6107,-4.6748,-4.6851,-4.685,-4.685,-4.6472,-4.6014,-4.5774,-4.5536,-4.554,-4.5846,-4.6485,-4.7626,-4.973,-5.089,-5.1673,-5.2373,-5.289,-5.3335,-5.3782,-5.4337,-5.5116,-5.6014,-5.7537,-5.8962,-6.0198,-6.1025,-6.1642,-6.1806,-6.1347,-6.0565,-5.9578,-5.9219,-5.871,-5.8022,-5.8022,-5.8381,-5.9099,-5.874,-5.8411,-5.8082,-5.7064,-5.6256,-5.5598,-5.461,-5.3623,-5.2636,-5.2336,-5.1798,-5.1229,-5.1229,-5.0764,-5.0076,-4.8969,-4.8164,-4.7523,0.0,0.0,0.0,0.0,0.0,0.0,0.0,0.0,0.0,0.0,0.0,0.0,0.0,0.0,0.0,0.0,0.0,0.0,0.0,-6.0466,-6.0069,-5.9931,-5.8262,-5.6917,-5.5977,-5.67,-5.7692,-5.896,-6.1482,-6.3481,-6.4966,-6.4458,-6.3957,-6.3399,-6.0937,-5.9942,-6.0003,-5.9407,-5.964,-6.0298,0.0,0.0,0.0,0.0,0.0,0.0,0.0,0.0,0.0,0.0,0.0,0.0,0.0,0.0,0.0,-4.7794,-4.6931,-4.6223,-4.6446,-4.5779,-4.5051,-4.5267,-4.5841,-4.6399,-4.6539,-4.6061,-4.5608,-4.5495,-4.5196,-4.4997,-4.5336,-4.6486,-4.8128,-5.0304,-5.0883,-5.142,-5.2345,-5.2582,-5.2699,-5.2879,-5.3273,-5.3861,-5.482,-5.6183,-5.7588,-5.9172,-5.9992,-6.0676,-6.1159,-6.0339,-5.9548,-5.889,-5.8231,-5.7633,-5.7094,-5.7094,-5.7603,-5.862,-5.8112,-5.7812,-5.7633,-5.6466,-5.5598,-5.491,-5.4102,-5.3144,-5.2187,-5.2037,-5.1678,-5.1229,-5.1229,-5.0674,-4.9883,-4.8895,-4.7997,-4.7309,0.0,0.0,0.0,0.0,0.0,0.0,0.0,0.0,0.0,0.0,0.0,0.0,0.0,0.0,0.0,0.0,0.0,0.0,0.0,-6.0443,-6.0781,-6.001,-5.9659,-5.8872,-5.7642,-5.7471,-5.8741,-6.1551,-6.3691,-6.5549,-6.6934,-6.4426,-6.2873,-6.1991,-6.0603,-5.9816,-5.9532,-5.9662,-5.9928,-6.0213,-6.0176,0.0,0.0,0.0,0.0,0.0,0.0,0.0,0.0,0.0,0.0,0.0,0.0,0.0,-4.8697,-4.7849,-4.6931,-4.609,-4.5698,-4.4922,-4.4092,-4.3679,-4.4184,-4.4913,-4.5368,-4.4864,-4.4336,-4.4648,-4.4678,-4.4689,-4.4999,-4.655,-4.8259,-4.9517,-5.06,-5.1506,-5.2093,-5.2553,-5.2879,-5.2929,-5.3273,-5.3793,-5.4511,-5.5789,-5.7104,-5.8244,-5.9434,-6.0034,-5.9852,-5.9384,-5.886,-5.8201,-5.7513,-5.7154,-5.7094,-5.7094,-5.7154,-5.7244,-5.7184,-5.6855,-5.6286,-5.5598,-5.491,-5.4221,-5.2905,-5.2306,-5.2157,-5.1528,-5.1259,-5.1229,-5.1229,-5.0451,-4.9359,-4.9269,-4.8386,-4.7309,0.0,0.0,0.0,0.0,0.0,0.0,0.0,0.0,0.0,0.0,0.0,0.0,0.0,0.0,0.0,0.0,0.0,0.0,0.0,-5.9603,-5.979,-5.9736,-5.9509,-5.9362,-5.9285,-5.9213,-6.0242,-6.2464,-6.5254,-6.6854,-6.7324,-6.464,-6.3136,-6.2629,-6.0282,-5.971,-6.0439,-6.0112,-6.0485,-6.1256,-6.0427,-5.9857,0.0,0.0,0.0,0.0,0.0,0.0,0.0,0.0,-5.2696,-5.202,-5.0989,-5.0026,-4.9138,-4.8103,-4.7032,-4.5972,-4.5035,-4.4076,-4.3195,-4.249,-4.2736,-4.3401,-4.4673,-4.5088,-4.5389,-4.5875,-4.5648,-4.5461,-4.5725,-4.6939,-4.8385,-4.9866,-5.077,-5.1599,-5.2503,-5.2804,-5.2929,-5.2929,-5.2998,-5.3341,-5.3793,-5.464,-5.5633,-5.6828,-5.7644,-5.8147,-5.8441,-5.8288,-5.7862,-5.6944,-5.6645,-5.6316,-5.5927,-5.5508,-5.5299,-5.5329,-5.6137,-5.6196,-5.5538,-5.488,-5.3982,-5.2935,-5.2426,-5.1977,-5.1558,-5.1319,-5.1229,-5.1169,-5.0734,-5.0062,-4.9269,-4.8805,-4.8087,-4.7309,0.0,0.0,0.0,0.0,0.0,0.0,0.0,0.0,0.0,0.0,0.0,0.0,0.0,0.0,0.0,0.0,0.0,0.0,-5.8804,-5.8919,-5.9103,-5.9294,-5.9158,-5.9408,-5.9976,-6.0238,-6.1461,-6.357,-6.6029,-6.7176,-6.6984,-6.4179,-6.2735,-6.2405,-5.9931,-5.951,-6.056,-6.0018,-6.0425,-6.1298,-6.0227,-5.9667,0.0,0.0,0.0,0.0,0.0,0.0,0.0,0.0,-5.2939,-5.2272,-5.1438,-5.0493,-4.9461,-4.8324,-4.694,-4.5518,-4.4355,-4.3156,-4.2037,-4.1333,-4.151,-4.2301,-4.3859,-4.5016,-4.6001,-4.6711,-4.6569,-4.639,-4.6702,-4.7405,-4.846,-5.0142,-5.0896,-5.1674,-5.2779,-5.2929,-5.2929,-5.2929,-5.2929,-5.2991,-5.3224,-5.3716,-5.4419,-5.5429,-5.602,-5.6593,-5.7236,-5.7158,-5.6779,-5.6196,-5.5957,-5.5538,-5.488,-5.4431,-5.4102,-5.3892,-5.479,-5.4999,-5.4551,-5.3862,-5.3084,-5.2187,-5.1977,-5.1618,-5.1199,-5.0943,-5.078,-5.0571,-5.0122,-4.9523,-4.894,-4.8446,-4.7878,-4.7309,0.0,0.0,0.0,0.0,0.0,0.0,0.0,0.0,-6.0419,-6.0419,0.0,0.0,0.0,0.0,0.0,0.0,0.0,0.0,-5.7997,-5.8613,-5.886,-5.8587,-5.8799,-5.9118,-5.9609,-6.0426,-6.2178,-6.5024,-6.6009,-6.6314,-6.5916,-6.2892,-6.1316,-6.0933,-5.9598,-5.9318,-5.9776,-5.9288,-5.9455,-6.0031,-5.9547,-5.9003,-5.8383,0.0,0.0,0.0,0.0,0.0,0.0,0.0,-5.3042,-5.2485,-5.1659,-5.0723,-4.967,-4.8501,-4.6625,-4.4717,-4.3732,-4.216,-4.0653,-4.014,-4.0669,-4.1576,-4.2735,-4.4292,-4.5799,-4.6928,-4.7093,-4.7305,-4.7807,-4.7908,-4.846,-5.0142,-5.0896,-5.1674,-5.2754,-5.2929,-5.2929,-5.2929,-5.2929,-5.284,-5.2599,-5.3284,-5.3713,-5.3833,-5.4828,-5.5621,-5.6263,-5.5878,-5.5827,-5.6166,-5.5538,-5.488,-5.4221,-5.4192,-5.3832,-5.3174,-5.3174,-5.3174,-5.3144,-5.2486,-5.2187,-5.2157,-5.1498,-5.1229,-5.1169,-5.0465,-4.9853,-4.9299,-4.9299,-4.8865,-4.8297,-4.8267,-4.7878,-4.7309,0.0,0.0,0.0,0.0,0.0,0.0,0.0,0.0,-6.1227,-6.1227,-6.075,0.0,0.0,0.0,0.0,0.0,0.0,0.0,-5.7997,-5.817,-5.8223,-5.802,-5.826,-5.8757,-5.9648,-6.1016,-6.2911,-6.5312,-6.5514,-6.5185,-6.4187,-6.2256,-6.0815,-5.9782,-5.8829,-5.8358,-5.8252,-5.8374,-5.8374,-5.8275,-5.8025,-5.7898,-5.7891,0.0,0.0,0.0,0.0,0.0,0.0,0.0,0.0,0.0,-5.2095,-5.1327,-5.032,-4.7958,-4.6394,-4.4865,-4.2471,-4.1342,-4.0683,-4.0183,-4.0689,-4.1677,-4.3212,-4.4869,-4.6476,-4.7983,-4.8284,-4.8209,-4.7958,-4.8234,-4.8812,-4.969,-5.0645,-5.1523,-5.2251,-5.2678,-5.2929,-5.2929,-5.2578,-5.2277,-5.2236,-5.1905,-5.1962,-5.2509,-5.3119,-5.3798,-5.4633,-5.4983,-5.5286,-5.5508,-5.485,-5.4401,-5.4221,-5.3264,-5.2695,-5.2486,-5.2007,-5.2037,-5.2486,-5.2276,-5.1947,-5.1498,-5.1319,-5.0913,-5.0435,-4.9823,-4.9434,-4.9269,-4.879,-4.8446,-4.8237,-4.7758,-4.7489,-4.7309,0.0,0.0,0.0,0.0,0.0,0.0,0.0,0.0,-6.1117,-6.1117,-6.0419,-5.9612,0.0,0.0,0.0,0.0,0.0,0.0,-5.7997,-5.7997,-5.795,-5.781,-5.7749,-5.8187,-5.9112,-6.0428,-6.1787,-6.3175,-6.3559,-6.3337,-6.2618,-6.14,-6.022,-5.9146,-5.8742,-5.8071,-5.7398,-5.7362,-5.7109,-5.6729,-5.654,-5.6602,-5.6787,0.0,0.0,0.0,0.0,0.0,0.0,0.0,0.0,0.0,-5.2487,-5.1536,-5.0247,-4.7982,-4.6064,-4.4151,-4.1578,-4.0549,-4.02,-3.9853,-4.0507,-4.1827,-4.3991,-4.5598,-4.6979,-4.8184,-4.8435,-4.8309,-4.7983,-4.8385,-4.8962,-4.9515,-5.0343,-5.1222,-5.2,-5.2402,-5.2603,-5.2603,-5.2302,-5.1925,-5.1473,-5.0882,-5.0806,-5.1407,-5.1743,-5.2451,-5.3703,-5.3965,-5.4311,-5.482,-5.4162,-5.3683,-5.3414,-5.2606,-5.2067,-5.1798,-5.1409,-5.1439,-5.1798,-5.1798,-5.1588,-5.1199,-5.093,-5.0301,-4.9434,-4.9045,-4.876,-4.8446,-4.8057,-4.7908,-4.7848,-4.7459,-4.7309,-4.7309,0.0,0.0,-5.7997,-5.7997,0.0,0.0,0.0,0.0,0.0,0.0,-5.9625,-5.8914,0.0,0.0,0.0,0.0,0.0,0.0,0.0,-5.7997,-5.795,-5.7834,-5.7533,-5.7699,-5.8333,-5.9116,-5.9534,-5.9472,-6.057,-6.1086,-6.0984,-6.0275,-5.9532,-5.8822,-5.8893,-5.8157,-5.6912,-5.6405,-5.5891,-5.5428,-5.5205,-5.5164,-5.5373,-5.5837,0.0,0.0,0.0,0.0,0.0,0.0,0.0,0.0,-5.2733,-5.1424,-4.9854,-4.8247,-4.5657,-4.296,-4.0979,-4.0006,-3.9511,-3.9243,-4.0331,-4.2158,-4.4744,-4.615,-4.7104,-4.7782,-4.7908,-4.7908,-4.7908,-4.8385,-4.8937,-4.9439,-5.0017,-5.077,-5.18,-5.2,-5.2026,-5.2026,-5.1975,-5.1523,-5.0444,-5.01,-5.0154,-5.0506,-5.0602,-5.1426,-5.3231,-5.299,-5.3171,-5.4052,-5.3443,-5.2815,-5.2217,-5.2127,-5.1768,-5.1139,-5.1199,-5.1199,-5.1139,-5.1199,-5.1199,-5.1079,-5.0375,-4.9434,-4.8297,-4.8207,-4.7848,-4.7309,-4.7309,-4.7309,-4.7309,-4.7309,-4.7309,-4.7309,0.0,0.0,-5.7997,-5.7997,0.0,0.0,0.0,0.0,0.0,0.0,0.0,0.0,0.0,-5.7997,0.0,0.0,0.0,0.0,0.0,-5.7997,-5.7997,-5.7973,-5.8435,-5.8695,-5.8713,-5.8838,-5.835,-5.722,-5.8835,-5.9388,-5.8781,-5.8613,-5.8112,-5.7448,-5.7749,-5.7089,-5.5812,-5.5959,-5.5281,-5.412,-5.4338,-5.4523,-5.471,-5.5229,-5.5378,0.0,0.0,0.0,0.0,0.0,0.0,0.0,-5.22,-5.1243,-5.0174,-4.7322,-4.5327,-4.3437,-4.0755,-4.0078,-3.9991,-3.9368,-4.091,-4.2886,-4.394,-4.4694,-4.5673,-4.7531,-4.7908,-4.7908,-4.7908,-4.8385,-4.8812,-4.8937,-4.9766,-5.0494,-5.0745,-5.1172,-5.1448,-5.1448,-5.1046,-5.0519,-4.9841,-4.9328,-4.9163,-4.9359,-4.9393,-5.0154,-5.1921,-5.1937,-5.2344,-5.3414,-5.2755,-5.2336,-5.2187,-5.1678,-5.1109,-5.0405,-5.0913,-5.0913,-5.0435,-5.0943,-5.0883,-5.0375,-4.9763,-4.9015,-4.8237,-4.7728,-4.7429,-4.7309,-4.7309,-4.7309,-4.7309,-4.7309,-4.7309,-4.7309,0.0,0.0,0.0,0.0,0.0,0.0,0.0,0.0,0.0,0.0,0.0,0.0,0.0,-5.7997,0.0,0.0,-5.7997,0.0,0.0,0.0,-5.811,-5.8287,-5.8875,-5.8902,-5.8277,-5.8112,-5.7254,-5.5685,-5.6243,-5.6573,-5.6785,-5.7481,-5.7454,-5.6872,-5.7289,-5.6707,-5.54,-5.5344,-5.4669,-5.3651,-5.3848,-5.4011,-5.4175,-5.4586,-5.4707,-5.4738,-5.4926,0.0,0.0,0.0,0.0,0.0,0.0,0.0,-4.961,-4.7449,-4.5608,-4.3767,-4.1323,-4.0548,-4.0381,-3.9897,-4.1299,-4.2826,-4.2992,-4.3639,-4.4543,-4.5698,-4.6577,-4.7129,-4.7129,-4.7807,-4.846,-4.8736,-4.9264,-4.9816,-5.0343,-5.067,-5.087,-5.087,-5.0368,-4.9816,-4.9264,-4.846,-4.8125,-4.8399,-4.8358,-4.9083,-5.0699,-5.0777,-5.127,-5.2483,-5.1876,-5.1416,-5.1259,-5.0883,-5.0421,-4.9763,-5.0122,-5.0092,-4.9793,-5.0451,-5.0166,-4.9284,-4.8955,-4.8416,-4.7788,-4.7459,-4.7309,-4.7309,-4.7309,-4.7309,-4.7309,-4.7309,-4.7309,-4.7309,0.0,0.0,0.0,0.0,0.0,0.0,0.0,0.0,0.0,0.0,0.0,0.0,0.0,0.0,-5.7776,0.0,0.0,0.0,0.0,0.0,0.0,-5.8662,-5.8921,-5.8685,-5.7867,-5.7386,-5.6333,-5.4628,-5.3974,-5.4067,-5.4855,-5.6243,-5.669,-5.6297,-5.6706,-5.6241,-5.5152,-5.4731,-5.4126,-5.345,-5.3618,-5.3651,-5.3717,-5.4011,-5.4141,-5.4141,-5.4335,-5.4303,-5.4106,-5.3842,0.0,0.0,0.0,0.0,-4.8994,-4.7877,-4.619,-4.4243,-4.2412,-4.1312,-4.065,-4.0653,-4.1437,-4.2214,-4.212,-4.2766,-4.3388,-4.3388,-4.4794,-4.6024,-4.6024,-4.6903,-4.7782,-4.8259,-4.851,-4.8937,-4.9866,-5.0067,-5.0092,-4.9992,-4.9665,-4.9188,-4.856,-4.7581,-4.7116,-4.7541,-4.7419,-4.8022,-4.955,-4.9609,-5.0125,-5.1361,-5.0894,-5.0441,-5.0016,-5.0016,-4.9733,-4.9149,-4.9149,-4.9149,-4.9149,-4.9643,-4.9314,-4.8297,-4.8297,-4.7908,-4.7309,-4.7309,-4.7309,-4.7309,-4.7309,-4.7309,-4.7309,-4.7309,-4.7309,-4.7309,0.0,0.0,0.0,0.0,0.0,0.0,0.0,0.0,0.0,0.0,-5.807,-5.7997,0.0,0.0,0.0,-5.6969,-5.6969,-5.6969,-5.6969,0.0,0.0,-5.8933,-5.8518,-5.8313,-5.8488,-5.719,-5.5724,-5.4008,-5.3942,-5.3611,-5.2986,-5.3999,-5.456,-5.4726,-5.5056,-5.4914,-5.4382,-5.4343,-5.392,-5.3247,-5.345,-5.3517,-5.3551,-5.3717,-5.3783,-5.3782,-5.398,-5.4045,-5.391,-5.3067,-5.2697,0.0,0.0,0.0,-4.9259,-4.7833,-4.6617,-4.5389,-4.3899,-4.2003,-4.065,-4.1488,-4.1177,-4.0848,-4.1631,-4.1717,-4.1601,-4.1601,-4.3363,-4.4844,-4.4844,-4.5773,-4.6552,-4.6627,-4.7405,-4.8083,-4.8234,-4.8661,-4.8812,-4.8309,-4.8611,-4.8485,-4.7456,-4.6778,-4.6534,-4.6888,-4.6226,-4.6649,-4.8594,-4.8624,-4.8956,-4.9764,-4.9957,-4.9832,-4.9404,-4.9449,-4.9075,-4.8416,-4.8416,-4.8416,-4.8416,-4.8506,-4.8446,-4.8297,-4.8297,-4.7908,-4.7309,-4.7309,-4.7309,-4.7309,-4.7309,-4.7309,-4.7309,-4.7309,-4.7309,-4.7309,0.0,0.0,0.0,0.0,0.0,0.0,0.0,0.0,0.0,0.0,0.0,-5.7997,0.0,0.0,0.0,-5.6822,-5.6381,-5.6308,-5.6785,-5.7556,-5.8294,-5.8981,-5.8537,-5.8187,-5.7989,-5.652,-5.4974,-5.3306,-5.3097,-5.2784,-5.2465,-5.3233,-5.3983,-5.4565,-5.4806,-5.4475,-5.3787,-5.3772,-5.3165,-5.23,-5.2471,-5.227,-5.1933,-5.2,-5.1999,-5.2066,-5.2231,-5.2297,-5.2263,-5.1924,-5.1517,-5.1076,-5.0274,0.0,0.0,0.0,-4.7405,-4.6346,-4.4613,-4.2953,-4.1671,-4.1627,-4.0977,-4.0337,-4.0459,-4.0517,-4.0635,-4.0635,-4.1735,-4.2961,-4.3589,-4.4618,-4.5573,-4.62,-4.6702,-4.723,-4.7832,-4.8134,-4.8184,-4.7933,-4.7883,-4.7657,-4.7179,-4.6351,-4.5834,-4.586,-4.5381,-4.5676,-4.7044,-4.7011,-4.7624,-4.9026,-4.8958,-4.8873,-4.8716,-4.876,-4.8386,-4.7728,-4.7728,-4.7728,-4.7728,-4.7728,-4.7728,-4.7728,-4.7728,-4.7578,-4.7309,-4.7309,-4.7309,-4.7309,-4.7309,-4.7309,-4.7309,-4.7309,-4.7309,-4.7309,0.0,0.0,0.0,0.0,0.0,0.0,0.0,0.0,0.0,0.0,0.0,0.0,0.0,0.0,0.0,0.0,-5.5757,-5.5721,-5.6748,-5.7556,-5.8207,-5.8736,-5.8321,-5.7824,-5.7314,-5.5877,-5.4424,-5.2907,-5.2492,-5.2349,-5.2465,-5.3217,-5.3866,-5.4376,-5.441,-5.3926,-5.3018,-5.2997,-5.2287,-5.1144,-5.1257,-5.086,-5.0159,-5.0092,-5.0126,-5.0259,-5.0524,-5.0724,-5.0892,-5.0885,-5.0511,-5.0004,-4.9864,-4.9396,0.0,0.0,0.0,-4.6773,-4.5101,-4.3789,-4.2714,-4.2195,-4.1279,-4.0394,-4.0018,-3.9933,-3.993,-3.9879,-4.0461,-4.1232,-4.2116,-4.3319,-4.4518,-4.5522,-4.5924,-4.6376,-4.7179,-4.7531,-4.7657,-4.7531,-4.728,-4.7079,-4.6928,-4.5924,-4.5213,-4.5131,-4.4648,-4.4837,-4.5848,-4.5804,-4.659,-4.8288,-4.8103,-4.7965,-4.8057,-4.8027,-4.7788,-4.7309,-4.7309,-4.7309,-4.7309,-4.7309,-4.7309,-4.7309,-4.7309,-4.7309,-4.7309,-4.7222,-4.7222,-4.7222,-4.7135,-4.7179,-4.7222,-4.7222,-4.7266,-4.7309,0.0,0.0,0.0,0.0,0.0,0.0,0.0,0.0,0.0,0.0,0.0,0.0,-5.781,-5.6406,-5.5536,-5.5647,-5.4913,-5.5133,-5.6712,-5.7556,-5.8033,-5.807,-5.7534,0.0,-5.675,-5.5408,-5.4269,-5.3281,-5.2679,-5.2563,-5.2891,-5.384,-5.3926,-5.3346,-5.3317,-5.2696,-5.1716,-5.2034,-5.1399,-5.0148,-5.0035,-4.9483,-4.8658,-4.8332,-4.8564,-4.906,-4.9393,-4.9926,-5.046,-5.0086,-4.9914,-4.9811,-4.9227,-4.9052,-4.8987,0.0,0.0,0.0,-4.5522,-4.4338,-4.3358,-4.3778,-4.2578,-4.1318,-4.116,-4.026,-3.9459,-3.9191,-3.9699,-4.0184,-4.0235,-4.1793,-4.3263,-4.384,-4.4819,-4.5547,-4.5598,-4.6527,-4.6979,-4.6451,-4.6828,-4.6928,-4.6401,-4.5321,-4.4785,-4.5106,-4.4066,-4.4094,-4.5529,-4.5572,-4.6095,-4.7338,-4.7265,-4.7287,-4.7369,-4.7369,-4.7339,-4.7309,-4.7309,-4.7309,-4.7309,-4.7309,-4.7309,-4.7309,-4.7309,-4.7309,-4.7266,-4.7019,-4.6931,-4.6931,-4.6712,-4.6756,-4.6931,-4.6931,-4.7062,-4.7266,0.0,0.0,0.0,0.0,0.0,0.0,0.0,0.0,0.0,0.0,0.0,0.0,0.0,-5.6137,-5.5327,-5.5463,-5.5273,-5.5611,-5.6748,-5.7556,-5.7997,-5.7997,-5.7559,-5.7127,-5.6704,-5.5536,-5.4306,-5.2999,-5.2988,-5.2742,-5.2349,-5.3492,-5.3721,-5.3113,-5.3866,-5.2966,-5.0991,-5.1537,-5.0556,-4.8653,-4.884,-4.8214,-4.7114,-4.7129,-4.7263,-4.7491,-4.7966,-4.8265,-4.853,-4.8759,-4.8789,-4.8788,-4.8711,-4.8399,-4.7989,-4.7487,-4.6845,-4.6177,-4.5699,-4.5103,-4.4615,-4.4396,-4.3425,-4.2361,-4.1782,-4.0913,-4.011,-3.9581,-3.9625,-3.9844,-4.0211,-4.1499,-4.269,-4.3187,-4.4217,-4.507,-4.5447,-4.6125,-4.6527,-4.6326,-4.6476,-4.6527,-4.6326,-4.5296,-4.4618,-4.4792,-4.3759,-4.3504,-4.4387,-4.4384,-4.5016,-4.6395,-4.6367,-4.6608,-4.7309,-4.7309,-4.7309,-4.7309,-4.7309,-4.7309,-4.7309,-4.7309,-4.7222,-4.7019,-4.6917,-4.6887,-4.7019,-4.6624,-4.6417,-4.6417,-4.6358,-4.6491,-4.6712,-4.6844,-4.7062,-4.7266,0.0,0.0,0.0,-5.9367,0.0,-5.7493,-5.6848,-5.6776,-5.675,-5.6644,0.0,0.0,0.0,0.0,-5.5411,-5.5409,-5.5719,-5.619,-5.6785,-5.7556,-5.7997,-5.7997,-5.7607,-5.7213,-5.6819,-5.5773,-5.4444,-5.2912,-5.284,-5.2485,-5.1923,-5.278,-5.2997,-5.2667,-5.3461,-5.2499,-5.0419,-5.0689,-4.9468,-4.7317,-4.7486,-4.665,-4.5385,-4.5483,-4.5585,-4.5844,-4.6401,-4.6803,-4.71,-4.7572,-4.7803,-4.7934,-4.796,-4.7613,-4.7029,-4.623,-4.5935,-4.5784,-4.5479,-4.5209,-4.5012,-4.4731,-4.4107,-4.3312,-4.2277,-4.1468,-4.077,-4.0041,-3.9634,-3.9564,-3.9956,-4.0952,-4.1954,-4.2615,-4.3463,-4.4342,-4.5095,-4.5673,-4.61,-4.6276,-4.6301,-4.6301,-4.6301,-4.5296,-4.4618,-4.4618,-4.3614,-4.3208,-4.3646,-4.3598,-4.418,-4.5533,-4.5797,-4.624,-4.6931,-4.7062,-4.7149,-4.7149,-4.7149,-4.7149,-4.7149,-4.6975,-4.6844,-4.6638,-4.6269,-4.6269,-4.6462,-4.5927,-4.5702,-4.5702,-4.5611,-4.5866,-4.6269,-4.6491,-4.6712,-4.6887,-6.1906,-6.0449,-5.8976,-5.8594,-5.7277,-5.6209,-5.5936,-5.6098,-5.6146,-5.5901,0.0,0.0,0.0,0.0,0.0,-5.546,-5.6141,-5.6662,-5.6836,-5.7556,-5.7997,-5.7997,-5.7607,-5.7264,-5.6984,-5.5978,-5.4625,-5.3066,-5.2234,-5.1753,-5.159,-5.1738,-5.1789,-5.1808,-5.1857,-5.1177,-4.9877,-4.9499,-4.8118,-4.6263,-4.5943,-4.4901,-4.3525,-4.339,-4.3653,-4.4211,-4.4784,-4.555,-4.6337,-4.6655,-4.7033,-4.7274,-4.6944,-4.6564,-4.6046,-4.519,-4.496,-4.49,0.0,0.0,0.0,-4.4853,-4.4739,-4.4122,-4.268,-4.1912,-4.1301,-4.0416,-3.9773,-3.9363,-3.9406,-4.014,-4.1055,-4.2023,-4.264,-4.3363,-4.436,-4.5095,-4.5698,-4.6165,-4.6301,-4.6301,-4.6301,-4.5296,-4.4618,-4.4618,-4.3614,-4.3098,-4.3379,-4.3337,-4.3737,-4.4676,-4.5656,-4.6225,-4.6225,-4.6668,-4.6931,-4.6931,-4.6931,-4.6931,-4.6887,-4.6403,-4.618,-4.6135,-4.5384,-4.5293,-4.5656,-4.4915,-4.4666,-4.4648,-4.4462,-4.4787,-4.5504,-4.573,-4.6001,-4.6135,-6.1787,-6.0433,-5.9201,-5.8844,-5.7293,-5.6059,-5.5968,-5.5484,-5.5104,0.0,0.0,0.0,-5.5549,-5.5489,-5.5559,-5.5801,-5.6103,-5.6671,-5.7491,-5.7711,-5.7904,-5.7997,-5.781,-5.7461,-5.701,-5.6366,-5.4845,-5.2459,-5.2255,-5.1262,-4.9643,-5.0245,-5.0326,-4.9867,-4.9452,-4.88,-4.8095,-4.8791,-4.7813,-4.5808,-4.591,-4.5135,-4.3876,-4.3966,-4.4141,-4.4295,-4.4713,-4.5102,-4.5546,-4.5877,-4.5949,-4.5753,-4.5145,-4.4746,-4.4448,-4.3941,-4.3713,-4.3622,-4.368,0.0,0.0,0.0,0.0,0.0,-4.3783,-4.3038,-4.2297,-4.1436,-4.0898,-4.0502,-4.0126,-4.0169,-4.0516,-4.1335,-4.248,-4.3255,-4.3105,-4.4269,-4.5107,-4.4992,-4.5569,-4.5939,-4.5939,-4.5119,-4.4618,-4.4618,-4.3614,-4.2946,-4.2757,-4.3229,-4.3801,-4.4462,-4.5429,-4.6016,-4.6225,-4.6668,-4.6931,-4.6931,-4.6931,-4.6844,-4.6668,-4.6151,-4.5627,-4.5081,-4.4527,-4.3965,-4.3368,-4.3539,-4.3586,-4.3586,-4.3539,-4.3899,-4.4462,-4.4879,-4.5201,-4.531,-6.1648,-6.0291,-5.9069,-5.8695,-5.7297,-5.6072,-5.5662,-5.5251,-5.4805,0.0,0.0,0.0,-5.5169,-5.527,-5.5544,-5.6093,-5.6273,-5.6681,-5.751,-5.7583,-5.7739,-5.7904,-5.7726,-5.7461,-5.7087,-5.6483,-5.486,-5.2205,-5.1911,-5.0693,-4.8688,-4.905,-4.9057,-4.8682,-4.8144,-4.7548,-4.6926,-4.7471,-4.6705,-4.509,-4.5212,-4.469,-4.3723,-4.3949,-4.4065,-4.4104,-4.4381,-4.4648,-4.4874,-4.5067,-4.4813,-4.4429,-4.4137,-4.3654,-4.3072,-4.2682,-4.2617,-4.2648,-4.2617,-4.3096,-4.364,-4.364,0.0,0.0,-4.3816,-4.3452,-4.3034,-4.2377,-4.1724,-4.1249,-4.1169,-4.093,-4.0852,-4.1059,-4.2203,-4.296,-4.2699,-4.3505,-4.4202,-4.4456,-4.5091,-4.5569,-4.5793,-4.5035,-4.4618,-4.4618,-4.3614,-4.2815,-4.2367,-4.2628,-4.3039,-4.3586,-4.4666,-4.5338,-4.5595,-4.6403,-4.6756,-4.6756,-4.6756,-4.658,-4.6269,-4.5566,-4.4805,-4.4031,-4.3444,-4.2722,-4.194,-4.2065,-4.2213,-4.2431,-4.2555,-4.2867,-4.3396,-4.3871,-4.4106,-4.4078,0.0,-6.0083,-5.8829,-5.8276,-5.7257,-5.6234,-5.5416,-5.5312,-5.5071,0.0,-5.4215,-5.45,-5.5122,-5.5264,-5.5549,-5.6118,-5.6311,-5.6582,-5.7061,-5.7239,-5.7437,-5.7739,-5.751,-5.7313,-5.7163,-5.6267,-5.4646,-5.2205,-5.1306,-4.9992,-4.8319,-4.7969,-4.7826,-4.785,-4.7366,-4.6749,-4.603,-4.5829,-4.5142,-4.4227,-4.4287,-4.3888,-4.3329,-4.3557,-4.3636,-4.3675,-4.3871,-4.4065,-4.4228,-4.4205,-4.3766,-4.3322,-4.3674,-4.296,-4.1978,-4.1715,-4.1783,-4.1851,-4.1588,-4.1948,-4.2459,-4.2491,-4.326,0.0,-4.3244,-4.3387,-4.3525,-4.3136,-4.2341,-4.1851,-4.225,-4.2031,-4.1641,-4.1265,-4.1948,-4.2511,-4.2616,-4.2841,-4.3262,-4.4087,-4.4645,-4.5097,-4.5533,-4.4935,-4.4543,-4.4543,-4.352,-4.2608,-4.2,-4.1822,-4.1944,-4.2457,-4.3729,-4.4555,-4.489,-4.5987,-4.6565,-4.6624,-4.6521,-4.6255,-4.5747,-4.4787,-4.3899,-4.3039,-4.2311,-4.167,-4.1121,-4.0643,-4.0744,-4.1222,-4.1498,-4.1868,-4.2257,-4.2819,-4.2867,-4.2598,-6.0708,-5.9906,-5.9099,-5.8146,-5.7261,-5.667,-5.6499,-5.5992,-5.5585,-5.5381,-5.4975,-5.4834,-5.5228,-5.4934,-5.4865,-5.5343,-5.5549,-5.5858,-5.6447,-5.6608,-5.6871,-5.7289,-5.7363,-5.7239,-5.6917,-5.5875,-5.4254,-5.2058,-5.0665,-4.906,-4.719,-4.6635,-4.6158,-4.5765,-4.5353,-4.4895,-4.4461,-4.4225,-4.3897,-4.3529,-4.4067,-4.3888,-4.329,-4.3369,-4.3369,-4.3369,-4.3409,-4.3596,-4.378,-4.3503,-4.3325,-4.3174,-4.2988,-4.2346,-4.1655,-4.1724,-4.132,-4.0817,-4.0919,-4.1256,-4.1623,-4.1884,-4.243,0.0,-4.3084,-4.3305,-4.3434,-4.334,-4.3201,-4.3002,-4.2588,-4.2299,-4.219,-4.2493,-4.2187,-4.1719,-4.1206,-4.2347,-4.3006,-4.2561,-4.3606,-4.4284,-4.4146,-4.402,-4.3966,-4.3966,-4.273,-4.1729,-4.115,-4.1512,-4.1944,-4.2457,-4.3899,-4.4879,-4.5367,-4.5859,-4.634,-4.6844,-4.6136,-4.5727,-4.5549,-4.4555,-4.3423,-4.2262,-4.1696,-4.1047,-4.0313,-4.0236,-4.0389,-4.0643,-4.0694,-4.0946,-4.1222,-4.1571,-4.1644,-4.1544,-5.9729,-5.8809,-5.8035,-5.7325,-5.6985,-5.6697,-5.6325,-5.6258,-5.6122,-5.5749,-5.5109,-5.4635,-5.4528,-5.4251,-5.4237,-5.4679,-5.4483,-5.457,-5.5122,-5.5021,-5.5161,-5.5692,-5.5794,-5.5718,-5.5512,-5.4616,-5.3324,-5.1567,-5.0234,-4.8663,-4.6997,-4.6198,-4.5583,-4.5024,-4.461,-4.4258,-4.3832,-4.3714,-4.3557,-4.3319,-4.3648,-4.3589,-4.329,-4.329,-4.329,-4.329,-4.329,-4.3369,-4.3497,-4.3477,-4.319,-4.2895,-4.2829,-4.2316,-4.1631,-4.1331,-4.1026,-4.0689,-4.0323,-4.0509,-4.082,-4.1192,-4.1688,0.0,0.0,-4.3082,-4.3295,-4.3479,-4.3467,-4.3422,-4.3396,-4.3025,-4.2966,-4.358,-4.3301,-4.2767,-4.2227,-4.2484,-4.2782,-4.2866,-4.352,-4.4016,-4.4128,-4.3808,-4.333,-4.261,-4.1663,-4.0988,-4.0736,-4.1105,-4.1547,-4.2065,-4.3681,-4.4617,-4.4788,-4.561,-4.5981,-4.5951,-4.5563,-4.5186,-4.4788,-4.3826,-4.2771,-4.167,-4.0997,-4.0389,-3.9878,-3.9878,-3.9981,-4.0108,-4.0236,-4.0389,-4.0516,-4.0795,-4.082,-4.0668,-5.8624,-5.7645,-5.6798,-5.6332,-5.6438,-5.6393,-5.5818,-5.6188,-5.6288,-5.5678,-5.4936,-5.4295,-5.3855,-5.3685,-5.3716,-5.4076,-5.3516,-5.3349,-5.3803,-5.3456,-5.3447,-5.3982,-5.4096,-5.4132,-5.407,-5.325,-5.2218,-5.1016,-4.9772,-4.8398,-4.6999,-4.6127,-4.5306,-4.4576,-4.4159,-4.3775,-4.3455,-4.3455,-4.3397,-4.329,-4.329,-4.329,-4.329,-4.329,-4.323,-4.312,-4.2961,-4.2991,-4.315,-4.3377,-4.3115,-4.2754,-4.2977,-4.2569,-4.1896,-4.1203,-4.1066,-4.0928,-4.0209,-4.0182,-4.0379,-4.0728,-4.1148,-4.1621,0.0,0.0,0.0,-4.3416,-4.3449,-4.3523,-4.3994,-4.3619,-4.3555,-4.4493,-4.4418,-4.4219,-4.4168,-4.3367,-4.2939,-4.3463,-4.3687,-4.3874,-4.4175,-4.3554,-4.2671,-4.1468,-4.091,-4.0633,-4.0559,-4.0875,-4.1298,-4.1845,-4.3306,-4.415,-4.4122,-4.4982,-4.5247,-4.4803,-4.4674,-4.4383,-4.3868,-4.2956,-4.2052,-4.1172,-4.0415,-3.9929,-3.9697,-3.9697,-3.9697,-3.9749,-3.9929,-4.0032,-4.0032,-4.0236,-4.0185,-4.0032,-5.7434,-5.7075,-5.6462,-5.5578,-5.5656,-5.5818,-5.5681,-5.5609,-5.5432,-5.5221,-5.4515,-5.4116,-5.4223,-5.3651,-5.3382,-5.375,-5.3103,-5.2821,-5.3166,-5.2844,-5.2805,-5.319,-5.3537,-5.3618,-5.3482,-5.2481,-5.1495,-5.0655,-4.9268,-4.8001,-4.6828,-4.6056,-4.4909,-4.3455,-4.3069,-4.2762,-4.2569,-4.2569,-4.286,-4.329,-4.329,-4.329,-4.329,-4.329,-4.297,-4.244,-4.1841,-4.2021,-4.25,-4.2569,-4.286,-4.321,-4.3279,-4.2839,-4.2338,-4.2239,-4.179,-4.134,-4.125,-4.0949,-4.0686,-4.0866,-4.087,-4.1021,-4.1588,0.0,-4.2741,-4.3082,0.0,-4.3421,-4.3487,0.0,0.0,-4.4983,-4.4719,-4.4779,-4.5996,-4.5323,-4.4232,-4.3142,-4.3419,-4.3467,-4.2782,-4.2439,-4.2106,-4.1673,-4.1362,-4.1132,-4.0848,-4.1324,-4.1845,-4.2409,-4.3109,-4.3726,-4.4195,-4.3603,-4.3584,-4.4122,-4.3128,-4.2789,-4.3064,-4.212,-4.1413,-4.092,-4.0338,-3.9929,-3.9697,-3.9697,-3.9697,-3.9697,-3.9749,-3.9749,-3.9749,-3.98,-3.98,-3.9749,-5.5888,-5.5497,-5.4965,-5.446,-5.4737,-5.5039,-5.4934,-5.4883,-5.4659,-5.4007,-5.3675,-5.3379,-5.3159,-5.2966,-5.2806,-5.2774,-5.2098,-5.1619,-5.1526,-5.1051,-5.0961,-5.1422,-5.1619,-5.1758,-5.1758,-5.1046,-5.0506,-5.0099,-4.8902,-4.7967,-4.7303,-4.6198,-4.5138,-4.4148,-4.3563,-4.3136,-4.291,-4.291,-4.309,-4.329,-4.329,-4.329,-4.326,-4.291,-4.2372,-4.1782,-4.1512,-4.1602,-4.1901,-4.2261,-4.259,-4.2851,-4.317,-4.315,-4.2851,-4.25,-4.2201,-4.1901,-4.1512,-4.098,-4.0581,-4.0734,-4.0573,-4.047,-4.0987,-4.159,-4.211,-4.246,0.0,0.0,0.0,0.0,0.0,0.0,-4.57,-4.6125,-4.6915,-4.6575,-4.5752,-4.4224,-4.4199,-4.4053,-4.3264,-4.2808,-4.2367,-4.1915,-4.1762,-4.1658,-4.1571,-4.2065,-4.2345,-4.2378,-4.3213,-4.3376,-4.2861,-4.2869,-4.2694,-4.2408,-4.1894,-4.1875,-4.2242,-4.1287,-4.0871,-4.087,-4.0185,-3.98,-3.9697,-3.9697,-3.9697,-3.9697,-3.9697,-3.9697,-3.9697,-3.9697,-3.9697,-3.9697,-5.4614,-5.4237,-5.3882,-5.375,-5.3991,-5.409,-5.3742,-5.3642,-5.3371,-5.2585,-5.2408,-5.2286,-5.198,-5.2131,-5.2217,-5.2065,-5.1296,-5.0723,-5.0441,-4.9743,-4.953,-4.9913,-5.0114,-5.0257,-5.0335,-4.9994,-4.9703,-4.956,-4.8704,-4.8098,-4.7671,-4.6445,-4.529,-4.4248,-4.3739,-4.3235,-4.2821,-4.3,-4.314,-4.329,-4.329,-4.32,-4.3,-4.2381,-4.1722,-4.1085,-4.0905,-4.0965,-4.1175,-4.1692,-4.1991,-4.2201,-4.2641,-4.2791,-4.2701,-4.2261,-4.2141,-4.2021,-4.1504,-4.0905,-4.0494,-4.0791,-4.0523,-4.035,-4.0962,-4.1548,-4.2023,-4.2291,-4.2653,0.0,0.0,0.0,-4.4623,-4.5695,0.0,-4.7075,-4.7605,-4.7489,-4.6766,-4.5203,-4.4789,-4.4424,-4.3925,-4.3372,-4.2937,-4.2625,-4.2501,-4.2398,-4.2382,-4.2671,-4.2664,-4.2249,-4.2793,-4.2648,-4.1631,-4.1722,-4.1383,-4.0646,-4.047,-4.0576,-4.0857,-4.025,-4.0169,-4.0412,-3.993,-3.9697,-3.9697,-3.9697,-3.9697,-3.9697,-3.9697,-3.9697,-3.9697,-3.9697,-3.9697,-3.9697,-5.3849,-5.3717,-5.3717,-5.3717,-5.345,-5.3006,-5.22,-5.1762,-5.1355,-5.0946,-5.0679,-5.0749,-5.1097,-5.1327,-5.159,-5.1954,-5.1018,-5.0392,-5.0393,-4.9512,-4.9077,-4.9226,-4.956,-4.9737,-4.9737,-4.959,-4.9411,-4.9229,-4.8736,-4.8227,-4.7671,-4.6722,0.0,0.0,-4.3013,-4.2425,-4.1474,-4.2171,-4.2761,-4.329,-4.329,-4.294,-4.2351,-4.1692,-4.0995,-4.0337,-3.9709,-3.9888,-4.0427,-4.0457,-4.0876,-4.1452,-4.1444,-4.1482,-4.1482,-4.1452,-4.1414,-4.1452,-4.1422,-4.0905,-4.0546,-4.1212,-4.1032,-4.0885,-4.1674,-4.2303,-4.2802,-4.3012,-4.3333,-4.3614,-4.382,-4.4125,-4.4884,-4.6323,-4.6778,0.0,0.0,-4.8,-4.7119,-4.555,-4.4565,-4.4095,-4.4284,-4.3851,-4.3757,-4.4172,-4.3823,-4.3479,-4.336,-4.3148,-4.2731,-4.2119,-4.158,-4.1157,-4.0952,-3.9929,-3.9247,-3.8997,-3.853,-3.8484,-3.8809,-3.8836,-3.9011,-3.9347,-3.9625,-3.9697,-3.9697,-3.9697,-3.9697,-3.9697,-3.9697,-3.9697,-3.9697,-3.9697,-3.9697,-3.9697,-5.3783,-5.3617,-5.3584,-5.3584,-5.3349,-5.2835,-5.1769,-5.0919,-5.026,-4.986,-4.959,-4.963,-5.0058,-5.0299,-5.0492,-5.0644,-5.0337,-4.9897,-4.9323,-4.9094,-4.8921,-4.8736,-4.9046,-4.926,-4.9381,-4.932,-4.9229,-4.9046,-4.8547,-4.8033,-4.7471,0.0,0.0,0.0,-4.2707,-4.2214,-4.2081,-4.2291,-4.2731,-4.329,-4.329,-4.294,-4.2321,-4.1662,-4.0965,-4.0307,-3.9649,-3.9559,-3.9828,-4.0247,-4.0546,-4.0816,-4.1235,-4.1422,-4.1422,-4.1422,-4.1422,-4.1422,-4.1422,-4.0905,-4.0546,-4.1205,-4.095,-4.0724,-4.1572,-4.1991,-4.2285,-4.2431,-4.2685,-4.2936,-4.3149,-4.3952,-4.4923,-4.5894,-4.6848,-4.7703,0.0,-4.7803,-4.7087,-4.6502,-4.5465,-4.5082,-4.5766,-4.501,-4.4555,-4.469,-4.4155,-4.3767,-4.3744,-4.3627,-4.3253,-4.245,-4.1918,-4.1215,-4.0299,-3.9462,-3.8819,-3.8413,-3.7939,-3.7976,-3.8428,-3.8495,-3.8837,-3.9322,-3.9548,-3.9697,-3.9697,-3.9697,-3.9697,-3.9697,-3.9697,-3.9697,-3.9697,-3.9697,-3.9697,-3.9697,-5.3584,-5.345,-5.3382,-5.3382,-5.2938,-5.2203,-5.114,-5.0182,-4.9421,-4.8975,-4.8728,-4.8697,-4.9097,-4.934,-4.9481,-4.9592,-4.9603,-4.9222,-4.8421,-4.8513,-4.8429,-4.8033,-4.8386,-4.8736,-4.8954,-4.9015,-4.9018,-4.8925,-4.8356,-4.7803,0.0,0.0,0.0,0.0,-4.2626,-4.2176,-4.2081,-4.2291,-4.2731,-4.329,-4.329,-4.294,-4.2321,-4.1662,-4.0965,-4.0307,-3.9649,-3.9373,-3.9499,-3.9918,-4.0038,-4.0127,-4.0546,-4.0696,-4.0696,-4.0696,-4.0696,-4.0696,-4.0696,-4.0367,-4.0277,-4.1145,-4.1055,-4.1033,-4.2046,-4.2417,-4.2607,-4.272,-4.2908,-4.3131,-4.3389,-4.4169,-4.5065,-4.5943,-4.6842,-4.7704,0.0,-4.7869,-4.7362,-4.7373,-4.6168,-4.5571,-4.6172,-4.5432,-4.4894,-4.4937,-4.4442,-4.4091,-4.3943,-4.3858,-4.3396,-4.242,-4.1967,-4.1124,-3.9865,-3.9158,-3.8485,-3.7802,-3.7387,-3.7334,-3.7672,-3.8054,-3.8463,-3.8868,-3.9473,-3.9697,-3.9697,-3.9697,-3.9697,-3.9697,-3.9697,-3.9697,-3.9697,-3.9697,-3.9697,-3.9697,-5.3247,-5.3144,-5.311,-5.3076,-5.2131,-5.1102,-5.0299,-4.9421,-4.8728,-4.8343,-4.8091,-4.8049,-4.826,-4.8469,-4.8646,-4.8862,-4.8803,-4.8495,-4.7801,-4.781,-4.7637,-4.7066,-4.7572,-4.8032,-4.8452,-4.8675,-4.8769,-4.8738,-4.8195,-4.7605,0.0,0.0,0.0,0.0,-4.2644,-4.2204,-4.1512,-4.2141,-4.2731,-4.329,-4.329,-4.294,-4.2321,-4.1624,-4.0965,-4.0307,-3.9612,-3.9373,-3.9373,-3.9373,-3.9373,-3.9373,-3.9373,-3.9373,-3.9373,-3.9373,-3.9373,-3.9373,-3.9373,-3.9373,-3.9738,-4.1055,-4.1384,-4.1713,-4.2991,-4.3478,-4.3636,-4.3636,-4.3793,-4.4065,-4.4458,-4.4723,-4.5216,-4.6337,-4.686,-4.7405,-4.8356,-4.8129,-4.7935,-4.8046,-4.6565,-4.5568,-4.5615,-4.5191,-4.4941,-4.4983,-4.4714,-4.4376,-4.3991,-4.3755,-4.3201,-4.2063,-4.1647,-4.0859,-3.9634,-3.8935,-3.8076,-3.7108,-3.6803,-3.6593,-3.648,-3.7513,-3.8015,-3.8115,-3.922,-3.9697,-3.9697,-3.9697,-3.9697,-3.9697,-3.9697,-3.9697,-3.9697,-3.9697,-3.9697,-3.9697,-5.2835,-5.2274,-5.1769,-5.1475,-5.1177,-5.0685,-4.99,-4.9015,-4.8301,-4.7837,-4.7581,-4.7568,-4.7752,-4.7837,-4.8049,-4.8396,-4.845,-4.8038,-4.7177,-4.7428,-4.7215,-4.6333,-4.6931,-4.7505,-4.7902,-4.8356,-4.842,-4.8196,-4.7902,-4.7236,-4.6269,0.0,0.0,0.0,-4.2259,-4.2024,-4.2141,-4.2321,-4.2731,-4.329,-4.329,-4.294,-4.2321,-4.1501,-4.0739,-4.0122,-3.943,-3.9053,-3.8943,-3.8943,-3.8943,-3.898,-3.9156,-3.9192,-3.9228,-3.9337,-3.9373,-3.9373,-3.9373,-3.9373,-3.9738,-4.1055,-4.127,-4.1513,-4.2793,-4.301,-4.293,-4.293,-4.313,-4.3329,-4.3606,-4.3957,-4.4496,-4.5332,-4.6515,-4.7505,-4.8066,-4.813,-4.8001,-4.7633,-4.684,-4.6307,-4.6291,-4.5314,-4.4638,-4.4474,-4.3945,-4.3617,-4.3479,-4.3439,-4.3108,-4.2526,-4.1951,-4.1128,-4.0114,-3.9114,-3.8194,-3.7413,-3.6922,-3.6796,-3.6985,-3.7688,-3.8241,-3.8693,-3.9396,-3.9697,-3.9697,-3.9697,-3.9697,-3.9697,-3.9697,-3.9697,-3.9697,-3.9697,-3.9697,-3.9747,-5.2167,-5.1364,-5.0647,-5.0338,-5.0026,-4.967,-4.9219,-4.851,-4.788,-4.7495,-4.7396,-4.7352,-4.7482,-4.7452,-4.7581,-4.7837,-4.7964,-4.7513,-4.6385,-4.6731,-4.6569,-4.5573,-4.6127,-4.6759,-4.7336,-4.7902,-4.8065,-4.7869,-4.7471,-4.6793,-4.5841,0.0,0.0,0.0,-4.225,-4.2128,-4.241,-4.2671,-4.3,-4.326,-4.303,-4.2482,0.0,-4.0863,-3.9917,-3.9073,-3.861,-3.8538,-3.8649,-3.8575,-3.8538,-3.8575,-3.876,-3.887,-3.9017,-3.9228,-3.9337,-3.9373,-3.9373,-3.9373,-3.9679,-4.0696,-4.1024,-4.1308,-4.2238,-4.2412,-4.2374,-4.2374,-4.2496,-4.2699,-4.3061,-4.3448,-4.4035,-4.5073,-4.6375,-4.7438,-4.7902,-4.8163,-4.8163,-4.7704,-4.71,-4.6482,-4.5942,-4.503,-4.4306,-4.3868,-4.3499,-4.329,-4.329,-4.321,-4.301,-4.2688,-4.2075,-4.1254,-4.0287,-3.938,-3.8421,-3.7505,-3.7318,-3.7219,-3.7211,-3.8015,-3.8567,-3.8944,-3.9446,-3.9697,-3.9697,-3.9697,-3.9697,-3.9697,-3.9697,-3.9697,-3.9697,-3.9697,-3.9697,-3.9772,-5.129,-5.0416,-4.9701,-4.9461,-4.8893,-4.8438,-4.8438,-4.7964,-4.7495,-4.7352,-4.7309,-4.7309,-4.7309,-4.7309,-4.7309,-4.7309,-4.7482,-4.6966,-4.5653,-4.6001,-4.5791,-4.4823,-4.529,-4.5981,-4.6722,-4.7302,-4.7571,-4.7571,-4.6999,-4.634,0.0,0.0,0.0,0.0,-4.2398,-4.2321,-4.244,-4.297,-4.323,-4.323,-4.2611,-4.1867,-4.0982,-4.0073,-3.8943,-3.7796,-3.7519,-3.7787,-3.824,-3.8052,-3.8014,-3.8052,-3.8277,-3.8464,-3.8686,-3.8907,-3.9119,-3.9265,-3.9265,-3.9301,-3.9523,-4.021,-4.0658,-4.1015,-4.1528,-4.1645,-4.1724,-4.1811,-4.1881,-4.2087,-4.2699,-4.309,-4.3732,-4.5073,-4.6198,-4.7101,-4.7737,-4.8162,-4.8324,-4.8001,-4.7337,0.0,-4.5221,-4.4617,-4.3996,-4.3329,-4.329,-4.329,-4.329,-4.313,-4.29,-4.2688,-4.2162,-4.134,-4.0358,-3.9727,-3.8791,-3.7551,-3.7792,-3.7693,-3.7337,-3.8391,-3.8969,-3.9045,-3.9496,-3.9697,-3.9697,-3.9697,-3.9697,-3.9697,-3.9697,-3.9697,-3.9697,-3.9697,-3.9747,-3.9873,-5.0104,-4.934,-4.8769,-4.8563,-4.8133,-4.7794,-4.7794,-4.7666,-4.7495,-4.7352,-4.7309,-4.7309,-4.7309,-4.7309,-4.7309,-4.7309,-4.7352,-4.6783,-4.5447,-4.5563,-4.5273,-4.4173,-4.4723,-4.5326,-4.5877,-4.6512,-4.6791,-4.6791,-4.6547,-4.5913,0.0,0.0,0.0,-4.2419,-4.1841,-4.1901,-4.241,-4.253,-4.2851,-4.323,-4.2611,-4.1867,-4.0982,-3.9768,-3.8639,-3.7567,-3.6794,-3.6716,-3.7017,-3.6978,-3.6978,-3.7017,-3.7366,-3.7663,-3.7863,-3.824,-3.8501,-3.8679,-3.8679,-3.89,-3.9304,-3.9996,-3.9971,-4.0041,-4.0906,-4.0605,-4.0252,-4.0831,-4.1043,-4.1339,-4.184,-4.2688,-4.3606,-4.461,-4.5405,-4.6269,-4.7101,-4.7803,-4.813,-4.7803,-4.7471,-4.6724,-4.5258,-4.4617,-4.3996,-4.3329,-4.329,-4.329,-4.329,-4.313,-4.29,-4.2688,-4.2528,-4.1881,-4.0645,-4.0227,-3.9256,-3.773,-3.7861,-3.7896,-3.7889,-3.8567,-3.912,-3.9546,-3.9647,-3.9697,-3.9697,-3.9697,-3.9697,-3.9697,-3.9697,-3.9697,-3.9697,-3.9697,-3.9973,-4.045,-4.9097,-4.8438,-4.8049,-4.7964,-4.7666,-4.7409,-4.7409,-4.7409,-4.7439,-4.7309,-4.7309,-4.7309,-4.7309,-4.7309,-4.7309,-4.7309,-4.7309,-4.6741,-4.5394,-4.5357,-4.495,-4.3892,-4.4189,-4.4685,-4.529,-4.5733,-4.6052,-4.6191,-4.5841,-4.5332,-4.4692,-4.3518,-4.2795,-4.2381,-4.1722,-4.1602,-4.1901,-4.2261,-4.259,-4.2761,-4.2141,-4.1424,-4.0615,-3.9092,-3.7786,-3.6688,-3.6044,-3.5602,-3.5426,-3.5871,-3.6111,-3.623,-3.6401,-3.6755,-3.7144,-3.7453,-3.7758,-3.8052,-3.8165,-3.8389,-3.8774,-3.9291,-3.9429,-3.9565,-3.9797,-3.9694,-3.9592,-3.9686,-4.0006,-4.0574,-4.1506,-4.2496,-4.3379,-4.412,-4.4962,-4.5841,-4.6722,-4.7404,-4.7704,-4.7471,-4.7168,-4.6445,-4.5073,-4.4541,-4.3996,-4.3329,-4.329,-4.329,-4.329,-4.301,-4.2769,-4.2555,-4.2505,-4.1995,-4.0948,-4.0457,-3.9524,-3.8292,-3.8324,-3.8252,-3.804,-3.8894,-3.9446,-3.9697,-3.9697,-3.9697,-3.9697,-3.9697,-3.9697,-3.9697,-3.9697,-3.9697,-3.9697,-3.9697,-4.0049,-4.0601,-4.8187,-4.7837,-4.7568,-4.7568,-4.7439,-4.7309,-4.7309,-4.7309,-4.7309,-4.7309,-4.7309,-4.7309,-4.7309,-4.7309,-4.7309,-4.7309,-4.7309,-4.6741,-4.5394,-4.5304,-4.4788,-4.3657,-4.3832,-4.4181,-4.4685,-4.4993,-4.529,-4.5541,-4.5142,-4.4768,-4.4458,-4.313,-4.2242,-4.1752,-4.1205,-4.1115,-4.1414,-4.1961,-4.2351,-4.2491,-4.1675,-4.1003,-4.0286,-3.84,-3.6961,-3.5856,-3.5386,-3.4688,-3.4105,-3.4771,-3.5141,-3.5386,-3.5399,-3.5776,-3.6215,-3.6452,-3.6805,-3.726,-3.7453,-3.772,-3.8127,-3.8538,-3.8881,-3.9101,-3.8793,-3.8867,-3.8907,-3.8757,-3.9207,-4.0012,-4.1254,-4.217,-4.2941,-4.3536,-4.4472,-4.5405,-4.6092,-4.6825,-4.7135,-4.6768,-4.6496,-4.5833,-4.4632,-4.4281,-4.3844,-4.3329,-4.329,-4.329,-4.329,-4.293,-4.2607,-4.2392,-4.248,-4.2062,-4.1218,-4.0795,-4.0026,-3.8893,-3.8965,-3.871,-3.8216,-3.9245,-3.9697,-3.9697,-3.9697,-3.9697,-3.9697,-3.9697,-3.9697,-3.9697,-3.9697,-3.9697,-3.9697,-3.9823,-4.0224,-4.0777,-4.7709,-4.7452,-4.7352,-4.7352,-4.7309,-4.7309,-4.7309,-4.7309,-4.7309,-4.7309,-4.7309,-4.7309,-4.7309,-4.7309,-4.7309,-4.7309,-4.7309,-4.6741,-4.5394,-4.5304,-4.4706,-4.3389,-4.3596,-4.3832,-4.4104,-4.4266,-4.4496,-4.4723,-4.4496,-4.4297,-4.4035,-4.2501,-4.1039,-3.9679,-3.9619,-4.0277,-4.1422,-4.1482,-4.2162,-4.308,-4.1701,-4.0888,-4.0247,-3.787,-3.6452,-3.5615,-3.4812,-3.4189,-3.3725,-3.3598,-3.3852,-3.4272,-3.4481,-3.4662,-3.4909,-3.5114,-3.5521,-3.5896,-3.6096,-3.6755,-3.7481,-3.7872,-3.8005,-3.8131,-3.8435,-3.795,-3.7607,-3.8265,-3.9076,-3.9837,-4.0645,-4.1367,-4.2034,-4.2688,-4.3654,-4.4472,-4.4924,-4.5949,-4.6322,-4.5301,-4.5341,-4.4957,-4.3735,-4.3499,-4.3358,-4.3269,-4.329,-4.329,-4.329,-4.293,-4.2607,-4.2392,-4.284,-4.2487,-4.1218,-4.1616,-4.1045,-3.9542,-3.9532,-3.927,-3.8869,-3.9421,-3.9697,-3.9697,-3.9697,-3.9697,-3.9697,-3.9697,-3.9697,-3.9697,-3.9697,-3.9697,-3.9747,-4.0249,-4.0724,-4.1275,-4.7452,-4.7352,-4.7309,-4.7309,-4.7309,-4.7309,-4.7309,-4.7309,-4.7309,-4.7309,-4.7309,-4.7309,-4.7309,-4.7309,-4.7309,-4.7309,-4.7309,-4.6741,-4.5394,-4.5304,-4.4706,-4.3349,-4.3369,-4.3596,-4.3793,-4.391,-4.4026,-4.4258,-4.4026,-4.391,-4.3793,-4.2634,-4.1378,-4.0008,-4.0008,-4.0307,-4.0846,-4.1662,-4.2043,-4.2102,-4.1394,-4.0498,-3.9344,-3.7572,-3.6136,-3.5032,-3.4439,-3.381,-3.3326,-3.324,-3.3539,-3.3852,-3.381,-3.4063,-3.4356,-3.4439,-3.4688,-3.4991,-3.5386,-3.579,-3.631,-3.695,-3.7222,-3.7423,-3.7745,-3.7545,-3.7399,-3.7481,-3.8113,-3.8874,-3.9722,-4.0402,-4.1085,-4.1728,-4.2519,-4.3279,-4.3974,-4.4593,-4.4911,-4.4736,-4.4294,-4.382,-4.3257,-4.2917,-4.2694,-4.2505,-4.2971,-4.325,-4.313,-4.2729,-4.231,-4.1814,-4.1966,-4.177,-4.1142,-4.1051,-4.0638,-3.9901,-3.9715,-3.9346,-3.8944,-3.9446,-3.9697,-3.9697,-3.9697,-3.9697,-3.9697,-3.9697,-3.9697,-3.9697,-3.9697,-3.9898,-4.0224,-4.0425,-4.1078,-4.1856,-4.7352,-4.7309,-4.7309,-4.7309,-4.7309,-4.7309,-4.7309,-4.7309,-4.7309,-4.7309,-4.7309,-4.7309,-4.7309,-4.7309,-4.7309,-4.7309,-4.7309,-4.6741,-4.5394,-4.5304,-4.4706,-4.3349,-4.329,-4.3369,-4.3596,-4.3596,-4.3675,-4.3793,-4.3675,-4.3596,-4.3596,-4.2749,-4.1811,-4.0696,-4.0696,-4.0786,-4.1025,-4.2021,-4.2141,-4.1654,-4.1207,-4.0206,-3.8842,-3.7292,-3.5964,-3.4812,-3.4189,-3.3666,-3.3197,-3.3111,-3.3283,-3.3513,-3.3368,-3.3539,-3.3836,-3.3836,-3.3937,-3.4189,-3.4564,-3.4895,-3.5304,-3.6044,-3.648,-3.6783,-3.7134,-3.7276,-3.7282,-3.6962,-3.7512,-3.8155,-3.8718,-3.9464,-4.0158,-4.0603,-4.1365,-4.2152,-4.2841,-4.3319,-4.3689,-4.3815,-4.3426,-4.3039,-4.291,-4.2565,-4.2315,-4.2219,-4.2703,-4.301,-4.29,-4.2444,-4.191,-4.1283,-4.1315,-4.1196,-4.0877,-4.0728,-4.0522,-4.0201,-3.9876,-3.955,-3.912,-3.9521,-3.9697,-3.9697,-3.9697,-3.9697,-3.9697,-3.9697,-3.9697,-3.9697,-3.9697,-4.0023,-4.0526,-4.0701,-4.1354,-4.2238,-4.7309,-4.7309,-4.7309,-4.7309,-4.7309,-4.7309,-4.7309,-4.7309,-4.7309,-4.7309,-4.7309,-4.7309,-4.7309,-4.7309,-4.7309,-4.7309,-4.7309,-4.6741,-4.5394,-4.5304,-4.4706,-4.3349,-4.329,-4.329,-4.329,-4.329,-4.329,-4.329,-4.329,-4.329,-4.329,-4.2671,-4.2051,-4.1422,-4.1422,-4.1782,-4.2381,-4.2381,-4.241,-4.2282,-4.1202,-4.0167,-3.8996,-3.7029,-3.5924,-3.5223,-3.4105,-3.3556,-3.3368,-3.3154,-3.3111,-3.3111,-3.3111,-3.3111,-3.3111,-3.3111,-3.324,-3.3471,-3.3683,-3.4063,-3.4564,-3.5223,-3.5723,-3.6203,-3.6861,-3.6978,-3.7018,-3.692,-3.7512,-3.7933,-3.774,-3.8576,-3.9264,-3.921,-4.0216,-4.1085,-4.131,-4.2234,-4.2793,-4.2402,-4.2658,-4.2811,-4.265,-4.2419,-4.2415,-4.267,-4.2526,-4.2514,-4.2688,-4.2075,-4.1464,-4.1043,-4.129,-4.1055,-4.0334,-4.0992,-4.1021,-4.0491,-4.0236,-3.9981,-3.9697,-3.9697,-3.9697,-3.9697,-3.9697,-3.9697,-3.9697,-3.9697,-3.9697,-3.9697,-3.9697,-4.0023,-4.0576,-4.1075,-4.1681,-4.2288,-4.7309,-4.7309,-4.7309,-4.7309,-4.7309,-4.7309,-4.7309,-4.7309,-4.7309,-4.7309,-4.7309,-4.7309,-4.7309,-4.7309,-4.7309,-4.7309,-4.689,-4.6262,-4.5364,-4.4885,-4.4227,-4.3319,-4.329,-4.329,-4.329,-4.329,-4.329,-4.329,-4.329,-4.329,-4.329,-4.2671,-4.2291,-4.2081,-4.2081,-4.2201,-4.241,-4.241,-4.2141,-4.1624,-4.055,-3.9484,-3.8417,-3.7229,-3.631,-3.5507,-3.4688,-3.4063,-3.3556,-3.3368,-3.3197,-3.3111,-3.3111,-3.3111,-3.3111,-3.3111,-3.3154,-3.324,-3.3428,-3.3598,-3.3852,-3.4356,-3.4812,-3.5277,-3.5951,-3.6587,-3.7069,-3.7285,-3.7579,-3.7822,-3.7731,-3.8176,-3.8549,-3.8549,-3.8863,-3.9353,-4.0027,-4.0589,-4.1169,-4.1797,-4.1591,-4.1517,-4.1784,-4.1317,-4.1013,-4.1163,-4.0998,-4.1212,-4.1785,-4.1283,-4.0645,-3.9865,-3.9825,-3.9673,-3.9573,-3.9912,-4.0182,-4.0236,-4.0134,-3.9981,-3.9697,-3.9697,-3.9697,-3.9697,-3.9697,-3.9697,-3.9697,-3.9697,-3.9697,-3.9747,-4.0099,-4.0601,-4.11,-4.1681,-4.2233,-4.2791,-4.7309,-4.7309,-4.7309,-4.7309,-4.7309,-4.7309,-4.7309,-4.7309,-4.7309,-4.7309,-4.7309,-4.7309,-4.7309,-4.7309,-4.7309,-4.7309,-4.6711,-4.6022,-4.5334,-4.4676,-4.4018,-4.3319,-4.329,-4.329,-4.329,-4.329,-4.329,-4.329,-4.329,-4.329,-4.329,-4.291,-4.265,-4.241,-4.241,-4.2261,-4.2021,-4.2021,-4.1662,-4.0965,-4.021,-3.9312,-3.8352,-3.7558,-3.6716,-3.5924,-3.5114,-3.4397,-3.381,-3.3471,-3.3283,-3.3111,-3.3111,-3.3111,-3.3111,-3.3111,-3.3111,-3.3111,-3.324,-3.3283,-3.3368,-3.3751,-3.4147,-3.4729,-3.5588,-3.6389,-3.6973,-3.7247,-3.7606,-3.7821,-3.7541,-3.7864,-3.8122,-3.7848,-3.7939,-3.8349,-3.9131,-3.9574,-4.0229,-4.1198,-4.0996,-4.0974,-4.1343,-4.0821,-4.0447,-4.0392,-4.0065,-4.0027,-4.0343,-4.0257,-3.9931,-3.9348,-3.913,-3.9094,-3.9205,-3.9471,-3.9728,-3.9929,-3.9929,-3.9826,-3.9697,-3.9697,-3.9697,-3.9697,-3.9697,-3.9697,-3.9722,-3.9923,-3.9998,-4.0049,-4.0601,-4.1153,-4.1681,-4.2087,-4.2564,-4.2986,-4.7309,-4.7309,-4.7309,-4.7309,-4.7309,-4.7309,-4.7309,-4.7309,-4.7309,-4.7309,-4.7309,-4.7309,-4.7309,-4.7309,-4.7279,-4.7249,-4.6621,-4.5963,-4.5274,-4.4616,-4.3917,-4.3319,-4.329,-4.329,-4.329,-4.329,-4.329,-4.329,-4.329,-4.329,-4.329,-4.326,-4.294,-4.241,-4.2351,-4.1991,-4.1422,-4.1324,-4.0965,-4.0397,-4.0152,-3.9513,-3.873,-3.7947,-3.7222,-3.6492,-3.544,-3.4688,-3.4047,-3.3556,-3.3283,-3.3111,-3.3111,-3.3111,-3.3111,-3.3111,-3.3111,-3.3111,-3.3111,-3.3111,-3.3154,-3.3326,-3.3751,-3.4397,-3.5669,-3.631,-3.6705,-3.694,-3.76,-3.7936,-3.7288,-3.7732,-3.7985,-3.7248,-3.7572,-3.8057,-3.8512,-3.9131,-3.9837,-4.0516,-4.0773,-4.0958,-4.1113,-4.0731,-4.0346,-4.0158,-3.9475,-3.8953,-3.861,-3.8971,-3.9258,-3.9263,-3.919,-3.9131,-3.9196,-3.9523,-3.9697,-3.9697,-3.9697,-3.9697,-3.9697,-3.9697,-3.9697,-3.9697,-3.9747,-3.9747,-3.9798,-4.035,-4.0576,-4.0626,-4.1125,-4.1706,-4.2213,-4.2263,-4.259,-4.2986,-4.7309,-4.7309,-4.7309,-4.7309,-4.7309,-4.7309,-4.7309,-4.7309,-4.7309,-4.7309,-4.7309,-4.7309,-4.7309,-4.7309,-4.71,-4.6548,-4.5933,-4.5244,-4.4586,-4.3888,-4.3469,-4.329,-4.329,-4.329,-4.329,-4.329,-4.329,-4.329,-4.329,-4.329,-4.329,-4.2821,-4.256,-4.2381,-4.1871,-4.1572,-4.1392,-4.0846,-4.0546,-4.0367,-3.9609,-3.9201,-3.8943,-3.8315,-3.7672,-3.7017,-3.6084,-3.5141,-3.4272,-3.381,-3.3386,-3.3111,-3.3111,-3.3111,-3.3111,-3.3111,-3.3111,-3.3111,-3.3111,-3.3111,-3.3111,-3.3154,-3.3496,-3.4063,-3.5032,-3.5629,-3.6111,-3.6665,-3.7668,-3.8242,-3.7739,-3.8111,-3.8304,-3.7802,-3.7644,-3.7782,-3.8213,-3.8729,-3.9264,-3.9793,-3.9749,-3.9706,-3.9766,-3.9149,-3.8774,-3.8684,-3.8187,-3.8031,-3.8361,-3.8267,-3.8225,-3.826,-3.8853,-3.9119,-3.8969,-3.9472,-3.9697,-3.9697,-3.9697,-3.9697,-3.9697,-3.9697,-3.9697,-3.9722,-4.0149,-4.0325,-4.0375,-4.0874,-4.11,-4.115,-4.1756,-4.2087,-4.2263,-4.269,-4.2861,-4.2986,-4.7309,-4.7309,-4.7309,-4.7309,-4.7309,-4.7309,-4.7309,-4.7309,-4.7309,-4.7309,-4.7309,-4.7309,-4.7309,-4.7309,-4.704,-4.6339,-4.5693,-4.5005,-4.4347,-4.3648,-4.329,-4.329,-4.329,-4.329,-4.329,-4.329,-4.329,-4.329,-4.329,-4.329,-4.329,-4.297,-4.2641,-4.2381,-4.2021,-4.1692,-4.1362,-4.0666,-4.0397,-4.0337,-3.9569,-3.9228,-3.9192,-3.8575,-3.7976,-3.7289,-3.6243,-3.5237,-3.434,-3.4033,-3.3723,-3.3495,-3.3746,-3.3822,-3.3771,-3.352,-3.3269,-3.3111,-3.3111,-3.3111,-3.3111,-3.3197,-3.3386,-3.3768,-3.4439,-3.4936,-3.5507,-3.6468,-3.7496,-3.82,-3.8221,-3.8431,-3.8466,-3.7985,-3.7756,-3.7802,-3.8167,-3.853,-3.8845,-3.9087,-3.8935,-3.8756,-3.8612,-3.8141,-3.7893,-3.7893,-3.7433,-3.7365,-3.7954,-3.797,-3.8102,-3.8479,-3.8916,-3.9222,-3.9245,-3.9546,-3.9697,-3.9697,-3.9697,-3.9697,-3.9697,-3.9697,-3.9823,-4.0099,-4.0375,-4.0651,-4.0874,-4.148,-4.1706,-4.1756,-4.2308,-4.259,-4.2615,-4.2861,-4.2986,-4.2986,-4.7309,-4.7309,-4.7309,-4.7309,-4.7309,-4.7309,-4.7309,-4.7309,-4.7309,-4.7309,-4.7309,-4.7309,-4.7309,-4.7309,-4.704,-4.6339,-4.5783,-4.5155,-4.4496,-4.3928,-4.3559,-4.3439,-4.3439,-4.3379,-4.329,-4.329,-4.329,-4.329,-4.329,-4.329,-4.329,-4.32,-4.288,-4.241,-4.2291,-4.1931,-4.1354,-4.0786,-4.0487,-4.0337,-3.9798,-3.9499,-3.9337,-3.8789,-3.8165,-3.7491,-3.6325,-3.5371,-3.4607,-3.4433,-3.4243,-3.4142,-3.4575,-3.468,-3.4625,-3.4148,-3.3696,-3.3294,-3.3162,-3.3111,-3.3154,-3.3326,-3.3368,-3.3496,-3.392,-3.435,-3.5035,-3.6207,-3.7217,-3.8012,-3.8487,-3.8603,-3.8466,-3.8031,-3.7985,-3.8076,-3.8258,-3.8485,-3.8602,-3.8557,-3.8258,-3.7985,-3.7684,-3.7433,-3.732,-3.732,-3.6998,-3.7042,-3.7625,-3.7937,-3.8491,-3.9272,-3.9272,-3.9398,-3.9697,-3.9697,-3.9697,-3.9697,-3.9697,-3.9697,-3.9697,-3.9772,-4.0074,-4.0526,-4.0701,-4.1028,-4.1505,-4.2057,-4.2338,-4.2389,-4.2785,-4.2986,-4.2986,-4.2986,-4.2986,-4.2986,-4.7309,-4.7309,-4.7309,-4.7309,-4.7309,-4.7309,-4.7309,-4.7309,-4.7309,-4.7309,-4.7309,-4.7309,-4.7309,-4.7309,-4.704,-4.6339,-4.619,-4.5873,-4.5185,-4.5035,-4.4736,-4.4197,-4.4127,-4.3898,-4.329,-4.329,-4.329,-4.329,-4.329,-4.329,-4.329,-4.2761,-4.25,-4.2381,-4.1811,-4.1512,-4.1422,-4.1265,-4.0905,-4.0397,-4.0277,-3.9918,-3.9337,-3.8907,-3.8389,-3.7768,-3.7183,-3.6428,-3.5616,-3.5329,-3.5092,-3.4894,-3.4745,-3.468,-3.4655,-3.4625,-3.4525,-3.4248,-3.3345,-3.3111,-3.3111,-3.3154,-3.3154,-3.3197,-3.3428,-3.4067,-3.4813,-3.56,-3.6817,-3.7809,-3.8064,-3.8354,-3.8512,-3.8213,-3.8349,-3.8512,-3.8557,-3.8711,-3.8684,-3.8304,-3.7848,-3.7387,-3.6896,-3.6687,-3.6546,-3.6546,-3.6928,-3.7335,-3.7888,-3.8466,-3.9045,-3.9598,-3.9623,-3.9648,-3.9697,-3.9697,-3.9697,-3.9697,-3.9697,-3.9697,-3.9722,-4.0174,-4.0425,-4.0576,-4.1505,-4.2011,-4.2112,-4.2665,-4.2916,-4.2861,-4.2936,-4.2986,-4.2986,-4.2986,-4.2986,-4.2986,-4.7309,-4.7309,-4.7309,-4.7309,-4.7309,-4.7309,-4.7309,-4.7309,-4.7309,-4.7309,-4.7309,-4.7309,-4.7309,-4.7309,-4.7189,-4.689,-4.686,-4.6711,-4.6411,-4.5693,-4.5155,-4.4855,-4.4496,-4.4018,-4.329,-4.329,-4.329,-4.329,-4.329,-4.329,-4.329,-4.303,-4.288,-4.288,-4.2581,-4.2432,-4.2402,-4.2111,-4.1572,-4.0905,-4.0546,-4.0008,-3.9337,-3.8833,-3.8623,-3.8486,-3.7594,-3.7044,-3.6726,-3.6384,-3.6103,-3.5955,-3.5826,-3.5789,-3.5667,-3.5253,-3.4906,-3.455,-3.3746,-3.3746,-3.3897,-3.3596,-3.3746,-3.4016,-3.4079,-3.4502,-3.5091,-3.5841,-3.6575,-3.7287,-3.7801,-3.7938,-3.8011,-3.8031,-3.8122,-3.8285,-3.8349,-3.8395,-3.8258,-3.7848,-3.7387,-3.6922,-3.6593,-3.6452,-3.6531,-3.6832,-3.7036,-3.7563,-3.8417,-3.8718,-3.912,-3.9672,-3.9697,-3.9697,-3.9697,-3.9697,-3.9697,-3.9697,-3.9697,-3.9848,-4.0149,-4.04,-4.0827,-4.143,-4.1986,-4.2363,-4.2665,-4.2861,-4.2986,-4.2986,-4.2986,-4.2986,-4.2986,-4.2986,-4.2986,-4.2986,-4.7309,-4.7309,-4.7309,-4.7309,-4.7309,-4.7309,-4.7309,-4.7309,-4.7309,-4.7309,-4.7309,-4.7309,-4.7309,-4.7309,-4.7309,-4.7309,-4.7309,-4.7309,-4.7309,-4.6352,-4.5693,-4.5544,-4.4736,-4.4077,-4.3529,-4.3379,-4.329,-4.329,-4.329,-4.329,-4.329,-4.329,-4.329,-4.329,-4.329,-4.329,-4.326,-4.2791,-4.2261,-4.1602,-4.0876,-4.0217,-3.9576,-3.907,-3.9057,-3.9218,-3.8335,-3.8076,-3.8042,-3.7643,-3.7393,-3.7182,-3.7001,-3.6896,-3.6633,-3.5995,-3.5429,-3.4951,-3.4274,-3.4399,-3.4625,-3.4198,-3.4399,-3.468,-3.468,-3.4962,-3.5415,-3.6095,-3.6411,-3.6845,-3.7514,-3.7526,-3.7459,-3.7664,-3.7756,-3.7848,-3.8031,-3.7893,-3.7736,-3.7459,-3.7015,-3.6666,-3.6581,-3.6606,-3.6832,-3.7337,-3.7513,-3.8014,-3.8818,-3.9045,-3.9245,-3.9672,-3.9697,-3.9697,-3.9697,-3.9697,-3.9697,-3.9697,-3.9697,-3.9973,-4.0526,-4.0651,-4.1229,-4.2213,-4.2338,-4.264,-4.2986,-4.2986,-4.2986,-4.2986,-4.2986,-4.2986,-4.2986,-4.2986,-4.2986,-4.2986,-4.7309,-4.7309,-4.7309,-4.7309,-4.7309,-4.7309,-4.7309,-4.7309,-4.7309,-4.7309,-4.7309,-4.7309,-4.7309,-4.7309,-4.7309,-4.7309,-4.7309,-4.7309,-4.7309,-4.7219,-4.689,-4.6219,-4.5005,-4.4287,-4.4257,-4.3618,-4.329,-4.329,-4.329,-4.329,-4.329,-4.329,-4.329,-4.329,-4.329,-4.329,-4.329,-4.323,-4.288,-4.2261,-4.1602,-4.0905,-4.03,-4.0085,-3.989,-3.9795,-4.0055,-4.0063,-3.9844,-3.93,-3.8961,-3.863,-3.7933,-3.7407,-3.7015,-3.6705,-3.6445,-3.6053,-3.4951,-3.47,-3.468,-3.4675,-3.47,-3.468,-3.468,-3.5127,-3.555,-3.5872,-3.6349,-3.6798,-3.7108,-3.7155,-3.7155,-3.7155,-3.7366,-3.7551,-3.7551,-3.7551,-3.7413,-3.7155,-3.6875,-3.6818,-3.7109,-3.7136,-3.7337,-3.7914,-3.8442,-3.8844,-3.8919,-3.9346,-3.9647,-3.9697,-3.9697,-3.9697,-3.9697,-3.9697,-3.9697,-3.9697,-3.9697,-3.9973,-4.0526,-4.1,-4.1605,-4.2238,-4.2766,-4.2936,-4.2986,-4.2986,-4.2986,-4.2986,-4.2986,-4.2986,-4.2986,-4.2986,-4.2986,-4.3062,-4.7309,-4.7309,-4.7309,-4.7309,-4.7309,-4.7309,-4.7309,-4.7309,-4.7309,-4.7309,-4.7309,-4.7309,-4.7309,-4.7309,-4.7309,-4.7309,-4.7309,-4.7309,-4.7309,-4.7309,-4.701,-4.6309,-4.5801,-4.5155,-4.4347,-4.4077,-4.3708,-4.329,-4.329,-4.329,-4.329,-4.329,-4.329,-4.329,-4.329,-4.329,-4.329,-4.329,-4.294,-4.2381,-4.2141,-4.1632,-4.0995,-4.0799,-4.0923,-4.1154,-4.1033,-4.1146,-4.1162,-4.0547,-4.0071,-3.959,-3.8747,-3.8141,-3.7664,-3.6896,-3.6546,-3.6304,-3.5855,-3.573,-3.5655,-3.5282,-3.5479,-3.573,-3.573,-3.5906,-3.6103,-3.6172,-3.6348,-3.6546,-3.664,-3.6687,-3.6687,-3.6828,-3.6968,-3.7062,-3.7201,-3.7108,-3.6968,-3.6875,-3.6944,-3.7056,-3.7209,-3.7487,-3.7939,-3.8492,-3.8743,-3.907,-3.9371,-3.9572,-3.9697,-3.9697,-3.9697,-3.9697,-3.9697,-3.9697,-3.9697,-3.9697,-4.0049,-4.0501,-4.1,-4.158,-4.2133,-4.274,-4.2886,-4.2986,-4.2986,-4.2986,-4.2986,-4.2986,-4.2986,-4.2986,-4.3011,-4.3363,-4.3489,-4.3564,-4.7309,-4.7309,-4.7309,-4.7309,-4.7309,-4.7309,-4.7309,-4.7309,-4.7309,-4.7309,-4.7309,-4.7309,-4.7309,-4.7309,-4.7309,-4.7309,-4.7309,-4.7309,-4.7309,-4.7309,-4.71,-4.6651,-4.6399,-4.5903,-4.4975,-4.4526,-4.4077,-4.3589,-4.3379,-4.329,-4.329,-4.329,-4.329,-4.329,-4.329,-4.329,-4.329,-4.329,-4.306,-4.2641,-4.25,-4.2141,-4.1683,-4.156,-4.179,-4.2099,-4.1991,-4.2074,-4.2211,-4.1632,-4.1128,-4.0617,-3.9749,-3.8998,-3.8293,-3.7433,-3.7035,-3.6871,-3.6824,-3.6625,-3.6351,-3.5881,-3.6081,-3.6405,-3.6405,-3.6405,-3.6405,-3.6405,-3.6405,-3.6405,-3.6405,-3.6405,-3.6452,-3.6593,-3.6615,-3.6687,-3.6828,-3.6734,-3.6691,-3.6821,-3.7056,-3.7337,-3.7688,-3.8065,-3.8517,-3.9094,-3.912,-3.9295,-3.9672,-3.9697,-3.9697,-3.9697,-3.9697,-3.9697,-3.9697,-3.9697,-3.9772,-3.9948,-4.0325,-4.0902,-4.1605,-4.2037,-4.2514,-4.2986,-4.2986,-4.2986,-4.2986,-4.2986,-4.2986,-4.2986,-4.2986,-4.3087,-4.3288,-4.3664,-4.3915,-4.4141,-4.7309,-4.7309,-4.7309,-4.7309,-4.7309,-4.7309,-4.7309,-4.7309,-4.7309,-4.7309,-4.7309,-4.7309,-4.7309,-4.7309,-4.7309,-4.7309,-4.7309,-4.7309,-4.7309,-4.7309,-4.7309,-4.7309,-4.6681,-4.6322,-4.6279,-4.5005,-4.4317,-4.4317,-4.3618,-4.329,-4.329,-4.329,-4.329,-4.329,-4.329,-4.329,-4.329,-4.329,-4.329,-4.323,-4.2641,-4.241,-4.241,-4.241,-4.241,-4.2462,-4.2852,-4.2981,-4.2941,-4.2555,-4.2104,-4.1577,-4.093,-3.9967,-3.9011,-3.8449,-3.8144,-3.7932,-3.7693,-3.7166,-3.6687,-3.6452,-3.6405,-3.6405,-3.6405,-3.6405,-3.6405,-3.6405,-3.6405,-3.6405,-3.6405,-3.6405,-3.6405,-3.6405,-3.6405,-3.6405,-3.6405,-3.6405,-3.6631,-3.7136,-3.7186,-3.7638,-3.8818,-3.8919,-3.9145,-3.9647,-3.9697,-3.9697,-3.9697,-3.9697,-3.9697,-3.9697,-3.9697,-3.9697,-3.9697,-3.9697,-3.9973,-4.0526,-4.0526,-4.1103,-4.2213,-4.2213,-4.2514,-4.2986,-4.2986,-4.2986,-4.2986,-4.2986,-4.2986,-4.2986,-4.2986,-4.3313,-4.379,-4.3815,-4.4166,-4.4719,-4.7309,-4.7309,-4.7309,-4.7309,-4.7309,-4.7309,-4.7309,-4.7309,-4.7309,-4.7309,-4.7309,-4.7309,-4.7309,-4.7309,-4.7309,-4.7309,-4.7309,-4.7309,-4.7309,-4.7309,-4.7309,-4.7309,-4.713,-4.68,-4.6279,-4.5891,-4.5484,-4.5005,-4.4796,-4.4466,-4.4018,-4.4018,-4.3738,-4.329,-4.329,-4.329,-4.329,-4.329,-4.329,-4.326,-4.312,-4.303,-4.303,-4.303,-4.303,-4.306,-4.319,-4.321,-4.323,-4.3423,-4.3355,-4.2969,-4.2278,-4.1467,-4.0646,-3.9973,-3.9454,-3.8947,-3.8104,-3.7588,-3.7194,-3.6553,-3.6405,-3.6405,-3.6405,-3.6405,-3.6405,-3.6405,-3.6405,-3.6405,-3.6405,-3.6405,-3.6405,-3.6405,-3.6732,-3.6935,-3.6935,-3.7287,-3.7588,-3.7739,-3.8115,-3.8542,-3.8894,-3.922,-3.9521,-3.9672,-3.9697,-3.9697,-3.9697,-3.9697,-3.9697,-3.9697,-3.9697,-3.9873,-4.0275,-4.0275,-4.035,-4.0526,-4.1304,-4.1886,-4.2213,-4.2615,-4.2866,-4.2986,-4.2986,-4.2986,-4.2986,-4.2986,-4.2986,-4.3011,-4.3413,-4.3664,-4.389,-4.4694,-4.5095,-4.5321,-4.7309,-4.7309,-4.7309,-4.7309,-4.7309,-4.7309,-4.7309,-4.7309,-4.7309,-4.7309,-4.7309,-4.7309,-4.7309,-4.7309,-4.7309,-4.7309,-4.7309,-4.7309,-4.7309,-4.7309,-4.7309,-4.7309,-4.7309,-4.713,-4.6711,-4.6471,-4.6112,-4.5693,-4.5424,-4.5095,-4.4706,-4.4706,-4.4347,-4.3678,-4.3678,-4.3529,-4.329,-4.329,-4.329,-4.329,-4.329,-4.329,-4.329,-4.329,-4.329,-4.329,-4.329,-4.3469,-4.3738,-4.4035,-4.4086,-4.3965,-4.3241,-4.2728,-4.226,-4.1502,-4.1032,-4.0478,-3.9537,-3.8969,-3.8493,-3.7522,-3.6839,-3.6405,-3.6405,-3.6581,-3.6732,-3.6732,-3.6908,-3.6983,-3.6782,-3.6732,-3.6732,-3.6732,-3.696,-3.7262,-3.7487,-3.7789,-3.809,-3.8316,-3.8668,-3.8994,-3.917,-3.9496,-3.9697,-3.9697,-3.9697,-3.9697,-3.9697,-3.9697,-3.9798,-4.0023,-4.0023,-4.0275,-4.0774,-4.1053,-4.1153,-4.1178,-4.1886,-4.2313,-4.2539,-4.2836,-4.2986,-4.2986,-4.2986,-4.2986,-4.2986,-4.3212,-4.3313,-4.3363,-4.3915,-4.4267,-4.4543,-4.5246,-4.5623,-4.5849,-4.7309,-4.7309,-4.7309,-4.7309,-4.7309,-4.7309,-4.7309,-4.7309,-4.7309,-4.7309,-4.7309,-4.7309,-4.7309,-4.7309,-4.7309,-4.7309,-4.7309,-4.7309,-4.7309,-4.7309,-4.7309,-4.7309,-4.7309,-4.7309,-4.7309,-4.6711,-4.6369,-4.6369,-4.5783,-4.5454,-4.5394,-4.5394,-4.5035,-4.4407,-4.4407,-4.4047,-4.3379,-4.3379,-4.3349,-4.329,-4.329,-4.329,-4.329,-4.329,-4.329,-4.329,-4.3349,-4.3768,-4.4347,-4.4466,-4.4656,-4.4798,-4.4095,-4.3945,-4.3862,-4.3129,-4.2785,-4.243,-4.157,-4.093,-4.028,-3.9154,-3.7835,-3.672,-3.6575,-3.6953,-3.7283,-3.7285,-3.7712,-3.7913,-3.7362,-3.7262,-3.7262,-3.7262,-3.7312,-3.7513,-3.8015,-3.8115,-3.8366,-3.8894,-3.8994,-3.9145,-3.9647,-3.9697,-3.9697,-3.9697,-3.9747,-3.9772,-3.9772,-3.9823,-4.0074,-4.0576,-4.0601,-4.0852,-4.1351,-4.1907,-4.2213,-4.2213,-4.2263,-4.2539,-4.2986,-4.2986,-4.2986,-4.2986,-4.2986,-4.3011,-4.3087,-4.3589,-4.384,-4.394,-4.4493,-4.502,-4.5497,-4.5547,-4.5874,-4.6301,-4.7309,-4.7309,-4.7309,-4.7309,-4.7309,-4.7309,-4.7309,-4.7309,-4.7309,-4.7309,-4.7309,-4.7309,-4.7309,-4.7309,-4.7309,-4.7309,-4.7309,-4.7309,-4.7309,-4.7309,-4.7309,-4.7309,-4.7309,-4.7309,-4.7309,-4.716,-4.71,-4.71,-4.695,-4.6621,-4.6082,-4.6082,-4.5753,-4.5095,-4.5095,-4.4706,-4.4067,-4.4067,-4.3768,-4.329,-4.329,-4.329,-4.329,-4.329,-4.329,-4.3349,-4.3888,-4.4197,-4.4466,-4.5502,-4.6109,-4.6385,-4.6079,-4.5858,-4.5544,-4.4818,-4.4376,-4.3892,-4.2532,-4.1889,-4.1389,-4.0301,-3.9779,-3.9213,-3.8136,-3.7994,-3.8056,-3.813,-3.8235,-3.8236,-3.7913,-3.7839,-3.7839,-3.7839,-3.8216,-3.8542,-3.8668,-3.9069,-3.9371,-3.9496,-3.9521,-3.9572,-3.9697,-3.9697,-3.9697,-3.9697,-4.0099,-4.035,-4.035,-4.0752,-4.0974,-4.11,-4.11,-4.143,-4.1982,-4.2137,-4.2213,-4.2213,-4.264,-4.2861,-4.2986,-4.2986,-4.2986,-4.2986,-4.2986,-4.3212,-4.3639,-4.374,-4.4066,-4.4493,-4.507,-4.5372,-4.5547,-4.5974,-4.62,-4.6301,-4.7309,-4.7309,-4.7309,-4.7309,-4.7309,-4.7309,-4.7309,-4.7309,-4.7309,-4.7309,-4.7309,-4.7309,-4.7309,-4.7309,-4.7309,-4.7309,-4.7309,-4.7309,-4.7309,-4.7309,-4.7309,-4.7309,-4.7309,-4.7309,-4.7309,-4.7309,-4.7309,-4.7309,-4.7309,-4.713,-4.68,-4.68,-4.6441,-4.5783,-4.5783,-4.5244,-4.4317,-4.4317,-4.3888,-4.329,-4.329,-4.329,-4.3319,-4.3648,-4.3768,-4.3858,-4.4556,-4.5005,-4.5424,-4.6441,-4.6924,-4.7062,-4.68,-4.6668,-4.6417,-4.5792,-4.552,-4.5207,-4.416,-4.3798,-4.3445,-4.2482,-4.2132,-4.1505,-3.9538,-3.9311,-3.9455,-3.9231,-3.9415,-3.9368,-3.8716,-3.8616,-3.8566,-3.8466,-3.8668,-3.902,-3.922,-3.9521,-3.9697,-3.9697,-3.9697,-3.9697,-3.9697,-3.9923,-4.0099,-4.0099,-4.0601,-4.0849,-4.0849,-4.1125,-4.1401,-4.1731,-4.1731,-4.1982,-4.259,-4.2615,-4.2615,-4.2615,-4.2891,-4.2986,-4.2986,-4.2986,-4.2986,-4.2986,-4.2986,-4.3288,-4.3815,-4.4091,-4.4518,-4.5095,-4.5673,-4.5874,-4.5924,-4.62,-4.6301,-4.6301,-4.7352,-4.7352,-4.7396,-4.7439,-4.7396,-4.7352,-4.7352,-4.7309,-4.7309,-4.7309,-4.7309,-4.7309,-4.7309,-4.7309,-4.7309,-4.7309,-4.7309,-4.7309,-4.7309,-4.7309,-4.7309,-4.7309,-4.7309,-4.7309,-4.7309,-4.7309,-4.7309,-4.7309,-4.7309,-4.7309,-4.7309,-4.7309,-4.701,-4.6501,-4.6339,-4.5633,-4.4466,-4.4377,-4.3888,-4.329,-4.329,-4.3349,-4.3529,-4.4107,-4.4377,-4.4556,-4.5244,-4.5903,-4.6561,-4.713,-4.7309,-4.7266,-4.7019,-4.6975,-4.6887,-4.6447,-4.6314,-4.6225,-4.573,-4.564,-4.545,-4.4678,-4.4265,-4.3533,-4.1341,-4.0989,-4.102,-4.0589,-4.0809,-4.0791,-3.9751,-3.9574,-3.9474,-3.9171,-3.912,-3.9221,-3.9622,-3.9697,-3.9697,-3.9697,-3.9749,-3.9825,-3.9978,-4.0354,-4.0603,-4.0704,-4.1178,-4.148,-4.148,-4.1555,-4.1831,-4.2338,-4.2363,-4.2564,-4.2961,-4.2986,-4.2986,-4.2986,-4.2986,-4.2986,-4.2986,-4.2986,-4.2986,-4.2986,-4.2986,-4.3288,-4.384,-4.4392,-4.497,-4.5547,-4.61,-4.6301,-4.6301,-4.6301,-4.6301,-4.6301,-4.7495,-4.7538,-4.7624,-4.788,-4.7709,-4.7538,-4.7538,-4.7439,-4.7309,-4.7309,-4.7309,-4.7309,-4.7309,-4.7309,-4.7309,-4.7309,-4.7309,-4.7309,-4.7309,-4.7309,-4.7309,-4.7309,-4.7309,-4.7309,-4.7309,-4.7309,-4.7309,-4.7309,-4.7309,-4.7309,-4.7309,-4.7309,-4.7249,-4.716,-4.6591,-4.5903,-4.5125,-4.4556,-4.3888,-4.329,-4.329,-4.3648,-4.4197,-4.4287,-4.4676,-4.5244,-4.5933,-4.6621,-4.7189,-4.7279,-4.7309,-4.7309,-4.7266,-4.7266,-4.7222,-4.6887,-4.68,-4.6712,-4.6195,-4.6135,-4.6016,-4.5676,-4.545,-4.5104,-4.456,-4.338,-4.2371,-4.214,-4.1985,-4.167,-4.0843,-4.0666,-4.0515,-4.0007,-3.9905,-3.9905,-3.9724,-3.9697,-3.9697,-3.9697,-3.9878,-4.0312,-4.108,-4.0974,-4.1071,-4.1577,-4.1893,-4.2112,-4.2112,-4.2509,-4.2785,-4.2861,-4.2861,-4.2911,-4.2986,-4.2986,-4.2986,-4.2986,-4.2986,-4.2986,-4.2986,-4.2986,-4.2986,-4.2986,-4.2986,-4.3288,-4.384,-4.4392,-4.497,-4.5547,-4.61,-4.6301,-4.6301,-4.6301,-4.6301,-4.6301,-4.7964,-4.788,-4.788,-4.7964,-4.7794,-4.7581,-4.7581,-4.7439,-4.7309,-4.7309,-4.7309,-4.7309,-4.7309,-4.7309,-4.7309,-4.7309,-4.7309,-4.7309,-4.7309,-4.7309,-4.7309,-4.7309,-4.7309,-4.7309,-4.7309,-4.7309,-4.7309,-4.7309,-4.7309,-4.7309,-4.7309,-4.7309,-4.7309,-4.7279,-4.6621,-4.5933,-4.5244,-4.4586,-4.3888,-4.3319,-4.3708,-4.4047,-4.4407,-4.5155,-4.5603,-4.5963,-4.6621,-4.707,-4.7309,-4.7309,-4.7309,-4.7309,-4.7309,-4.7309,-4.7266,-4.7149,-4.7106,-4.7062,-4.6844,-4.68,-4.68,-4.6668,-4.6491,-4.6269,-4.6106,-4.5335,-4.4326,-4.3293,-4.3012,-4.2652,-4.172,-4.1571,-4.1372,-4.087,-4.0618,-4.0542,-4.0389,-4.0134,-3.9981,-4.016,-4.0671,-4.1209,-4.1518,-4.2058,-4.2387,-4.2483,-4.291,-4.3077,-4.2886,-4.3113,-4.3129,-4.2986,-4.2986,-4.2986,-4.2986,-4.2986,-4.2986,-4.2986,-4.2986,-4.2986,-4.2986,-4.2986,-4.2986,-4.2986,-4.2986,-4.3463,-4.4292,-4.4518,-4.5146,-4.5974,-4.6225,-4.6301,-4.6301,-4.6301,-4.6301,-4.6301]},{"header":{"parameterUnit":"m.s-1","parameterCategory":1,"la1":30.6,"la2":28.766,"lo1":-90.7593,"lo2":-88.6598,"dy":0.0162,"dx":0.0183,"nx":116,"ny":114,"refTime":"2024-04-26T00:00:00:Z","depth":0,"parameterNumber":3,"parameterNumberName":"V-component_of_WINDS"},"data":[0.0,0.0,0.0,0.0,0.0,0.0,0.0,0.0,0.0,0.0,0.0,0.0,0.0,0.0,0.0,0.0,0.0,0.0,0.0,0.0,0.0,0.0,0.0,0.0,0.0,0.0,0.0,0.0,0.0,0.0,0.0,0.0,0.0,0.0,0.0,0.0,0.0,0.0,0.0,0.0,0.0,0.0,0.0,0.0,0.0,0.0,0.0,0.0,0.0,0.0,0.0,0.0,0.0,0.0,0.0,0.0,0.0,0.0,0.0,0.0,0.0,0.0,0.0,0.0,0.0,0.0,0.0,0.0,0.0,0.0,0.0,0.0,0.0,0.0,0.0,0.0,0.0,0.0,0.0,0.0,0.0,0.0,0.0,0.0,0.0,0.0,0.0,0.0,0.0,0.0,0.0,0.0,0.0,0.0,0.0,0.0,0.0,0.0,0.0,0.0,0.0,0.0,0.0,0.0,0.0,0.0,0.0,0.0,0.0,0.0,0.0,0.0,0.0,0.0,0.0,0.0,0.0,0.0,0.0,0.0,0.0,0.0,0.0,0.0,0.0,0.0,0.0,0.0,0.0,0.0,0.0,0.0,0.0,0.0,0.0,0.0,0.0,0.0,0.0,0.0,0.0,0.0,0.0,0.0,0.0,0.0,0.0,0.0,0.0,0.0,0.0,0.0,0.0,0.0,0.0,0.0,0.0,0.0,0.0,0.0,0.0,0.0,0.0,0.0,0.0,0.0,0.0,0.0,0.0,0.0,0.0,0.0,0.0,0.0,0.0,0.0,0.0,0.0,0.0,0.0,0.0,0.0,0.0,0.0,0.0,0.0,0.0,0.0,0.0,0.0,0.0,0.0,0.0,0.0,0.0,0.0,0.0,0.0,0.0,0.0,0.0,0.0,0.0,0.0,0.0,0.0,0.0,0.0,0.0,0.0,0.0,0.0,0.0,0.0,0.0,0.0,0.0,0.0,0.0,0.0,0.0,0.0,0.0,0.0,0.0,0.0,0.0,0.0,0.0,0.0,0.0,0.0,0.0,0.0,0.0,0.0,0.0,0.0,0.0,0.0,0.0,0.0,0.0,0.0,0.0,0.0,0.0,0.0,0.0,0.0,0.0,0.0,0.0,0.0,0.0,0.0,0.0,0.0,0.0,0.0,0.0,0.0,0.0,0.0,0.0,0.0,0.0,0.0,0.0,0.0,0.0,0.0,0.0,0.0,0.0,0.0,0.0,0.0,0.0,0.0,0.0,0.0,0.0,0.0,0.0,0.0,0.0,0.0,0.0,0.0,0.0,0.0,0.0,0.0,0.0,0.0,0.0,0.0,0.0,0.0,0.0,0.0,0.0,0.0,0.0,0.0,0.0,0.0,0.0,0.0,0.0,0.0,0.0,0.0,0.0,0.0,0.0,0.0,0.0,0.0,0.0,0.0,0.0,0.0,0.0,0.0,0.0,0.0,0.0,0.0,0.0,0.0,0.0,0.0,0.0,0.0,0.0,0.0,0.0,0.0,0.0,0.0,0.0,0.0,0.0,0.0,0.0,0.0,0.0,0.0,0.0,0.0,0.0,0.0,0.0,0.0,0.0,0.0,0.0,0.0,0.0,0.0,0.0,0.0,0.0,0.0,0.0,0.0,0.0,0.0,0.0,0.0,0.0,0.0,0.0,0.0,0.0,0.0,0.0,0.0,0.0,0.0,0.0,0.0,0.0,0.0,0.0,0.0,0.0,0.0,0.0,0.0,0.0,0.0,0.0,0.0,0.0,0.0,0.0,0.0,0.0,0.0,0.0,0.0,0.0,0.0,0.0,0.0,0.0,0.0,0.0,0.0,0.0,0.0,0.0,0.0,0.0,0.0,0.0,0.0,0.0,0.0,0.0,0.0,0.0,0.0,0.0,0.0,0.0,0.0,0.0,0.0,0.0,0.0,0.0,0.0,0.0,0.0,0.0,0.0,0.0,0.0,0.0,0.0,0.0,0.0,0.0,0.0,0.0,0.0,0.0,0.0,0.0,0.0,0.0,0.0,0.0,0.0,0.0,0.0,0.0,0.0,0.0,0.0,0.0,0.0,0.0,0.0,0.0,0.0,0.0,0.0,0.0,0.0,0.0,0.0,0.0,0.0,0.0,0.0,0.0,0.0,0.0,0.0,0.0,0.0,0.0,0.0,0.0,0.0,0.0,0.0,0.0,0.0,0.0,0.0,0.0,0.0,0.0,0.0,0.0,0.0,0.0,0.0,0.0,0.0,0.0,0.0,0.0,0.0,0.0,0.0,0.0,0.0,0.0,0.0,0.0,0.0,0.0,0.0,0.0,0.0,0.0,0.0,0.0,0.0,0.0,0.0,0.0,0.0,0.0,0.0,0.0,0.0,0.0,0.0,0.0,0.0,0.0,0.0,0.0,0.0,0.0,0.0,0.0,0.0,0.0,0.0,0.0,0.0,0.0,0.0,0.0,0.0,0.0,0.0,0.0,0.0,0.0,0.0,0.0,0.0,0.0,0.0,0.0,0.0,0.0,0.0,0.0,0.0,0.0,0.0,0.0,0.0,0.0,0.0,0.0,0.0,0.0,0.0,0.0,0.0,0.0,0.0,0.0,0.0,0.0,0.0,0.0,0.0,0.0,0.0,0.0,0.0,0.0,0.0,0.0,0.0,0.0,0.0,0.0,0.0,0.0,0.0,0.0,0.0,0.0,0.0,0.0,0.0,0.0,0.0,0.0,0.0,0.0,0.0,0.0,0.0,0.0,0.0,0.0,0.0,0.0,0.0,0.0,0.0,0.0,0.0,0.0,0.0,0.0,0.0,0.0,0.0,0.0,0.0,0.0,0.0,0.0,0.0,0.0,0.0,0.0,0.0,0.0,0.0,0.0,0.0,0.0,0.0,0.0,0.0,0.0,0.0,0.0,0.0,0.0,0.0,0.0,0.0,0.0,0.0,0.0,0.0,0.0,0.0,0.0,0.0,0.0,0.0,0.0,0.0,0.0,0.0,0.0,0.0,0.0,0.0,0.0,0.0,0.0,0.0,0.0,0.0,0.0,0.0,0.0,0.0,0.0,0.0,0.0,0.0,0.0,0.0,0.0,0.0,0.0,0.0,0.0,0.0,0.0,0.0,0.0,0.0,0.0,0.0,0.0,0.0,0.0,0.0,0.0,0.0,0.0,0.0,0.0,0.0,0.0,0.0,0.0,0.0,0.0,0.0,0.0,0.0,0.0,0.0,0.0,0.0,0.0,0.0,0.0,0.0,0.0,0.0,0.0,0.0,0.0,0.0,0.0,0.0,0.0,0.0,0.0,0.0,0.0,0.0,0.0,0.0,0.0,0.0,0.0,0.0,0.0,0.0,0.0,0.0,0.0,0.0,0.0,0.0,0.0,0.0,0.0,0.0,0.0,0.0,0.0,0.0,0.0,0.0,0.0,0.0,0.0,0.0,0.0,0.0,0.0,0.0,0.0,0.0,0.0,0.0,0.0,0.0,0.0,0.0,0.0,0.0,0.0,0.0,0.0,0.0,0.0,0.0,0.0,0.0,0.0,0.0,0.0,0.0,0.0,0.0,0.0,0.0,0.0,0.0,0.0,0.0,0.0,0.0,0.0,0.0,0.0,0.0,0.0,0.0,0.0,0.0,0.0,0.0,0.0,0.0,0.0,0.0,0.0,0.0,0.0,0.0,0.0,0.0,0.0,0.0,0.0,0.0,0.0,0.0,0.0,0.0,0.0,0.0,0.0,0.0,0.0,0.0,0.0,0.0,0.0,0.0,0.0,0.0,0.0,0.0,0.0,0.0,0.0,0.0,0.0,0.0,0.0,0.0,0.0,0.0,0.0,0.0,0.0,0.0,0.0,0.0,0.0,0.0,0.0,0.0,0.0,0.0,0.0,0.0,0.0,0.0,0.0,0.0,0.0,0.0,0.0,0.0,0.0,0.0,0.0,0.0,0.0,0.0,0.0,0.0,0.0,0.0,0.0,0.0,0.0,0.0,0.0,0.0,0.0,0.0,0.0,0.0,0.0,0.0,0.0,0.0,0.0,0.0,0.0,0.0,0.0,0.0,0.0,0.0,0.0,0.0,0.0,0.0,0.0,0.0,0.0,0.0,0.0,0.0,0.0,0.0,0.0,0.0,0.0,0.0,0.0,0.0,0.0,0.0,0.0,0.0,0.0,0.0,0.0,0.0,0.0,0.0,0.0,0.0,0.0,0.0,0.0,0.0,0.0,0.0,0.0,0.0,0.0,0.0,0.0,0.0,0.0,0.0,0.0,0.0,0.0,0.0,0.0,0.0,0.0,0.0,0.0,0.0,0.0,0.0,0.0,0.0,0.0,0.0,0.0,0.0,0.0,0.0,0.0,0.0,0.0,0.0,0.0,0.0,0.0,0.0,0.0,0.0,0.0,0.0,0.0,0.0,0.0,0.0,0.0,0.0,0.0,0.0,0.0,0.0,0.0,0.0,0.0,0.0,0.0,0.0,0.0,0.0,0.0,0.0,0.0,0.0,0.0,0.0,0.0,0.0,0.0,0.0,0.0,0.0,0.0,0.0,0.0,0.0,0.0,0.0,0.0,0.0,0.0,0.0,0.0,0.0,0.0,0.0,0.0,0.0,0.0,0.0,0.0,0.0,0.0,0.0,0.0,0.0,0.0,0.0,0.0,0.0,0.0,0.0,0.0,0.0,0.0,0.0,0.0,0.0,0.0,0.0,0.0,0.0,0.0,0.0,0.0,0.0,0.0,0.0,0.0,0.0,0.0,0.0,0.0,0.0,0.0,0.0,0.0,0.0,0.0,0.0,0.0,0.0,0.0,0.0,0.0,0.0,0.0,0.0,0.0,0.0,0.0,0.0,0.0,0.0,0.0,0.0,0.0,0.0,0.0,0.0,0.0,0.0,0.0,0.0,0.0,0.0,0.0,0.0,0.0,0.0,0.0,0.0,0.0,0.0,0.0,0.0,0.0,0.0,0.0,0.0,0.0,0.0,0.0,0.0,0.0,0.0,0.0,0.0,0.0,0.0,0.0,0.0,0.0,0.0,0.0,0.0,0.0,0.0,0.0,0.0,0.0,0.0,0.0,0.0,0.0,0.0,0.0,0.0,0.0,0.0,0.0,0.0,0.0,0.0,0.0,0.0,0.0,0.0,0.0,0.0,0.0,0.0,0.0,0.0,0.0,0.0,0.0,0.0,0.0,0.0,0.0,0.0,0.0,0.0,0.0,0.0,0.0,0.0,0.0,0.0,0.0,0.0,0.0,0.0,0.0,0.0,0.0,0.0,0.0,0.0,0.0,0.0,0.0,0.0,0.0,0.0,0.0,0.0,0.0,0.0,0.0,0.0,0.0,0.0,0.0,0.0,0.0,0.0,0.0,0.0,0.0,0.0,0.0,0.0,0.0,0.0,0.0,0.0,0.0,0.0,0.0,0.0,0.0,0.0,0.0,0.0,0.0,0.0,0.0,0.0,0.0,0.0,0.0,0.0,0.0,0.0,0.0,0.0,0.0,0.0,0.0,0.0,0.0,0.0,0.0,0.0,0.0,0.0,0.0,0.0,0.0,0.0,0.0,0.0,0.0,0.0,0.0,0.0,0.0,0.0,0.0,0.0,0.0,0.0,0.0,0.0,0.0,0.0,0.0,0.0,0.0,0.0,0.0,0.0,0.0,0.0,0.0,0.0,0.0,0.0,0.0,0.0,0.0,0.0,0.0,0.0,0.0,0.0,0.0,0.0,0.0,0.0,0.0,0.0,0.0,0.0,0.0,0.0,0.0,0.0,0.0,0.0,0.0,0.0,0.0,0.0,0.0,0.0,0.0,0.0,0.0,0.0,0.0,0.0,0.0,0.0,0.0,0.0,0.0,0.0,0.0,0.0,0.0,0.0,0.0,0.0,0.0,0.0,0.0,0.0,0.0,0.0,0.0,0.0,0.0,0.0,0.0,0.0,0.0,0.0,0.0,0.0,0.0,0.0,0.0,0.0,0.0,0.0,0.0,0.0,0.0,0.0,0.0,0.0,0.0,0.0,0.0,0.0,0.0,0.0,0.0,0.0,0.0,0.0,0.0,0.0,0.0,0.0,0.0,0.0,0.0,0.0,0.0,0.0,0.0,0.0,0.0,0.0,0.0,0.0,3.6396,3.5444,0.0,0.0,0.0,0.0,0.0,0.0,0.0,0.0,0.0,0.0,0.0,0.0,0.0,0.0,0.0,0.0,0.0,0.0,0.0,0.0,0.0,0.0,0.0,2.2749,2.2636,2.19,2.1987,2.2271,2.2692,2.3871,0.0,0.0,0.0,0.0,2.9481,3.0474,3.1534,3.2728,3.4093,3.5211,3.6202,3.4889,3.2559,2.9412,0.0,0.0,0.0,0.0,0.0,0.0,0.0,0.0,0.0,0.0,0.0,0.0,0.0,0.0,0.0,0.0,0.0,0.0,0.0,0.0,0.0,0.0,0.0,0.0,0.0,0.0,0.0,0.0,0.0,0.0,0.0,0.0,0.0,0.0,0.0,0.0,0.0,0.0,0.0,0.0,0.0,0.0,0.0,0.0,0.0,0.0,0.0,0.0,0.0,0.0,0.0,0.0,0.0,0.0,0.0,0.0,0.0,0.0,0.0,0.0,0.0,0.0,0.0,0.0,0.0,0.0,0.0,0.0,0.0,0.0,3.9651,3.8183,0.0,0.0,0.0,0.0,0.0,0.0,0.0,0.0,0.0,0.0,0.0,0.0,0.0,0.0,0.0,0.0,0.0,0.0,0.0,0.0,0.0,2.3983,2.3815,2.4373,2.43,2.3239,2.3103,2.3175,2.3368,2.4094,2.5165,2.6609,2.7584,2.8741,3.0109,3.133,3.2728,3.4313,3.5953,3.7645,3.9275,3.9987,3.8074,3.3935,3.2792,0.0,0.0,0.0,0.0,0.0,0.0,0.0,0.0,0.0,0.0,0.0,0.0,0.0,0.0,0.0,0.0,0.0,0.0,0.0,0.0,0.0,0.0,0.0,0.0,0.0,0.0,0.0,0.0,0.0,0.0,0.0,0.0,0.0,0.0,0.0,0.0,0.0,0.0,0.0,0.0,0.0,0.0,0.0,0.0,0.0,0.0,0.0,0.0,0.0,0.0,0.0,0.0,0.0,0.0,0.0,0.0,0.0,0.0,0.0,0.0,0.0,0.0,0.0,4.6334,4.6462,4.6462,4.5933,4.5871,4.5958,4.3479,4.1794,4.0715,4.013,0.0,0.0,0.0,0.0,0.0,0.0,0.0,0.0,0.0,0.0,0.0,0.0,0.0,0.0,0.0,0.0,0.0,0.0,0.0,2.4834,2.5348,2.6082,2.6336,2.5698,2.5131,2.4872,2.4889,2.5276,2.5953,2.6935,2.8228,2.9481,3.0681,3.2404,3.4093,3.5641,3.8747,4.0697,4.1559,4.2711,4.2491,4.1066,3.7345,3.4778,3.3218,0.0,0.0,0.0,0.0,0.0,0.0,0.0,0.0,0.0,0.0,0.0,0.0,0.0,0.0,0.0,0.0,0.0,0.0,0.0,0.0,0.0,0.0,0.0,0.0,0.0,0.0,0.0,0.0,0.0,0.0,0.0,0.0,0.0,0.0,0.0,0.0,0.0,0.0,0.0,0.0,0.0,3.9229,3.9767,0.0,0.0,0.0,0.0,0.0,0.0,0.0,0.0,0.0,0.0,0.0,0.0,0.0,4.6491,4.6642,4.7707,4.8259,4.8335,4.8887,4.9099,4.9099,4.9035,4.9035,4.901,4.8938,0.0,4.3606,4.3061,0.0,0.0,0.0,0.0,0.0,0.0,0.0,0.0,0.0,0.0,0.0,0.0,0.0,0.0,0.0,0.0,0.0,0.0,0.0,0.0,0.0,2.7795,2.8247,2.7905,2.736,2.6885,2.6645,2.6719,2.6884,2.7225,2.8441,2.9691,3.0991,3.3132,3.5591,3.8352,4.1251,4.2926,4.3485,4.5055,4.5357,4.4533,4.294,4.0402,3.7239,3.621,0.0,0.0,0.0,0.0,0.0,0.0,0.0,0.0,0.0,0.0,0.0,0.0,0.0,0.0,0.0,0.0,0.0,0.0,0.0,0.0,0.0,0.0,0.0,0.0,0.0,0.0,0.0,0.0,0.0,0.0,0.0,0.0,0.0,0.0,0.0,0.0,0.0,0.0,0.0,4.1543,4.2327,4.2856,4.2589,4.2389,0.0,0.0,0.0,0.0,0.0,0.0,0.0,0.0,0.0,4.6928,4.7682,4.836,4.8962,4.9464,4.9866,5.0193,5.0419,5.0544,5.0544,5.0544,5.0544,5.0544,5.0912,5.0015,4.823,4.6718,4.5696,4.5057,0.0,0.0,0.0,0.0,4.4706,4.4729,0.0,0.0,0.0,0.0,0.0,0.0,0.0,0.0,0.0,0.0,0.0,0.0,2.8062,2.9522,3.0359,3.0232,2.9762,2.9277,2.8713,2.8306,2.8005,2.7918,2.882,3.0057,3.1564,3.4364,3.7416,4.0574,4.3026,4.4435,4.4815,4.6693,4.7236,4.6668,4.7169,4.5089,4.1063,4.0192,3.8714,3.6776,0.0,0.0,0.0,0.0,0.0,0.0,0.0,0.0,0.0,0.0,0.0,0.0,0.0,0.0,0.0,0.0,0.0,0.0,0.0,0.0,0.0,0.0,0.0,0.0,0.0,0.0,0.0,0.0,0.0,0.0,0.0,0.0,0.0,0.0,0.0,0.0,0.0,4.4189,4.5122,4.5785,4.5392,4.5132,0.0,0.0,0.0,0.0,0.0,0.0,4.7531,4.7983,4.856,4.9389,4.954,5.0017,5.0845,5.0996,5.1272,5.1699,5.1699,5.1699,5.1699,5.1699,5.1699,5.1766,5.2276,5.2335,5.1983,4.9928,4.8789,4.8238,4.729,4.7078,4.7304,4.7496,4.7595,4.7742,0.0,0.0,0.0,0.0,0.0,0.0,0.0,0.0,0.0,0.0,0.0,2.7703,2.8913,3.1408,3.2908,3.2619,3.2541,3.2104,3.1257,2.9997,2.9288,2.9322,2.9725,3.0785,3.2582,3.6811,3.9738,4.1354,4.3776,4.5066,4.5334,4.7327,4.8103,4.7849,4.8773,4.7346,4.4208,4.3142,4.1897,4.0404,3.7637,0.0,0.0,0.0,0.0,0.0,0.0,0.0,0.0,0.0,0.0,0.0,0.0,0.0,0.0,0.0,0.0,0.0,0.0,0.0,0.0,0.0,0.0,0.0,0.0,0.0,0.0,0.0,0.0,0.0,0.0,0.0,0.0,0.0,0.0,0.0,0.0,0.0,0.0,4.8447,4.8071,0.0,0.0,0.0,0.0,4.9188,4.9364,4.9866,5.0971,5.1046,5.1096,5.1147,5.1674,5.1975,5.2026,5.2528,5.2829,5.2854,5.2854,5.2854,5.2854,5.2854,5.2854,5.2923,5.3894,5.4091,5.3508,5.2112,5.1715,5.1933,5.0976,5.1137,5.1811,5.1177,5.1099,5.1331,0.0,0.0,0.0,0.0,0.0,1.8096,1.8797,2.0026,2.1345,2.2636,2.5316,2.7756,2.9702,3.2207,3.3914,3.4308,3.4449,3.3924,3.2599,3.1533,3.0532,2.9553,3.0161,3.1999,3.5137,3.7828,4.0043,4.1785,4.3637,4.4978,4.5787,4.7354,4.8163,4.8385,4.9774,4.9687,4.8357,4.7211,4.5634,4.3714,4.1734,3.9669,0.0,0.0,0.0,0.0,0.0,0.0,0.0,0.0,0.0,0.0,0.0,0.0,0.0,0.0,0.0,0.0,0.0,0.0,0.0,0.0,0.0,0.0,0.0,0.0,0.0,0.0,0.0,0.0,0.0,0.0,0.0,0.0,0.0,0.0,0.0,0.0,0.0,5.1099,5.0852,0.0,5.0896,5.0569,5.0569,5.1172,5.1548,5.2051,5.2804,5.2528,5.2503,5.2829,5.2703,5.2628,5.2628,5.2829,5.2929,5.2929,5.2929,5.2929,5.2929,5.2929,5.2929,5.2973,5.3587,5.3961,5.4023,5.425,5.4114,5.3754,5.3394,5.2919,5.2517,5.2375,5.1984,5.1577,0.0,0.0,0.0,0.0,0.0,1.8326,1.8958,1.9982,2.1231,2.2636,2.5206,2.7737,2.9943,3.2752,3.4732,3.5413,3.594,3.5573,3.4008,3.2846,3.172,3.0538,3.157,3.3528,3.6535,3.8442,4.0216,4.1798,4.343,4.4779,4.591,4.7231,4.8192,4.8914,5.0268,5.1016,5.1192,5.0559,4.9148,4.7182,4.5534,4.3556,4.1423,0.0,0.0,0.0,0.0,0.0,0.0,0.0,0.0,0.0,0.0,0.0,0.0,0.0,0.0,0.0,0.0,0.0,0.0,0.0,0.0,0.0,0.0,0.0,0.0,0.0,0.0,0.0,0.0,0.0,0.0,0.0,0.0,0.0,0.0,5.119,5.2675,5.353,5.3493,5.3419,5.3482,5.3331,5.3356,5.3733,5.3934,5.426,5.4787,5.4135,5.3833,5.3984,5.3457,5.3105,5.2929,5.2929,5.2929,5.2929,5.2929,5.2929,5.2929,5.2929,5.2929,5.2904,5.3382,5.3779,5.4113,5.5447,5.546,5.4742,5.4912,5.4463,5.3732,5.3493,5.2815,5.2071,0.0,0.0,0.0,0.0,0.0,1.8599,1.9319,2.0097,2.1117,2.2297,2.5023,2.7577,2.9609,3.2997,3.5367,3.5904,3.6906,3.6968,3.555,3.4017,3.2915,3.235,3.3854,3.5306,3.6586,3.8756,4.0374,4.1396,4.3101,4.4493,4.5664,4.6926,4.813,4.9219,5.0172,5.1263,5.2336,5.2796,5.2199,5.0816,4.8938,4.7284,4.5759,0.0,0.0,0.0,0.0,0.0,0.0,0.0,0.0,0.0,0.0,0.0,0.0,0.0,0.0,0.0,0.0,0.0,0.0,0.0,0.0,0.0,0.0,0.0,0.0,0.0,0.0,0.0,0.0,0.0,0.0,0.0,0.0,0.0,5.104,5.3424,5.5315,5.5794,5.5969,5.6099,5.6292,5.5792,5.5892,5.6947,5.6545,5.647,5.6972,5.5968,5.5139,5.4612,5.4009,5.3457,5.2955,5.2929,5.2929,5.2929,5.2929,5.2929,5.2929,5.2929,5.2929,5.2904,5.3474,5.3648,5.3794,5.5513,5.5784,5.5055,5.5594,5.585,5.5674,5.4671,5.3708,5.2821,0.0,0.0,0.0,1.732,1.7918,1.8489,1.9292,1.9764,2.0486,2.1672,2.3727,2.5955,2.8323,3.1294,3.3553,3.475,3.5821,3.6038,3.5058,3.4022,3.3189,3.2695,3.4014,3.5378,3.6658,3.8315,3.9749,4.0887,4.1875,4.2906,4.4039,4.5132,4.6052,4.6912,4.8487,4.9639,5.0476,5.1914,5.2616,5.2627,5.1989,5.1149,5.0076,0.0,0.0,0.0,0.0,0.0,0.0,0.0,0.0,0.0,0.0,0.0,0.0,0.0,0.0,0.0,0.0,0.0,0.0,0.0,0.0,0.0,0.0,0.0,0.0,0.0,0.0,0.0,0.0,0.0,0.0,0.0,5.2438,5.4824,5.4514,5.6214,5.7554,5.8053,5.8172,5.8136,5.7894,5.7496,5.7173,5.7047,5.6897,5.6696,5.6445,5.5767,5.5315,5.5164,5.421,5.3632,5.3482,5.3105,5.2929,5.2929,5.2929,5.2929,5.2929,5.2929,5.2929,5.2948,5.3012,5.3283,5.3794,5.4616,5.4982,5.5112,5.6116,5.5587,5.4201,5.3873,5.2924,5.1788,0.0,0.0,0.0,1.6975,1.7742,1.8397,1.9279,1.9649,2.0213,2.1288,2.2886,2.4765,2.6985,2.9746,3.1927,3.3241,3.4647,3.5254,3.4688,3.4202,3.3796,3.3472,3.4629,3.5738,3.6684,3.7933,3.9042,3.9924,4.0745,4.1695,4.2823,4.3608,4.4549,4.5677,4.6721,4.7869,4.906,5.0273,5.1709,5.3269,5.3377,5.325,5.2823,5.1273,5.0143,4.9073,4.7386,4.5866,4.4407,4.2724,0.0,0.0,0.0,0.0,0.0,0.0,0.0,0.0,0.0,0.0,0.0,0.0,0.0,0.0,0.0,0.0,0.0,0.0,0.0,0.0,0.0,0.0,0.0,0.0,5.4762,5.751,5.8849,5.9921,6.0634,6.081,6.0644,6.026,5.9537,5.9085,5.8479,5.7775,5.7524,5.7148,5.6595,5.6043,5.5616,5.539,5.4762,5.4185,5.3708,5.3406,5.313,5.2929,5.2929,5.2929,5.2929,5.2929,5.2929,5.2854,5.2527,5.2737,5.3345,5.3904,5.409,5.4318,0.0,0.0,0.0,0.0,5.2323,5.1501,0.0,0.0,0.0,1.6271,1.7284,1.8216,1.9052,1.9448,1.9924,2.0831,2.2168,2.371,2.5463,2.808,3.0196,3.1496,3.3354,3.4429,3.4392,3.4495,3.4577,3.4528,3.5525,3.6243,3.6622,3.7505,3.8187,3.8657,3.9502,4.0479,4.1533,4.198,4.307,4.4544,4.4646,4.5786,4.7659,4.8027,4.986,5.2546,5.3034,5.3834,5.4452,5.3172,5.2642,5.2425,5.0777,4.9514,4.8313,4.6941,0.0,0.0,0.0,0.0,0.0,0.0,0.0,0.0,0.0,0.0,0.0,0.0,0.0,0.0,0.0,0.0,0.0,0.0,0.0,0.0,0.0,0.0,0.0,0.0,5.7103,5.9861,6.3198,6.3923,6.4035,6.3652,6.3005,6.2119,6.0965,6.0431,5.9743,5.8755,5.8202,5.765,5.7072,5.652,0.0,0.0,0.0,5.4888,5.3808,5.3733,5.3432,5.2929,5.2929,5.2929,5.2929,5.2929,5.2929,5.2879,5.2127,5.2174,5.2855,5.3147,5.3257,5.3275,5.4668,5.4832,5.4095,5.2581,5.1788,5.1446,0.0,0.0,1.3477,1.4789,1.5925,1.6972,1.7805,1.8333,1.8823,1.9274,2.0256,2.1544,2.3303,2.5179,2.7309,2.9732,3.1229,3.2719,3.4306,3.5182,3.5572,3.5373,3.5966,3.626,3.6162,3.6273,3.659,3.7124,3.7494,3.7959,3.8618,3.8971,3.9648,4.0649,4.1315,4.2575,4.419,4.5559,4.7099,4.8686,4.9672,5.2418,5.5834,5.5288,5.4866,5.4406,5.3248,5.2453,5.1582,4.9767,4.7897,4.5922,4.359,4.175,0.0,0.0,0.0,0.0,0.0,0.0,0.0,0.0,0.0,0.0,0.0,0.0,0.0,0.0,0.0,0.0,0.0,0.0,0.0,5.6486,5.9304,6.2058,6.4308,6.5793,6.6276,6.5306,6.4164,6.3011,6.177,6.0711,5.9743,5.8755,5.8202,5.765,5.7072,5.652,5.6168,5.6068,5.5616,5.5064,5.4411,5.3934,5.3432,5.2929,5.2929,0.0,5.2929,5.2929,5.2929,5.2879,5.2127,5.2174,5.2738,5.2253,5.2595,5.3518,5.3761,5.3442,5.2746,5.2184,5.1277,5.0228,0.0,1.1986,1.2655,1.405,1.5019,1.5977,1.6987,1.7472,1.7877,1.8344,1.8926,1.9828,2.1193,2.2867,2.4702,2.6631,2.939,3.1923,3.407,3.5224,3.5887,3.6002,3.6202,3.6202,3.5975,3.5646,3.5649,3.5892,3.6003,3.621,3.6445,3.7001,3.7604,3.8333,3.9188,4.0273,4.1614,4.3036,4.4467,4.5928,4.7107,4.9371,5.2063,5.3253,5.4268,5.4908,5.3995,5.3505,5.3099,5.1722,5.0155,4.8499,4.6523,4.4624,4.2916,0.0,0.0,0.0,0.0,0.0,0.0,0.0,0.0,0.0,0.0,0.0,0.0,0.0,0.0,5.4375,5.5215,0.0,5.7564,5.8898,6.055,6.2381,6.4595,6.5794,6.6509,6.6615,6.5427,6.411,6.289,6.1545,6.0252,5.911,5.8353,5.765,5.7072,5.652,5.6219,5.6219,5.5942,5.539,5.4587,5.4285,5.3733,5.2929,5.2929,5.2929,5.2929,5.2929,5.2929,5.2879,5.1951,5.1844,5.2257,5.1496,5.1956,5.3126,5.2697,5.2581,5.2507,5.2083,5.1124,5.0027,0.0,0.0,1.2391,1.3544,1.422,1.4941,1.6011,1.6366,1.6703,1.722,1.763,1.8217,1.9174,2.0741,2.2473,2.4175,2.7994,3.1315,3.3571,3.489,3.5851,3.6378,3.6275,3.6019,3.5577,3.4988,3.4657,3.4657,3.4688,3.4722,3.4893,3.5349,3.593,3.6611,3.7275,3.8278,3.952,4.054,4.1828,4.3291,4.4455,4.5629,4.6928,4.9181,5.172,5.408,5.3615,5.3485,5.3334,5.2574,5.1483,5.0138,4.8767,4.6946,4.5153,4.4033,4.3089,0.0,0.0,0.0,0.0,0.0,0.0,0.0,0.0,5.519,5.6226,5.7501,5.8172,5.8755,5.9841,6.0171,6.049,6.1148,6.1438,6.2329,6.4387,6.507,6.5838,6.7207,6.6187,6.4978,6.3819,6.2268,6.0809,5.9566,5.858,5.7801,5.7223,5.6671,5.6319,5.6219,5.6118,5.5566,5.4587,5.4461,5.3909,5.2929,5.2929,5.2929,5.2929,5.2929,5.2929,5.2854,5.1817,5.1352,5.1187,5.0725,5.1138,5.1989,5.1327,5.158,5.2328,5.1973,5.1053,4.9972,0.0,0.0,0.0,1.2744,1.3211,1.3684,1.4063,1.4547,1.4867,1.4986,1.551,1.6294,1.7228,1.8597,2.0964,2.4757,2.7763,3.0362,3.2499,3.45,3.5836,3.6302,3.6092,3.5435,3.441,3.3555,3.3131,3.3131,3.3118,3.3435,3.393,3.3479,3.3821,3.4871,3.4947,3.594,3.7501,3.8323,3.9235,4.0185,4.0769,4.1837,4.3141,4.4026,4.7133,5.1113,5.1935,5.2197,5.2126,5.1548,5.0955,5.0194,4.8919,4.7352,4.5728,4.4849,4.3746,4.319,4.4543,4.7371,5.0423,5.2416,5.4718,5.6668,0.0,5.9008,6.0369,6.0301,6.1909,6.3201,6.2735,6.3549,6.3895,6.2656,6.289,6.3286,6.3547,6.401,6.4796,6.6018,6.5692,6.4978,6.3819,6.2268,6.0913,6.01,5.916,5.8378,5.7826,5.7248,5.6721,5.6219,5.5742,5.5189,5.4587,5.4059,5.3507,5.2929,5.2929,5.2929,5.2929,5.2929,5.2929,5.2879,5.2085,5.0766,4.9281,4.9707,4.9843,4.9786,4.92,4.9749,5.0989,5.1582,5.0785,4.9419,0.0,0.0,0.0,1.3565,1.3274,1.3128,1.3245,1.3423,1.3495,1.3495,1.3913,1.4547,1.5327,1.7351,1.9978,2.3254,2.5964,2.8778,3.1633,3.3578,3.5062,3.6105,3.5523,3.4855,3.4311,3.274,3.1973,3.212,3.1436,3.1441,3.206,3.2062,3.2458,3.3133,3.3723,3.4494,3.5388,3.6565,3.737,3.7954,3.8847,3.9645,4.0388,4.1491,4.3365,4.5708,4.7998,4.9437,0.0,0.0,4.8958,4.8795,4.8105,4.6947,4.5669,4.5141,4.3955,4.3162,4.4917,4.7959,5.1198,5.3267,5.6332,5.9184,6.0503,6.1964,6.3343,6.442,6.5263,6.585,6.5903,6.5795,6.5279,6.3944,6.315,6.2702,6.2538,6.2412,6.2625,6.3425,6.3028,6.3037,6.3938,6.2343,6.1091,6.0508,5.9388,5.8478,5.7926,5.7349,5.6771,5.6219,5.5666,5.5114,5.4587,5.3984,5.3432,5.2929,5.2929,5.2929,5.2929,5.2929,5.2578,5.1925,5.1254,5.0077,4.8615,4.8897,4.9012,4.8908,4.8101,4.876,5.0181,5.0324,5.007,4.961,0.0,0.0,0.0,1.4291,1.3739,1.3153,1.2917,1.2687,1.2475,1.2363,1.2664,1.3336,1.4401,1.6713,1.9074,2.147,2.4221,2.7124,3.0199,3.2254,3.39,3.526,3.454,3.3884,3.3454,3.1781,3.0878,3.0859,3.0084,3.0,3.0558,3.101,3.1398,3.1835,3.2711,3.3289,3.3741,3.5024,3.5678,3.6009,3.7021,3.7637,3.8089,3.9392,4.0305,4.1338,4.4546,4.6413,4.7323,4.6637,4.652,4.6589,4.6462,4.5713,4.4843,4.4565,4.3595,4.3038,4.4935,4.7813,5.0938,5.3605,5.7213,6.062,6.2394,6.3905,6.5372,6.6761,6.7184,6.7352,6.7609,6.7145,6.6232,6.4805,6.3469,6.2459,6.2093,6.1301,6.0984,6.1501,6.067,6.0909,6.2844,6.173,6.0708,6.0354,5.9439,5.8629,5.7926,5.7499,5.6947,5.6244,5.5666,5.5114,5.4587,5.3984,5.3432,5.2929,5.2929,5.2929,5.2929,5.2779,5.2176,5.1247,5.067,4.9593,4.828,4.828,4.8093,4.7774,4.7039,4.762,4.8825,4.8669,4.9088,4.9719,0.0,0.0,0.0,0.0,1.4351,1.3863,1.2835,1.2414,1.1993,1.139,1.1872,1.2972,1.4958,1.6502,1.817,2.0013,2.2926,2.569,2.8043,3.0478,3.2308,3.3344,3.3056,3.2316,3.1096,3.0421,2.9726,2.9082,2.9368,2.9647,2.9905,3.0295,3.0781,3.1363,3.173,3.217,3.2763,3.3545,3.4022,3.4346,3.4918,3.5543,3.6173,3.6905,3.795,3.9409,4.2501,4.3477,4.3383,4.3817,4.385,4.3647,4.3914,4.3619,4.3108,4.2783,4.2644,4.297,4.4672,4.7074,4.999,5.3539,5.7243,6.0524,6.238,6.4641,6.6284,6.6024,6.7005,6.7769,6.7078,6.7399,6.718,6.5265,6.4208,6.3379,6.2646,6.1002,6.0266,6.0984,5.9506,5.8774,5.9735,5.9908,5.9766,5.9388,5.9412,5.9006,5.7951,5.7876,5.7349,5.6244,5.5666,5.5114,5.4587,5.3984,5.3432,5.2929,5.2929,5.2929,5.2904,5.2377,5.1825,5.1247,5.067,4.9464,4.7908,4.7908,4.7136,4.5951,4.5655,4.5969,4.6517,4.6801,4.7978,4.9545,0.0,0.0,0.0,0.0,0.0,1.4282,1.3744,1.2844,1.1872,1.1088,1.1595,0.0,0.0,0.0,0.0,0.0,2.1602,2.4068,2.6113,2.843,3.0187,3.1405,3.0934,3.0377,2.9865,2.8313,2.7458,2.7463,2.7085,2.7384,2.8343,2.8897,2.949,3.0079,3.0897,3.1269,3.1289,3.2197,3.2495,3.2391,3.2781,3.3351,3.4081,3.4417,3.5435,3.682,0.0,3.9525,4.0859,4.0775,4.1219,4.1822,4.2082,4.2424,4.26,4.1739,4.1686,4.2235,4.3441,4.5813,4.8739,5.2105,5.5411,5.8565,6.1327,6.306,6.4503,6.5711,6.6372,6.6606,6.6369,6.6627,6.6272,6.4471,6.4137,6.3731,6.2479,6.1411,6.0557,6.0168,5.8834,5.7728,5.7286,5.7932,5.8572,5.8779,5.8555,5.8102,5.7374,5.7323,5.6972,5.6244,5.5666,5.5114,5.4587,5.3984,5.3432,5.2929,5.2929,5.2929,5.2904,5.1975,5.1448,5.1222,5.0293,4.9113,4.7908,4.7908,4.7111,4.5867,4.5425,4.5576,4.6137,4.6248,4.7323,4.8824,0.0,0.0,0.0,0.0,0.0,0.0,0.0,0.0,0.0,0.0,0.0,0.0,0.0,0.0,0.0,0.0,0.0,2.2699,2.4253,2.6442,2.8083,2.9061,2.8799,2.8447,2.8037,2.6577,2.5786,2.5596,2.5389,2.563,2.6476,2.7383,2.8044,2.8582,2.9513,2.9804,2.9661,3.0433,3.0676,3.061,3.1028,3.1741,3.2564,3.2959,3.3715,0.0,3.5427,3.6717,3.8185,3.8725,3.9582,4.0499,4.0981,4.1587,4.2061,4.1514,4.1484,4.1794,4.2785,4.4864,4.7433,5.0376,5.3463,5.6526,5.9209,6.0964,6.2437,6.3981,6.4398,6.4454,6.4595,6.5019,6.5031,6.394,6.4251,6.4359,6.3476,6.2424,6.1337,6.0321,5.8646,5.7273,5.6345,5.6653,5.7111,5.7668,5.78,5.765,5.7072,5.7022,5.6771,5.6219,5.5666,5.5114,5.4587,5.3984,5.3432,5.2929,5.2929,5.2929,5.2879,5.1774,5.1272,5.1197,4.9866,4.8761,4.7883,4.7506,4.6597,4.5388,4.4832,4.4817,4.5083,4.5421,4.6426,4.7836,0.0,0.0,0.0,0.0,0.0,0.0,0.0,0.0,0.0,0.0,0.0,0.0,0.0,0.0,0.0,0.0,0.0,0.0,2.2473,2.4547,2.5961,2.6402,2.6695,2.6404,2.5531,2.5178,2.4528,2.3466,2.4101,2.4422,2.4517,2.5802,2.6547,2.6927,2.7624,2.7882,2.7917,2.8288,2.8631,2.8961,2.9646,3.0452,3.1446,3.2194,3.2678,3.3134,3.453,3.5135,3.5599,3.7662,3.8994,3.9948,4.0821,4.1229,4.1535,4.2085,4.1849,4.1618,4.2718,4.4258,4.6149,4.8513,5.1483,5.4369,5.6251,5.8379,6.0121,6.0792,6.1234,6.1527,6.1792,6.2701,6.3418,6.3719,6.4581,6.5233,6.5512,6.4045,6.2669,6.1648,5.9183,5.7359,5.6946,5.6056,5.5666,5.6143,5.7198,5.7575,5.7022,5.6997,5.6746,5.6194,5.5666,5.5114,5.4536,5.3959,5.3406,5.2929,5.2929,5.2904,5.2854,5.1774,5.1272,5.1147,4.949,4.8435,4.7832,4.6753,4.5648,4.4568,4.4016,4.3633,4.3492,4.4341,4.5395,4.6605,0.0,0.0,0.0,0.0,0.0,0.0,0.0,0.0,0.0,0.0,0.0,0.0,0.0,0.0,0.0,0.0,0.0,0.0,2.1486,2.2793,2.3741,2.4305,2.4225,2.3969,2.3475,2.2637,2.2105,2.1789,2.1972,2.2355,2.2811,2.4125,2.49,2.5294,2.6522,2.6694,2.6232,2.6638,2.6678,2.6566,2.6932,2.7908,2.9165,2.9789,3.0843,3.2189,3.34,3.4791,3.6255,3.7871,4.0187,4.2629,4.4171,4.4041,4.3249,4.3415,4.2909,4.2423,4.311,4.424,4.5705,4.7623,4.9372,5.1255,5.3604,5.497,5.613,5.7418,5.7945,5.8204,5.8204,5.9947,6.1494,6.1774,6.4207,6.6099,6.6108,6.5737,6.5122,6.388,6.1627,5.9544,5.7842,5.703,5.6344,5.5641,5.6244,5.657,5.642,5.642,5.6168,5.5616,5.5465,5.4913,5.3934,5.3381,5.3055,5.2929,5.2929,5.2703,5.2302,5.1599,5.1046,5.0569,4.9314,4.8435,4.7832,4.6753,4.5648,4.4568,4.4016,4.3633,4.3492,4.4123,4.5127,4.6134,0.0,0.0,0.0,0.0,0.0,0.0,0.0,0.0,0.0,0.0,0.0,0.0,0.0,0.0,0.0,0.0,0.0,0.0,0.0,2.1816,2.2625,2.3126,2.3022,2.2719,2.2259,2.1555,2.1074,2.0772,2.0893,2.1194,2.1555,2.2556,2.3127,2.3383,2.4313,2.4485,2.4132,2.4378,2.4486,0.0,0.0,2.6135,2.76,2.8462,2.9692,3.1222,3.2629,3.5129,3.8087,4.0239,4.2879,4.5546,4.7212,4.7133,4.6292,4.5765,4.4892,4.407,4.3953,4.4572,4.5555,4.6634,4.7877,4.933,5.1023,5.1831,5.2513,5.3844,5.4117,5.4403,5.5192,5.7367,5.9481,6.0704,6.3801,6.616,6.6672,6.6782,6.6286,6.4902,6.293,6.0881,5.8854,5.8085,5.7269,5.6168,5.6168,5.6219,5.6219,5.6219,5.5968,5.5415,5.5139,5.4486,5.3381,5.308,5.2929,5.2929,5.2929,5.2628,5.2076,5.1523,5.0971,5.0343,4.8987,4.8209,4.7782,4.6225,4.5196,4.4543,4.374,4.335,4.3295,4.3738,4.4559,4.5395,0.0,0.0,0.0,0.0,0.0,0.0,0.0,0.0,0.0,0.0,1.1708,0.0,0.0,0.0,0.0,0.0,0.0,0.0,0.0,0.0,2.2238,2.2659,2.2601,2.233,2.1711,2.1307,2.0768,2.0181,2.0422,2.0542,2.0528,2.117,2.1484,2.1544,2.1886,2.2035,2.2035,2.2035,2.2364,2.2988,2.3595,2.4815,2.6361,0.0,0.0,3.0176,3.2267,3.5864,4.0079,4.3251,4.5917,4.8162,4.9751,5.0079,4.963,4.8444,4.7188,4.6031,4.5077,4.5221,4.5657,4.5868,4.6959,4.8094,4.8692,4.9029,4.9478,5.0263,5.0315,5.0657,5.229,5.4738,5.7282,5.9655,6.2893,6.5548,6.6889,6.7035,6.6536,6.5321,6.3496,6.1688,5.9938,5.9073,5.8149,5.7072,5.6595,5.6294,5.6219,5.6143,5.5817,5.5189,5.4637,5.3884,5.2929,5.2929,5.2929,5.2929,5.2929,5.2603,5.1975,5.1498,5.0921,5.0218,4.8611,4.7908,4.7732,4.5522,4.4618,4.4518,4.3413,4.2986,4.3042,4.3295,4.3903,4.4511,0.0,0.0,0.0,0.0,0.0,0.0,0.0,0.0,0.0,0.0,1.1362,1.2294,0.0,0.0,0.0,0.0,0.0,0.0,0.0,0.0,0.0,0.0,2.2689,2.2249,2.1623,2.083,2.025,1.9856,1.9695,1.9636,1.9636,2.0233,2.052,2.0593,2.1142,2.1194,2.0953,2.0953,2.116,2.1597,2.2201,2.3352,2.4911,0.0,0.0,0.0,3.2917,3.6489,4.0109,4.3323,4.6348,4.9211,5.1208,5.1478,5.0906,4.9932,4.8595,4.7217,4.6238,4.61,4.6175,4.6235,4.6601,4.7052,4.7206,4.7295,4.7424,4.7597,4.7808,4.8159,4.8654,5.1627,5.4487,5.6189,6.0241,6.363,6.5093,6.5905,6.6087,6.5427,6.3975,6.2297,6.0509,5.9662,5.8579,5.7097,5.6947,5.6696,5.6244,5.5767,5.5064,5.4034,5.3482,5.313,5.2929,5.2929,5.2929,5.2929,5.2929,5.2402,5.1423,5.1322,5.072,4.9665,4.8435,4.7908,4.7732,4.5522,4.4618,4.4518,4.3413,4.2986,4.3042,4.3295,4.3683,4.3939,0.0,0.0,0.0,0.0,0.0,0.0,0.0,1.0925,1.0703,1.0656,1.1347,1.2221,1.3382,1.5406,1.6947,0.0,0.0,0.0,0.0,0.0,0.0,0.0,0.0,0.0,2.207,2.1335,2.0683,2.0055,0.0,1.9586,1.9586,1.9762,1.9807,1.9807,2.0133,2.0187,2.0023,2.0023,2.0223,2.0508,2.1112,2.2127,2.338,0.0,0.0,0.0,3.2178,3.5121,3.805,4.1293,4.437,4.7568,5.1322,5.2519,5.2285,5.1073,4.9895,4.879,4.7475,4.7129,4.7079,4.6803,4.6874,4.6844,4.6238,4.5893,4.5674,4.5565,4.5559,4.5802,4.6506,4.9274,5.2033,5.3868,5.78,6.1175,6.2652,6.4218,6.4944,6.4429,6.3776,6.2757,6.108,6.0402,5.9338,5.7575,5.7474,5.7123,5.6269,5.5415,5.4561,5.3733,5.3206,5.2929,5.2929,5.2929,5.2929,5.2929,5.2929,5.2352,5.1272,5.1272,5.067,4.954,4.8385,4.7908,4.7732,4.5522,4.4618,4.4518,4.3413,4.2986,4.3042,4.3129,4.3199,4.3172,0.0,0.0,0.0,0.0,0.0,0.0,0.0,1.06,1.0573,1.0735,1.149,1.2355,1.3349,1.537,1.696,0.0,0.0,0.0,0.0,0.0,0.0,0.0,0.0,0.0,2.3197,0.0,0.0,2.0593,2.0191,0.0,0.0,0.0,0.0,0.0,1.9466,1.9426,1.943,1.943,1.9573,0.0,0.0,2.131,2.2346,0.0,0.0,0.0,0.0,3.3236,3.5801,3.8723,4.1625,4.4785,4.9362,5.1796,5.2701,5.1409,5.0655,4.9976,4.8459,4.8083,4.7958,4.7431,4.723,4.6853,4.5748,4.5045,4.45,4.4105,4.3904,4.4057,4.4941,4.7245,4.9576,5.1507,5.5011,5.8068,5.9665,6.1777,6.3059,6.2875,6.3062,6.273,6.1292,6.0863,5.9896,5.8052,5.7575,5.6922,5.5917,5.4913,5.4135,5.3557,5.313,5.2929,5.2929,5.2929,5.2929,5.2929,5.2929,5.2352,5.1272,5.1272,5.067,4.954,4.8385,4.7908,4.7732,4.5522,4.4618,4.4518,4.3413,4.2986,4.2986,4.2986,4.2801,4.241,0.0,0.0,0.0,0.0,0.0,0.0,0.0,1.034,1.0572,1.0663,1.1792,1.2874,1.3781,1.5302,1.6653,0.0,0.0,0.0,0.0,0.0,0.0,0.0,0.0,0.0,0.0,0.0,0.0,2.1572,2.0911,0.0,0.0,0.0,0.0,0.0,0.0,1.9613,1.943,1.943,0.0,0.0,0.0,0.0,0.0,0.0,0.0,0.0,0.0,3.1834,3.4374,3.6576,3.8887,4.1377,4.3973,4.756,5.0658,5.0153,5.0158,5.008,4.9027,4.8686,4.856,4.7983,4.7481,4.6853,4.5748,4.5045,4.4317,4.3319,4.329,4.3462,4.3568,4.5154,4.6825,4.8081,5.1156,5.4021,5.5933,5.8241,6.0054,6.0914,6.1556,6.1594,6.0837,6.0737,5.9896,5.8052,5.6495,5.5365,5.4737,5.411,5.3532,5.3005,5.2955,5.2929,5.2929,5.2929,5.2929,5.2929,5.2929,5.2352,5.1272,5.1272,5.067,4.954,4.8385,4.7908,4.7732,4.5522,4.4618,4.4518,4.3413,4.2986,4.2986,4.2986,4.269,4.2137,0.0,0.0,0.0,0.0,0.0,0.0,1.0224,1.029,1.048,1.0745,1.1447,1.2421,1.3746,1.4855,1.6252,1.7987,0.0,0.0,0.0,0.0,0.0,0.0,0.0,0.0,0.0,0.0,2.3803,2.2554,2.1718,0.0,0.0,0.0,0.0,0.0,0.0,1.9733,1.9626,1.9626,0.0,0.0,0.0,0.0,0.0,0.0,0.0,0.0,0.0,0.0,3.2206,3.4611,3.6555,3.8321,4.0626,4.3143,4.5644,4.7748,4.8746,4.9249,4.9279,4.9264,4.9213,4.8987,4.8259,4.723,4.5824,4.5045,4.4317,4.3212,4.3073,4.3129,4.3129,4.4178,4.5411,4.6539,4.9176,5.169,5.3281,5.608,5.8103,5.8333,5.9737,6.0289,5.9273,5.9532,5.8952,5.7046,5.5641,5.4637,5.4084,5.3833,5.3457,5.2955,5.2929,5.2929,5.2929,5.2929,5.2929,5.2929,5.2929,5.2352,5.1272,5.1272,5.067,4.954,4.8385,4.7908,4.7757,4.5899,4.4945,4.4543,4.3765,4.3263,4.2986,4.2986,4.2434,4.163,0.0,0.0,0.0,0.0,0.0,1.045,1.0238,1.029,1.0538,1.09,1.1429,1.2361,1.3967,1.5023,1.6465,1.848,2.0165,0.0,0.0,0.0,0.0,0.0,0.0,0.0,0.0,0.0,2.5057,2.3702,2.273,2.1984,0.0,0.0,2.0535,2.0361,0.0,0.0,0.0,0.0,0.0,0.0,0.0,0.0,0.0,0.0,0.0,0.0,0.0,0.0,0.0,0.0,0.0,3.605,3.8194,3.9825,4.1718,4.5374,4.707,4.7911,4.8888,4.9213,4.9339,4.9339,4.851,4.728,4.5824,4.492,4.4116,4.3162,4.2986,4.2986,4.2986,4.3512,4.4257,4.537,4.7401,4.943,5.1134,5.3791,5.5868,5.6474,5.8202,5.9091,5.8418,5.8584,5.7887,5.6116,5.5089,5.4235,5.3507,5.3457,5.3306,5.2929,5.2929,5.2929,5.2929,5.2929,5.2929,5.2929,5.2754,5.2201,5.1272,5.1096,5.0494,4.954,4.8385,4.7908,4.7782,4.615,4.5146,4.4568,4.4016,4.3463,4.2986,4.2986,4.2338,4.1436,0.0,0.0,0.0,0.0,0.0,0.0,1.0115,1.0304,1.0678,1.1167,1.1857,1.295,1.4588,1.6056,1.7549,1.9067,2.0374,0.0,0.0,0.0,0.0,0.0,0.0,0.0,0.0,0.0,2.6705,2.5078,2.4019,2.3,2.2052,2.173,2.1293,2.0668,0.0,0.0,0.0,0.0,0.0,0.0,0.0,0.0,0.0,0.0,0.0,0.0,0.0,0.0,0.0,0.0,0.0,0.0,0.0,3.8066,3.9908,4.3355,4.5081,4.6205,4.7543,4.8335,4.8786,4.8786,4.7958,4.6853,4.5748,4.4618,4.3639,4.3087,4.2986,4.2986,4.2986,4.3042,4.3338,4.4443,4.5388,4.6909,4.9461,5.1085,5.3023,5.558,5.6954,5.799,5.8704,5.8079,5.7036,5.5563,5.4888,5.4084,5.3005,5.2929,5.2929,5.2929,5.2929,5.2929,5.2929,5.2929,5.2929,5.2929,5.2377,5.1825,5.1272,5.0695,5.0117,4.954,4.8385,4.7908,4.7782,4.615,4.5146,4.4568,4.4016,4.3463,4.2986,4.2986,4.2448,4.1679,0.0,0.0,0.0,0.0,0.0,0.0,0.0,1.044,1.0764,1.1534,1.2199,1.3302,1.5124,1.5982,1.7206,1.9196,2.077,0.0,0.0,0.0,0.0,0.0,0.0,0.0,0.0,2.895,2.7913,2.6471,2.5454,2.4376,2.3083,2.2497,2.1903,2.1333,2.1069,2.0802,0.0,0.0,0.0,0.0,0.0,0.0,2.1425,0.0,0.0,0.0,0.0,0.0,0.0,0.0,0.0,0.0,0.0,0.0,0.0,4.1068,4.3028,4.4885,4.6828,4.7506,4.7732,4.8083,4.738,4.6276,4.5146,4.4317,4.3639,4.3087,4.2986,4.2986,4.2986,4.2986,4.3338,4.4443,4.5388,4.6756,4.8948,5.1053,5.2941,5.4678,5.6422,5.7642,5.818,5.7491,5.6454,5.4984,5.4662,5.4084,5.298,5.2929,5.2929,5.2929,5.2929,5.2929,5.2929,5.2929,5.2729,5.2352,5.2176,5.1599,5.0695,5.0494,4.9916,4.8987,4.8234,4.7707,4.728,4.5999,4.5146,4.4568,4.4016,4.3463,4.2992,4.278,4.2283,4.1681,0.0,0.0,0.0,0.0,0.0,0.0,0.0,1.0816,1.1173,1.2128,1.2873,1.4046,1.598,1.664,1.7674,1.9603,2.1071,0.0,0.0,0.0,0.0,0.0,0.0,0.0,3.0098,2.968,2.8842,2.7668,2.6857,2.5751,2.4371,2.3444,2.2693,2.197,2.1467,2.1122,0.0,0.0,0.0,0.0,0.0,0.0,2.1235,0.0,0.0,0.0,0.0,0.0,0.0,0.0,0.0,0.0,0.0,0.0,0.0,0.0,4.148,4.3037,4.5271,4.6024,4.6276,4.6577,4.5849,4.4869,4.4166,4.3589,4.3137,4.3011,4.2986,4.2986,4.2986,4.2986,4.3338,4.4443,4.5211,4.6509,4.8875,5.108,5.3319,5.5816,5.7371,5.8281,5.8321,5.7435,5.6305,5.4895,5.4431,5.3858,5.298,5.2929,5.2929,5.2929,5.2929,5.2929,5.2929,5.2729,5.2452,5.2101,5.1674,5.1096,5.0393,4.9992,4.9414,4.8736,4.7958,4.7431,0.0,4.5949,4.5146,4.4568,4.4016,4.3338,4.269,4.2612,4.2166,4.1535,0.0,0.0,0.0,0.0,0.0,0.0,0.0,1.1531,1.1953,1.2892,1.3868,1.5221,1.716,1.7917,1.8808,2.0165,0.0,0.0,0.0,0.0,0.0,0.0,0.0,0.0,3.045,3.0238,2.966,2.8717,2.816,2.7134,2.5659,2.4592,2.3605,2.2638,2.1919,2.1403,0.0,0.0,0.0,0.0,2.1109,2.1109,0.0,0.0,0.0,0.0,0.0,0.0,0.0,0.0,0.0,0.0,0.0,0.0,0.0,0.0,0.0,0.0,0.0,4.3991,4.4443,4.4443,4.3689,4.2911,4.2861,4.2564,0.0,4.2866,4.3073,4.3098,4.3098,4.3098,4.345,4.4558,4.4965,4.6218,4.9162,5.1426,5.4306,5.8596,5.9654,5.9724,5.9086,5.7851,5.6534,5.5146,5.4194,5.3482,5.2955,5.2929,5.2904,5.2879,5.2879,5.2879,5.2879,5.2327,5.2026,5.1975,5.0921,5.0393,5.0318,4.9264,4.8736,4.8661,4.7581,4.7043,4.6928,4.5874,4.507,4.4518,4.3966,4.3087,4.2213,4.2435,4.2019,4.1337,0.0,0.0,0.0,0.0,0.0,0.0,0.0,0.0,0.0,0.0,1.5137,1.6487,1.8132,1.8635,1.9338,0.0,0.0,0.0,0.0,0.0,0.0,0.0,0.0,0.0,3.0762,3.1082,3.0752,2.9733,2.9782,2.876,2.6738,2.5731,2.4502,2.3255,2.231,2.159,0.0,0.0,0.0,0.0,2.1109,2.1109,0.0,0.0,0.0,0.0,2.7065,2.8421,0.0,0.0,0.0,0.0,0.0,0.0,0.0,0.0,4.0199,4.0626,4.1153,0.0,4.2735,4.2735,4.259,4.2288,0.0,4.212,4.2536,4.2663,4.3402,4.3984,4.3984,4.4123,4.4649,4.5788,4.6026,4.7143,5.0181,5.4215,5.7799,6.0208,6.1016,6.0838,5.9383,5.8147,5.6633,5.4638,5.3993,5.3482,5.2955,5.2929,5.2729,5.2302,5.2302,5.2302,5.2302,5.1749,5.1247,5.082,5.0544,5.0193,4.9766,4.9088,4.8535,4.8083,4.7405,4.6652,4.5824,4.5121,4.4493,4.394,4.3388,4.276,4.2217,4.222,4.1846,4.1285,0.0,0.0,0.0,0.0,0.0,0.0,0.0,0.0,0.0,0.0,0.0,1.7411,1.8872,1.9072,0.0,0.0,0.0,0.0,0.0,0.0,0.0,0.0,0.0,3.0274,3.0898,3.1358,3.1294,3.0538,3.0977,3.0171,2.8341,2.7262,2.5918,2.4134,2.2576,2.1537,2.1109,2.1109,2.1109,2.1109,2.1109,0.0,0.0,0.0,0.0,0.0,2.7065,2.8421,0.0,3.1883,3.3084,3.4022,0.0,0.0,0.0,0.0,4.0002,4.0383,4.0635,4.1059,4.1404,4.1404,4.1204,4.1003,4.0978,4.1392,4.1884,4.2299,4.3295,4.4115,4.4222,4.4964,4.584,4.6655,4.7542,4.9526,5.3504,5.6897,5.9696,6.1668,6.2082,6.1546,5.9972,5.8456,5.6768,5.4962,5.4061,5.3438,5.2955,5.2678,5.2402,5.2126,5.1599,5.1448,5.1724,5.1172,5.072,5.0419,5.0167,4.9891,4.9565,4.8761,4.8209,4.7857,4.7104,4.6276,4.5447,4.4869,4.4292,4.374,4.3187,4.2484,4.1785,4.1859,4.1435,4.0747,0.0,0.0,0.0,0.0,0.0,0.0,0.0,0.0,0.0,0.0,0.0,0.0,0.0,0.0,0.0,0.0,0.0,0.0,0.0,0.0,0.0,0.0,2.9292,2.9941,3.0976,3.1558,3.1719,3.1508,3.2106,3.1602,3.0105,2.9013,2.7189,2.4796,2.2679,2.1494,2.1109,2.1109,2.1109,2.1109,2.1109,0.0,0.0,0.0,0.0,0.0,0.0,0.0,0.0,3.1883,3.3084,3.4022,3.6371,0.0,0.0,0.0,0.0,0.0,4.0693,4.0792,4.0788,4.0812,4.0433,4.0182,4.0662,4.0972,4.1387,4.211,4.331,4.4362,4.4704,4.5981,4.7244,4.8027,4.9826,5.2737,5.7329,5.918,6.0812,6.2764,6.2807,6.2057,6.0606,5.8707,5.6931,5.5465,5.421,5.3316,5.2804,5.2352,5.2026,5.185,5.0921,5.0619,5.1021,5.0544,5.0293,5.0293,4.9816,4.9565,4.9439,4.8385,4.7857,4.7732,4.6652,4.5874,4.5321,4.4744,4.4166,4.3639,4.3162,4.2359,4.1455,4.1622,4.1098,4.0236,0.0,0.0,0.0,0.0,0.0,0.0,0.0,0.0,0.0,0.0,0.0,0.0,0.0,0.0,0.0,0.0,0.0,0.0,0.0,0.0,0.0,2.8528,2.9404,3.031,3.1367,3.2355,3.3112,3.3556,3.3737,3.3083,3.1632,3.0356,2.7648,2.3764,2.2772,2.1876,2.1109,2.1109,2.1109,2.1109,2.1109,0.0,0.0,0.0,0.0,0.0,0.0,0.0,0.0,3.192,3.3084,3.4022,3.6371,0.0,0.0,0.0,0.0,0.0,4.0492,4.126,4.1982,4.2215,4.2035,4.1852,4.193,4.2313,4.2719,4.3051,4.4769,4.651,4.7369,4.8471,4.9874,5.1598,5.4086,5.6394,5.8031,6.0297,6.2145,6.2968,6.3222,6.2604,6.075,5.8925,5.7114,5.5177,5.4116,5.3139,5.2251,5.2151,5.1674,5.0695,5.0519,5.0243,4.9866,4.9766,4.9715,4.9715,4.964,4.9339,4.8887,4.8209,4.7657,4.7179,4.61,4.5296,4.4719,4.4166,4.3614,4.3087,4.3011,4.264,4.2037,4.1802,4.1326,4.0717,0.0,0.0,0.0,0.0,0.0,0.0,0.0,0.0,0.0,0.0,0.0,0.0,0.0,0.0,0.0,0.0,0.0,0.0,0.0,0.0,2.4809,2.7409,2.9119,3.0641,3.2076,3.3417,3.4389,3.4848,3.5257,3.4831,3.359,3.0688,2.7967,2.5218,2.3724,2.2614,2.1822,2.1737,2.1636,2.1563,0.0,0.0,0.0,0.0,0.0,0.0,0.0,0.0,0.0,0.0,3.297,3.3966,3.6013,0.0,0.0,0.0,0.0,0.0,4.1207,4.2642,4.4138,4.4654,4.3977,4.3118,4.3118,4.3526,4.3953,4.4203,4.5835,4.7468,4.8418,5.0068,5.2203,5.4989,5.652,5.8021,5.9852,6.1111,6.2172,6.2971,6.3061,6.2434,6.0995,5.9451,5.7815,5.6013,5.4467,5.3231,5.2439,5.159,5.082,4.9992,4.969,4.9264,4.8686,4.8686,4.8987,4.959,4.9289,4.9012,4.8736,4.7883,4.7205,4.6652,4.5824,4.4995,4.4166,4.3915,4.3463,4.2986,4.2986,4.269,4.2112,4.1364,4.0683,4.0231,0.0,0.0,0.0,0.0,0.0,0.0,0.0,0.0,0.0,0.0,0.0,0.0,0.0,0.0,0.0,0.0,0.0,0.0,0.0,2.2984,2.4422,2.6448,2.8731,3.0903,3.2808,3.4491,3.5788,3.6485,3.6851,3.6374,3.4907,3.1265,2.8643,2.6993,2.5085,2.3687,2.2883,2.2582,2.2298,2.2096,0.0,0.0,0.0,0.0,0.0,0.0,0.0,0.0,0.0,0.0,0.0,0.0,0.0,0.0,0.0,3.905,4.0083,4.1075,4.1821,4.3633,4.5545,4.6265,4.5641,4.4905,4.5041,4.5363,4.5708,4.6095,4.7419,4.8784,4.9692,5.1969,5.4638,5.7614,5.8405,5.9283,6.1424,6.1838,6.2251,6.3019,6.2789,6.2234,6.1286,5.9986,5.8474,5.6645,5.4853,5.3329,5.2235,5.0968,4.9967,4.9414,4.8862,4.836,4.7908,4.7908,4.8335,4.9188,4.8761,4.851,4.836,4.738,4.6652,4.6075,4.5397,4.4593,4.379,4.3664,4.3363,4.2986,4.2986,4.2615,4.1856,4.1028,4.0275,3.9697,0.0,0.0,0.0,0.0,0.0,0.0,0.0,0.0,0.0,0.0,0.0,0.0,0.0,0.0,0.0,0.0,0.0,0.0,0.0,2.2825,2.4326,2.6171,2.8536,3.0974,3.3364,3.5477,3.7422,3.9118,3.8934,3.7559,3.503,3.265,3.0326,2.8251,2.6666,2.5237,2.3977,2.3652,2.3079,2.2438,2.2424,0.0,0.0,0.0,0.0,0.0,0.0,0.0,0.0,0.0,0.0,0.0,0.0,0.0,3.7791,3.8921,4.0083,4.1047,4.16,4.3286,4.5064,4.5627,4.6764,4.7848,4.8439,4.8322,4.8384,4.9262,5.0389,5.1522,5.2339,5.4866,5.7258,5.8752,6.0036,6.1111,6.1945,6.263,6.3019,6.3079,6.2789,6.2292,6.1613,6.0352,5.8619,5.6369,5.494,5.323,5.1119,5.0161,4.9389,4.8837,4.8259,4.7958,4.7908,4.7908,4.7958,4.8033,4.7983,4.7707,4.723,4.6652,4.6075,4.5497,4.4392,4.389,4.3765,4.3237,4.3011,4.2986,4.2986,4.2333,4.1326,4.125,4.0601,3.9697,0.0,0.0,0.0,0.0,0.0,0.0,0.0,0.0,0.0,0.0,0.0,0.0,0.0,0.0,0.0,0.0,0.0,0.0,0.0,2.2285,2.3326,2.482,2.7198,2.9678,3.2273,3.5316,3.7826,3.9794,3.9597,3.8501,3.6459,3.4189,3.2083,3.0293,2.8592,2.7133,2.5967,2.5439,2.4745,2.3975,2.3196,2.2827,0.0,0.0,0.0,0.0,0.0,0.0,0.0,0.0,3.2055,3.314,3.4636,3.6013,3.7281,3.8607,3.9904,4.1121,4.2088,4.398,4.5817,4.6472,4.7987,4.938,4.9397,5.0075,5.0854,5.1625,5.2397,5.3228,5.4132,5.5816,5.7663,5.9428,6.0505,6.1493,6.257,6.2929,6.3079,6.3079,6.3021,6.2731,6.2292,6.0817,5.9269,5.7577,5.5303,5.3166,5.1138,5.0003,4.8876,4.7782,4.7531,4.7255,4.6928,4.6577,4.6401,4.6426,4.7104,4.7154,4.6602,4.605,4.5296,4.4418,4.3991,4.3614,4.3263,4.3062,4.2986,4.2936,4.2665,4.2007,4.125,4.0953,4.035,3.9697,0.0,0.0,0.0,0.0,0.0,0.0,0.0,0.0,0.0,0.0,0.0,0.0,0.0,0.0,0.0,0.0,0.0,0.0,2.1403,2.1883,2.2613,2.3731,2.5876,2.8336,3.1055,3.4255,3.7112,3.9723,3.9674,3.8882,3.7321,3.521,3.3445,3.1969,3.0372,2.9025,2.7998,2.7115,2.6195,2.5234,2.4028,2.3428,0.0,0.0,0.0,0.0,0.0,0.0,0.0,0.0,3.1652,3.2742,3.3966,3.5356,3.685,3.8267,3.965,4.0984,4.2183,4.4012,4.5775,4.6411,4.8281,4.9968,5.0121,5.1444,5.2918,5.3853,5.4285,5.4798,5.5658,5.6496,5.7752,5.9757,6.0655,6.1583,6.2899,6.3079,6.3079,6.3079,6.3079,6.2874,6.2318,6.1116,5.9648,5.7902,5.5291,5.3005,5.1085,4.9578,4.828,4.7154,4.6954,4.6602,4.605,4.5673,4.5397,4.5221,4.5974,4.615,4.5773,4.5196,4.4543,4.379,4.3614,4.3313,4.2961,4.2841,4.261,4.2434,4.2057,4.1555,4.0974,4.0651,4.0174,3.9697,0.0,0.0,0.0,0.0,0.0,0.0,0.0,0.0,2.1991,2.1991,0.0,0.0,0.0,0.0,0.0,0.0,0.0,0.0,2.1109,2.1696,2.2373,2.3078,2.4732,2.702,2.9882,3.2214,3.5268,3.907,3.9174,3.8577,3.7388,3.5673,3.4251,3.3084,3.1939,3.0797,2.9722,2.8677,2.7409,2.6024,2.497,2.4139,2.3588,0.0,0.0,0.0,0.0,0.0,0.0,0.0,3.1478,3.2399,3.3628,3.5024,3.6503,3.7979,3.9297,4.053,4.1591,4.3184,4.4658,4.5172,4.7303,4.9659,5.093,5.2785,5.4581,5.5927,5.6248,5.6376,5.6974,5.7094,5.7752,5.9757,6.0655,6.1583,6.2869,6.3079,6.3079,6.3079,6.3079,6.2694,6.1721,6.1027,5.9655,5.7101,5.4828,5.2783,5.0883,4.8788,4.7471,4.7129,4.6602,4.605,4.5497,4.5472,4.5171,4.4618,4.4618,4.4618,4.4593,4.4041,4.379,4.3765,4.3212,4.2986,4.2936,4.2439,4.1831,4.1275,4.1275,4.1003,4.0526,4.0501,4.0174,3.9697,0.0,0.0,0.0,0.0,0.0,0.0,0.0,0.0,2.2285,2.2285,2.2111,0.0,0.0,0.0,0.0,0.0,0.0,0.0,2.1109,2.1316,2.1624,2.2054,2.3686,2.5624,2.7735,3.1679,3.5322,3.8664,3.8783,3.811,3.6872,3.5763,3.4583,3.3394,3.2777,3.1851,3.081,2.9984,2.8945,2.7718,2.6214,2.525,2.4573,0.0,0.0,0.0,0.0,0.0,0.0,0.0,0.0,0.0,3.2949,3.4134,3.5398,3.7469,3.8843,4.0132,4.1827,4.3376,4.4789,4.6123,4.7852,4.9778,5.1498,5.3473,5.5388,5.7184,5.7543,5.7453,5.7154,5.7483,5.8171,5.9219,6.0356,6.1403,6.2271,6.278,6.3079,6.3079,6.266,6.2301,6.1978,6.0773,5.9121,5.7053,5.5247,5.2983,5.0062,4.8859,4.7742,4.6577,4.6024,4.5648,4.5497,4.4694,4.4217,4.4041,4.3639,4.3664,4.4041,4.3865,4.3589,4.3212,4.3062,4.2816,4.2414,4.1806,4.148,4.125,4.0849,4.0651,4.0475,4.0074,3.9848,3.9697,0.0,0.0,0.0,0.0,0.0,0.0,0.0,0.0,2.2245,2.2245,2.1991,2.1697,0.0,0.0,0.0,0.0,0.0,0.0,2.1109,2.1109,2.1235,2.1614,2.2967,2.5074,2.7958,3.1625,3.4691,3.7213,3.7253,3.6937,3.6152,3.5449,3.468,3.3805,3.3489,3.2771,3.1653,3.0983,3.0047,2.8827,2.7272,2.6319,2.573,0.0,0.0,0.0,0.0,0.0,0.0,0.0,0.0,0.0,3.2322,3.3388,3.4614,3.6735,3.8141,3.9407,4.1397,4.3105,4.4647,4.615,4.7955,4.9958,5.2426,5.4341,5.5987,5.7423,5.7723,5.7573,5.7184,5.7663,5.8351,5.9009,5.9997,6.1044,6.1972,6.245,6.269,6.269,6.2331,6.1882,6.1343,6.0104,5.8575,5.6843,5.4884,5.2565,4.9861,4.859,4.7316,4.5999,4.5447,4.5045,4.4819,4.4141,4.3689,4.3463,4.3137,4.3162,4.3463,4.3463,4.3288,4.2961,4.2735,4.2208,4.148,4.1153,4.0824,4.0651,4.0325,4.0199,4.0149,3.9823,3.9697,3.9697,0.0,0.0,2.1109,2.1109,0.0,0.0,0.0,0.0,0.0,0.0,2.1775,2.1443,0.0,0.0,0.0,0.0,0.0,0.0,0.0,2.1109,2.1235,2.1551,2.2663,2.5313,2.9722,3.1847,3.3597,3.5032,3.5323,3.5446,3.5387,3.4975,3.4544,3.4132,3.4088,3.3408,3.2281,3.1589,3.0663,2.9549,2.8204,2.7504,2.7082,2.6111,0.0,0.0,0.0,0.0,0.0,0.0,0.0,0.0,3.1842,3.284,3.3944,3.5864,3.722,3.8512,4.0446,4.2435,4.4268,4.5645,4.7746,5.0242,5.3324,5.4999,5.6137,5.6944,5.7094,5.7094,5.7094,5.7663,5.8321,5.8919,5.9608,6.0505,6.1732,6.1972,6.2002,6.2002,6.1942,6.1403,6.0116,5.918,5.7951,5.634,5.4027,5.1877,4.9966,4.7922,4.6425,4.5456,4.4844,4.4317,4.3815,4.374,4.3438,4.2911,4.2961,4.2961,4.2911,4.2961,4.2961,4.2861,4.2363,4.148,4.0526,4.045,4.0149,3.9697,3.9697,3.9697,3.9697,3.9697,3.9697,3.9697,0.0,0.0,2.1109,2.1109,0.0,0.0,0.0,0.0,0.0,0.0,0.0,0.0,0.0,2.1109,0.0,0.0,0.0,0.0,0.0,2.1109,2.1109,2.1172,2.3461,2.6056,2.8875,3.1038,3.2594,3.3621,3.5264,3.586,3.5581,3.548,3.5177,3.4689,3.4187,3.346,3.2548,3.1902,3.1038,3.0154,2.935,2.8838,2.848,2.7461,2.7159,0.0,0.0,0.0,0.0,0.0,0.0,0.0,3.1365,3.2176,3.2974,3.4618,3.6136,3.7676,3.9615,4.1774,4.3834,4.5588,4.8432,5.1109,5.2366,5.3264,5.4431,5.6645,5.7094,5.7094,5.7094,5.7663,5.8171,5.8321,5.9308,6.0176,6.0475,6.0984,6.1313,6.1313,6.0835,6.0206,5.9398,5.8656,5.7309,5.506,5.355,5.1484,4.8736,4.728,4.6005,4.4819,4.4267,4.3915,4.379,4.3363,4.2886,4.2389,4.2816,4.2816,4.2414,4.2841,4.2791,4.2363,4.1756,4.1128,4.0475,4.0049,3.9798,3.9697,3.9697,3.9697,3.9697,3.9697,3.9697,3.9697,0.0,0.0,0.0,0.0,0.0,0.0,0.0,0.0,0.0,0.0,0.0,0.0,0.0,2.1109,0.0,0.0,2.1109,0.0,0.0,0.0,2.1366,2.201,2.3936,2.6071,2.8345,3.0574,3.231,3.3376,3.5745,3.6389,3.5397,3.5831,3.5727,3.5108,3.4423,3.357,3.2633,3.1953,3.1246,3.0587,3.0079,2.9785,2.9568,2.8719,2.8403,2.8343,2.8062,0.0,0.0,0.0,0.0,0.0,0.0,0.0,3.1834,3.3301,3.476,3.632,3.845,4.0548,4.2833,4.5594,4.8461,5.07,5.1122,5.2007,5.3084,5.4461,5.5508,5.6166,5.6166,5.6974,5.7752,5.8082,5.871,5.9368,5.9997,6.0386,6.0625,6.0625,6.0027,5.9368,5.871,5.7752,5.6347,5.4346,5.3121,5.1161,4.8322,4.7041,4.5861,4.4529,4.3916,4.3431,4.3011,4.2791,4.2308,4.1756,4.2057,4.2032,4.1781,4.2333,4.2187,4.1354,4.1078,4.0626,4.0099,3.9823,3.9697,3.9697,3.9697,3.9697,3.9697,3.9697,3.9697,3.9697,0.0,0.0,0.0,0.0,0.0,0.0,0.0,0.0,0.0,0.0,0.0,0.0,0.0,0.0,2.1029,0.0,0.0,0.0,0.0,0.0,0.0,2.2886,2.403,2.5593,2.7756,3.0192,3.2034,3.3313,3.6149,3.6986,3.5879,3.6612,3.6639,3.5951,3.5005,3.4044,3.2975,3.1998,3.1329,3.0937,3.0645,3.0509,3.0392,2.9785,2.9549,2.9549,2.9272,2.9331,2.953,2.9768,0.0,0.0,0.0,0.0,3.0689,3.1915,3.3252,3.48,3.695,3.9204,4.1819,4.5448,4.7879,4.9426,4.9865,5.0853,5.1708,5.1708,5.3384,5.485,5.485,5.5897,5.6944,5.7513,5.7812,5.8321,5.9428,5.9668,5.9697,5.9578,5.9189,5.862,5.7872,5.6705,5.541,5.3854,5.2549,5.0715,4.8164,4.6974,4.5731,4.4158,4.3563,4.2891,4.2062,4.2062,4.1731,4.115,4.115,4.115,4.115,4.1656,4.1379,4.0526,4.0526,4.0199,3.9697,3.9697,3.9697,3.9697,3.9697,3.9697,3.9697,3.9697,3.9697,3.9697,0.0,0.0,0.0,0.0,0.0,0.0,0.0,0.0,0.0,0.0,2.1136,2.1109,0.0,0.0,0.0,2.0735,2.0735,2.0735,2.0735,0.0,0.0,2.2181,2.3569,2.4978,2.6424,2.9297,3.1287,3.2451,3.5703,3.7713,3.8585,3.8785,3.8738,3.8231,3.6355,3.5068,3.423,3.2653,3.1682,3.1208,3.0937,3.082,3.0762,3.0392,3.0274,3.0197,2.9922,2.9804,2.9806,2.9795,2.9815,0.0,0.0,0.0,3.0038,3.0841,3.1964,3.3357,3.5233,3.8405,4.1819,4.4686,4.6236,4.7407,4.8743,4.9387,4.9689,4.9689,5.1678,5.3443,5.3443,5.4551,5.5478,5.5568,5.6496,5.7304,5.7483,5.7992,5.8171,5.7573,5.7932,5.7782,5.6555,5.5748,5.4726,5.3231,5.1678,4.9915,4.7857,4.6649,4.5156,4.3259,4.2856,4.2279,4.1455,4.1401,4.1178,4.0626,4.0626,4.0626,4.0626,4.0701,4.0651,4.0526,4.0526,4.0199,3.9697,3.9697,3.9697,3.9697,3.9697,3.9697,3.9697,3.9697,3.9697,3.9697,0.0,0.0,0.0,0.0,0.0,0.0,0.0,0.0,0.0,0.0,0.0,2.1109,0.0,0.0,0.0,2.0681,2.0521,2.0494,2.0668,2.0949,2.1433,2.2052,2.3206,2.4475,2.5818,2.8721,3.0787,3.1951,3.5562,3.7999,3.9356,4.0479,4.0587,3.9735,3.7843,3.6313,3.5013,3.3437,3.2261,3.1425,3.114,3.0866,3.0591,3.0478,3.0401,3.0364,3.008,2.9966,2.9946,2.9752,2.9519,2.9267,2.9172,0.0,0.0,0.0,3.0712,3.2151,3.4388,3.7339,4.0241,4.19,4.356,4.4996,4.5933,4.7126,4.8,4.8,4.9628,5.1199,5.1947,5.3174,5.4311,5.5059,5.5658,5.6286,5.7004,5.7363,5.7423,5.7124,5.7064,5.6795,5.6226,5.5239,5.4142,5.2989,5.1748,5.0175,4.8187,4.7011,4.5491,4.3566,4.2935,4.2019,4.0877,4.0824,4.0601,4.0049,4.0049,4.0049,4.0049,4.0049,4.0049,4.0049,4.0049,3.9923,3.9697,3.9697,3.9697,3.9697,3.9697,3.9697,3.9697,3.9697,3.9697,3.9697,0.0,0.0,0.0,0.0,0.0,0.0,0.0,0.0,0.0,0.0,0.0,0.0,0.0,0.0,0.0,0.0,2.0294,2.0281,2.0655,2.0949,2.133,2.1815,2.29,2.4026,2.5219,2.8088,3.0168,3.1476,3.4991,3.76,3.9356,4.1205,4.1707,4.0975,3.935,3.7672,3.6099,3.4581,3.323,3.2114,3.1487,3.1014,3.0587,3.0322,3.0342,3.0498,3.0133,3.0103,3.0127,2.9675,2.9309,2.9015,2.8789,2.8662,0.0,0.0,0.0,3.1105,3.3221,3.5618,3.779,3.9004,4.0921,4.266,4.3386,4.4938,4.6239,4.6282,4.7584,4.903,4.997,5.1511,5.3054,5.4251,5.473,5.5269,5.6226,5.6645,5.6795,5.6645,5.6346,5.6107,5.5927,5.473,5.3644,5.2842,5.1816,5.0457,4.8631,4.7431,4.5884,4.3861,4.284,4.1696,4.0325,4.03,4.0099,3.9697,3.9697,3.9697,3.9697,3.9697,3.9697,3.9697,3.9697,3.9697,3.9697,3.98,3.98,3.98,3.9903,3.9852,3.98,3.98,3.9749,3.9697,0.0,0.0,0.0,0.0,0.0,0.0,0.0,0.0,0.0,0.0,0.0,0.0,2.1614,2.1019,2.0557,2.0254,1.9987,2.0067,2.0641,2.0949,2.1122,2.1136,2.2446,0.0,2.4162,2.7099,2.9313,3.0839,3.356,3.621,3.8782,4.0388,4.1566,4.2244,4.0819,3.9439,3.8006,3.6013,3.4588,3.3508,3.2184,3.1524,3.1148,3.0201,3.0272,3.0805,3.0268,3.037,3.062,2.9724,2.9401,2.9268,2.8564,2.832,2.8354,0.0,0.0,0.0,3.1213,3.2808,3.4721,3.6734,3.876,4.0603,4.1976,4.3268,4.421,4.4395,4.587,4.7153,4.7213,4.9477,5.1558,5.2247,5.3414,5.4281,5.4341,5.5448,5.5987,5.5359,5.5807,5.5927,5.5299,5.4012,5.3136,5.2812,5.1595,5.0279,4.893,4.7709,4.5994,4.3568,4.2371,4.1106,3.9747,3.9747,3.9722,3.9697,3.9697,3.9697,3.9697,3.9697,3.9697,3.9697,3.9697,3.9697,3.9749,3.9981,4.0083,4.0083,4.0338,4.0287,4.0083,4.0083,3.9929,3.9749,0.0,0.0,0.0,0.0,0.0,0.0,0.0,0.0,0.0,0.0,0.0,0.0,0.0,2.1619,2.0893,2.053,2.0254,2.0241,2.0655,2.0949,2.1109,2.1109,2.2167,2.3153,2.407,2.6564,2.8496,2.9757,3.2551,3.4827,3.6655,3.8953,4.0481,4.1403,4.1707,4.0826,3.9038,3.7788,3.6145,3.4305,3.3489,3.2674,3.1929,3.1416,3.1357,3.1508,3.0779,3.0674,3.0694,2.9807,2.9533,2.946,2.898,2.8509,2.8127,2.7902,2.8217,2.8785,2.9465,3.0926,3.2563,3.3836,3.5876,3.7892,3.9047,4.0735,4.2175,4.2725,4.4008,4.5433,4.6564,4.8804,5.0764,5.1468,5.2695,5.3713,5.4162,5.497,5.5448,5.5209,5.5388,5.5448,5.5209,5.3982,5.3174,5.3028,5.1804,5.0378,4.8866,4.7701,4.5909,4.3264,4.2025,4.0874,3.9697,3.9697,3.9697,3.9697,3.9697,3.9697,3.9697,3.9697,3.98,3.9981,4.016,4.0134,3.9981,4.044,4.0618,4.0618,4.0744,4.0593,4.0338,4.0185,3.9929,3.9749,0.0,0.0,0.0,2.4894,0.0,2.4109,2.4131,2.41,2.4162,2.4409,0.0,0.0,0.0,0.0,2.1548,2.0786,2.0625,2.059,2.0668,2.0949,2.1109,2.1109,2.2041,2.3043,2.3899,2.6156,2.789,2.9028,3.1436,3.3356,3.4858,3.7129,3.877,3.9868,4.1208,4.1109,3.9837,3.8983,3.7362,3.5413,3.4659,3.3816,3.2899,3.2293,3.2216,3.2324,3.1519,3.1272,3.1249,3.0526,3.0162,2.988,2.9318,2.8609,2.791,2.7572,2.7533,2.7783,2.828,2.9359,3.0504,3.1394,3.3312,3.5151,3.6029,3.7832,3.9543,4.0392,4.1766,4.3272,4.4865,4.7214,4.934,5.0674,5.1798,5.2845,5.3743,5.4431,5.494,5.5149,5.5179,5.5179,5.5179,5.3982,5.3174,5.3174,5.1977,5.0478,4.8902,4.7788,4.585,4.2927,4.1781,4.082,4.0083,3.9929,3.9826,3.9826,3.9826,3.9826,3.9826,4.0032,4.0185,4.0364,4.0846,4.0846,4.0567,4.1172,4.1421,4.1421,4.1521,4.1298,4.0846,4.0593,4.0338,4.0134,2.4776,2.5039,2.5414,2.6472,2.5877,2.5394,2.6083,2.5639,2.5439,2.6067,0.0,0.0,0.0,0.0,0.0,2.0874,2.106,2.1115,2.0757,2.0949,2.1109,2.1109,2.2041,2.2918,2.3604,2.5806,2.7533,2.8663,3.0309,3.1948,3.3663,3.5062,3.6432,3.7814,3.9255,4.0074,4.0389,3.955,3.8275,3.6717,3.5733,3.4845,3.4006,3.2771,3.2746,3.324,3.2463,3.2266,3.237,3.1841,3.1278,3.0627,2.962,2.8604,2.7804,2.7557,2.7484,2.7582,0.0,0.0,0.0,2.9547,3.1109,3.2574,3.3121,3.4703,3.638,3.736,3.8999,4.0673,4.1981,4.4385,4.7021,4.964,5.0704,5.1678,5.2983,5.3743,5.4461,5.514,5.5179,5.5179,5.5179,5.3982,5.3174,5.3174,5.1977,5.0572,4.9139,4.792,4.5788,4.2582,4.1471,4.0896,4.0896,4.0389,4.0083,4.0083,4.0083,4.0083,4.0134,4.0694,4.0946,4.0997,4.1769,4.1868,4.1471,4.2159,4.2479,4.2555,4.2749,4.2409,4.1696,4.1448,4.1147,4.0997,2.5278,2.6277,2.7214,2.8067,2.7866,2.7721,2.7905,2.7739,2.7624,0.0,0.0,0.0,2.6719,2.4996,2.3369,2.2262,2.2029,2.1754,2.1352,2.1434,2.1362,2.1109,2.1614,2.2418,2.3542,2.4949,2.638,2.7893,2.9565,3.0878,3.1855,3.3573,3.4912,3.5899,3.6928,3.7785,3.8428,3.9247,3.8718,3.7344,3.6846,3.6063,3.5136,3.4583,3.4487,3.4607,3.4,3.3679,3.3472,3.2951,3.2174,3.1152,2.9387,2.8781,2.8522,2.7792,2.7714,2.7857,2.7693,0.0,0.0,0.0,0.0,0.0,3.1447,3.2653,3.3796,3.4846,3.6423,3.8184,3.9865,4.1687,4.383,4.6618,4.9301,5.1208,5.1944,5.3465,5.4597,5.4945,5.528,5.5481,5.5481,5.413,5.3174,5.3174,5.1977,5.0394,4.8541,4.6054,4.4089,4.2749,4.172,4.1071,4.0896,4.0389,4.0083,4.0083,4.0083,4.0185,4.0389,4.092,4.1445,4.2039,4.2625,4.3204,4.3748,4.3634,4.3586,4.3586,4.3634,4.3328,4.2749,4.2311,4.1967,4.1792,2.5614,2.708,2.8412,2.9264,2.9431,2.9501,2.9441,2.93,2.914,0.0,0.0,0.0,2.7581,2.6215,2.4875,2.381,2.3381,2.2901,2.2292,2.2104,2.1803,2.1362,2.1727,2.2418,2.3355,2.478,2.6167,2.7539,2.9221,3.046,3.1317,3.262,3.3794,3.4804,3.5544,3.6402,3.7326,3.827,3.816,3.7418,3.727,3.6676,3.5883,3.5668,3.5524,3.5476,3.5066,3.4726,3.4433,3.4115,3.3085,3.1618,3.0263,2.9514,2.9121,2.879,2.8678,2.8631,2.8678,2.8592,2.8476,2.8476,0.0,0.0,2.9693,3.0496,3.1482,3.2297,3.3637,3.5308,3.7232,3.8926,4.0852,4.3267,4.6258,4.8987,5.1113,5.2425,5.3622,5.4777,5.5066,5.528,5.5551,5.4149,5.3174,5.3174,5.1977,5.0351,4.8416,4.5813,4.4181,4.3586,4.2479,4.1819,4.1597,4.0694,4.0287,4.0287,4.0287,4.0491,4.0846,4.1571,4.2333,4.3081,4.3729,4.4434,4.5173,4.511,4.4972,4.4712,4.4648,4.4294,4.3776,4.33,4.306,4.3033,0.0,2.754,2.9171,3.0175,3.0685,3.0931,3.0876,3.0581,3.0291,0.0,2.982,2.9131,2.7935,2.7478,2.6719,2.5501,2.5071,2.4456,2.3417,2.2981,2.248,2.1803,2.2292,2.2793,2.3168,2.4978,2.6432,2.7539,2.9101,3.0411,3.1529,3.2128,3.3101,3.4289,3.4889,3.571,3.6696,3.6946,3.7047,3.7111,3.7161,3.6908,3.6358,3.6146,3.6051,3.6003,3.5764,3.5524,3.5259,3.5162,3.3887,3.2276,3.1731,3.0785,2.9942,3.0308,3.008,2.9852,3.0216,2.9646,2.891,2.8863,2.8769,0.0,2.8083,2.8649,2.9427,2.9925,3.0974,3.2404,3.429,3.6136,3.799,3.9762,4.2131,4.5388,5.0007,5.0943,5.2017,5.4322,5.4522,5.4707,5.5359,5.4029,5.3084,5.3084,5.175,5.0219,4.8529,4.655,4.5276,4.4741,4.3444,4.2652,4.2413,4.1045,4.0389,4.044,4.044,4.0743,4.1372,4.2409,4.3328,4.4181,4.4879,4.5475,4.5972,4.6447,4.6358,4.5882,4.5685,4.5293,4.4823,4.434,4.4294,4.4499,2.5535,2.8014,3.0112,3.0592,3.1658,3.239,3.2374,3.2002,3.1769,3.1733,3.1103,3.0395,2.9675,2.8979,2.8182,2.7142,2.6719,2.5973,2.4764,2.4394,2.3775,2.2856,2.2668,2.2981,2.3867,2.4513,2.5805,2.7899,2.8884,3.0138,3.1606,3.2352,3.3229,3.4097,3.4643,3.5234,3.5843,3.6133,3.6347,3.6606,3.7059,3.6908,3.6405,3.631,3.631,3.631,3.6263,3.6098,3.569,3.4915,3.4386,3.3883,3.2912,3.2273,3.1891,3.18,3.1492,3.125,3.1116,3.0668,3.0102,2.9669,2.9161,0.0,2.8113,2.7988,2.8005,2.8078,2.9139,3.0321,3.1298,3.2973,3.4856,3.6857,3.832,4.1087,4.6472,4.9364,5.1366,5.2441,5.3252,5.396,5.4274,5.3164,5.2396,5.2396,5.0475,4.8967,4.8074,4.6408,4.5276,4.4741,4.3328,4.2311,4.1845,4.0306,3.9753,4.0185,3.9929,4.0456,4.1647,4.2652,4.3804,4.4926,4.5504,4.609,4.6682,4.68,4.6668,4.6447,4.6403,4.618,4.5882,4.5566,4.5446,4.5537,2.5739,2.805,3.0131,3.0641,3.1913,3.2734,3.2519,3.248,3.2402,3.2268,3.1657,3.099,3.0303,2.9917,2.9372,2.854,2.7985,2.7208,2.6071,2.5365,2.4487,2.3354,2.311,2.3293,2.3778,2.4746,2.5936,2.7491,2.893,3.0261,3.1403,3.2499,3.3423,3.4237,3.4775,3.5284,3.5812,3.5955,3.6146,3.643,3.6707,3.6656,3.6405,3.6405,3.6405,3.6405,3.6405,3.631,3.6096,3.5443,3.5053,3.4735,3.4068,3.3584,3.3189,3.2876,3.2633,3.2366,3.2074,3.1649,3.1181,3.0689,3.0011,0.0,0.0,2.8045,2.7715,2.7499,2.8026,2.8808,2.9547,3.0761,3.223,3.4125,3.5536,3.7671,4.1406,4.536,4.8676,5.0973,5.175,5.2456,5.3531,5.2324,5.1297,5.078,4.9433,4.8417,4.8119,4.6665,4.564,4.511,4.3491,4.2247,4.1493,3.9999,3.9271,3.9246,3.9695,4.0418,4.1493,4.3067,4.4387,4.5475,4.6135,4.6668,4.7106,4.7106,4.7019,4.6961,4.68,4.6668,4.6506,4.6314,4.624,4.6373,2.6024,2.8037,2.9883,3.0506,3.1769,3.2559,3.2226,3.2522,3.2662,3.2389,3.1957,3.1426,3.0781,3.0606,3.0314,2.9667,2.8981,2.8217,2.734,2.6289,2.5136,2.3964,2.3803,2.3819,2.3862,2.5186,2.632,2.7197,2.9026,3.039,3.133,3.26,3.3601,3.4436,3.4969,3.5448,3.5901,3.5901,3.6093,3.6405,3.6405,3.6405,3.6405,3.6405,3.6355,3.6182,3.6128,3.6153,3.6207,3.5996,3.57,3.5401,3.5192,3.4703,3.423,3.3966,3.3702,3.3439,3.3146,3.2684,3.2191,3.1749,3.1008,3.017,0.0,0.0,0.0,2.7526,2.7547,2.7794,2.8434,2.9076,3.0075,3.1663,3.3093,3.4703,3.6571,4.044,4.4659,4.8803,4.9597,5.0471,5.2066,5.1107,4.9961,4.8984,4.8432,4.8104,4.7911,4.6711,4.5866,4.5367,4.359,4.2172,4.1234,3.9884,3.8987,3.8605,3.9524,4.0491,4.1448,4.3332,4.4801,4.5927,4.6594,4.7062,4.7309,4.7309,4.7309,4.7266,4.7062,4.6975,4.6975,4.68,4.6844,4.6975,2.6099,2.8224,3.01,3.0176,3.1328,3.2226,3.2229,3.243,3.2733,3.2935,3.2594,3.2195,3.186,3.1445,3.0976,3.0333,2.9891,2.9354,2.8642,2.7582,2.6544,2.5584,2.5036,2.486,2.5152,2.5526,2.645,2.7862,2.8804,2.9994,3.1586,3.27,3.3611,3.4411,3.4955,3.5329,3.5562,3.5562,3.5884,3.6405,3.6405,3.6405,3.6405,3.6405,3.6056,3.5533,3.5031,3.5182,3.5583,3.5562,3.5884,3.6257,3.6235,3.5787,3.529,3.5286,3.4911,3.4535,3.446,3.3906,3.3242,3.3019,3.2075,3.0982,3.0216,0.0,2.8491,2.8045,0.0,2.7662,2.7704,0.0,0.0,2.9563,3.0519,3.1867,3.4113,3.589,3.8962,4.419,4.6358,4.7749,4.8676,4.882,4.8437,4.7519,4.7582,4.7317,4.6475,4.5895,4.5367,4.4787,4.3015,4.1767,4.1213,3.9607,3.8986,3.9381,3.9433,4.0428,4.2227,4.3332,4.4703,4.6151,4.6712,4.7062,4.7309,4.7309,4.7309,4.7309,4.7266,4.7266,4.7266,4.7222,4.7222,4.7266,2.7183,2.866,3.0077,3.0265,3.1127,3.1857,3.2037,3.2815,3.3413,3.3502,3.3296,3.3032,3.2496,3.2062,3.1494,3.0623,3.0154,2.9577,2.8709,2.779,2.6883,2.5989,2.5596,2.5314,2.5314,2.5869,2.6573,2.7414,2.8734,2.99,3.094,3.2499,3.363,3.4414,3.5276,3.5796,3.6006,3.6006,3.6157,3.6405,3.6405,3.6405,3.638,3.6006,3.5554,3.4981,3.4756,3.4831,3.5082,3.5382,3.5658,3.5956,3.6304,3.6207,3.5956,3.5583,3.5332,3.5082,3.4756,3.4234,3.3676,3.3429,3.2636,3.1761,3.1026,3.0147,2.9417,2.8978,0.0,0.0,0.0,0.0,0.0,0.0,2.9536,3.0385,3.1944,3.3452,3.623,4.1239,4.3245,4.4829,4.6395,4.6922,4.6848,4.6044,4.6078,4.5962,4.5566,4.511,4.4525,4.3788,4.2465,4.1342,4.0408,3.9368,3.8865,3.8945,3.9669,4.0704,4.2058,4.3698,4.5094,4.6195,4.6844,4.7222,4.7309,4.7309,4.7309,4.7309,4.7309,4.7309,4.7309,4.7309,4.7309,4.7309,2.8582,2.9372,3.0098,3.0333,3.1015,3.1624,3.2212,3.3276,3.4001,3.4068,3.4197,3.3955,3.3275,3.2892,3.2313,3.1438,3.067,2.9952,2.9196,2.8215,2.7314,2.6609,2.6227,2.5953,2.5716,2.6373,2.6916,2.726,2.8761,2.9764,3.0443,3.2145,3.336,3.4029,3.5182,3.5799,3.5931,3.6081,3.6279,3.6405,3.6405,3.6329,3.6081,3.5483,3.4931,3.4474,3.4324,3.4374,3.455,3.4906,3.5157,3.5332,3.578,3.5906,3.583,3.5382,3.5282,3.5182,3.4826,3.4324,3.3903,3.3851,3.3256,3.2602,3.2147,3.1451,3.0813,3.0445,2.9935,0.0,0.0,0.0,2.9186,2.9111,0.0,2.9559,3.0255,3.1581,3.4055,3.8437,4.0683,4.262,4.4407,4.511,4.5147,4.4527,4.4591,4.4581,4.4273,4.3995,4.351,4.2713,4.1778,4.0916,4.0114,3.968,3.9357,3.9166,4.0294,4.129,4.2217,4.4021,4.5303,4.6182,4.6959,4.7309,4.7309,4.7309,4.7309,4.7309,4.7309,4.7309,4.7309,4.7309,4.7309,4.7309,3.0157,3.0392,3.0392,3.0392,3.0937,3.1692,3.2856,3.3614,3.4233,3.4769,3.5157,3.5124,3.4547,3.4134,3.3663,3.3098,3.1725,3.088,3.0805,2.9237,2.8121,2.778,2.726,2.6935,2.6935,2.7206,2.753,2.7853,2.8708,2.9554,3.0443,3.1812,0.0,0.0,3.4214,3.4817,3.4801,3.5307,3.5881,3.6405,3.6405,3.6031,3.5458,3.4906,3.4399,3.3847,3.3319,3.347,3.3922,3.3947,3.4299,3.4705,3.4776,3.4731,3.4731,3.4705,3.4751,3.4705,3.468,3.4324,3.4022,3.4505,3.405,3.3553,3.3822,3.3349,3.2769,3.2559,3.2065,3.1615,3.1329,3.0897,3.0346,2.9796,2.9444,0.0,0.0,2.9921,3.1782,3.5348,3.8997,4.1662,4.2765,4.3375,4.3471,4.2937,4.3348,4.3196,4.2147,4.2309,4.2175,4.1571,4.095,4.0711,4.0862,4.0721,4.073,4.0916,4.1409,4.209,4.3008,4.4187,4.5175,4.607,4.691,4.7309,4.7309,4.7309,4.7309,4.7309,4.7309,4.7309,4.7309,4.7309,4.7309,4.7309,3.0274,3.0567,3.0704,3.0704,3.1034,3.1825,3.3459,3.467,3.5685,3.6309,3.6611,3.6557,3.6036,3.563,3.4946,3.3679,3.3081,3.2326,3.112,3.0306,2.954,2.8708,2.8174,2.7799,2.7584,2.7691,2.7853,2.8174,2.9026,2.9869,3.0681,0.0,0.0,0.0,3.3971,3.4644,3.5232,3.5408,3.5855,3.6405,3.6405,3.6031,3.5433,3.4881,3.4374,3.3822,3.3269,3.3194,3.342,3.3771,3.4022,3.4248,3.46,3.468,3.468,3.468,3.468,3.468,3.468,3.4324,3.4022,3.4575,3.4209,3.387,3.4193,3.3928,3.356,3.3375,3.305,3.2723,3.2441,3.208,3.1528,3.0593,3.0206,2.9808,0.0,3.0162,3.176,3.4019,3.7147,3.9711,4.1117,4.1425,4.1457,4.1311,4.1085,4.0813,4.0436,4.0505,4.0334,3.9933,4.004,4.015,4.0299,4.0686,4.1085,4.1464,4.1951,4.2548,4.3244,4.4381,4.5272,4.604,4.6924,4.7309,4.7309,4.7309,4.7309,4.7309,4.7309,4.7309,4.7309,4.7309,4.7309,4.7309,3.0626,3.0859,3.1054,3.1054,3.173,3.2778,3.4413,3.5795,3.6904,3.7495,3.7814,3.7791,3.7334,3.7012,3.6364,3.521,3.4652,3.3829,3.2507,3.1731,3.0853,2.9869,2.9217,2.8708,2.8335,2.8228,2.8301,2.8461,2.9343,3.0162,0.0,0.0,0.0,0.0,3.4135,3.469,3.5232,3.5408,3.5855,3.6405,3.6405,3.6031,3.5433,3.4881,3.4374,3.3822,3.3269,3.3111,3.3144,3.3495,3.3596,3.3671,3.4022,3.4148,3.4148,3.4148,3.4148,3.4148,3.4148,3.3872,3.3796,3.4525,3.4449,3.4354,3.4969,3.4888,3.4656,3.4517,3.4283,3.4002,3.3671,3.336,3.2741,3.1428,3.0931,3.0318,0.0,3.0057,3.1348,3.2864,3.5506,3.7817,3.9348,3.9668,3.9806,3.9757,3.9492,3.918,3.8877,3.8973,3.8903,3.8701,3.9135,3.9627,4.0126,4.0816,4.1451,4.2075,4.2444,4.2854,4.3337,4.4555,4.5335,4.5811,4.6834,4.7309,4.7309,4.7309,4.7309,4.7309,4.7309,4.7309,4.7309,4.7309,4.7309,4.7309,3.1208,3.1383,3.1441,3.1498,3.2892,3.4469,3.563,3.6904,3.7814,3.8368,3.8684,3.8736,3.8473,3.821,3.7921,3.7578,3.636,3.5396,3.4889,3.3399,3.2132,3.13,3.0526,2.9796,2.9185,2.8887,2.8727,2.8781,2.9606,3.0474,0.0,0.0,0.0,0.0,3.461,3.5023,3.4756,3.5282,3.5855,3.6405,3.6405,3.6031,3.5433,3.4926,3.4374,3.3822,3.3312,3.3111,3.3111,3.3111,3.3111,3.3111,3.3111,3.3111,3.3111,3.3111,3.3111,3.3111,3.3111,3.3111,3.3345,3.4449,3.4726,3.5002,3.6153,3.6241,3.6051,3.6051,3.586,3.5524,3.4969,3.4628,3.3918,3.237,3.1607,3.0712,2.9343,2.9638,3.0465,3.1801,3.4065,3.6084,3.7519,3.8088,3.8383,3.8334,3.8528,3.8321,3.7571,3.7785,3.7887,3.7874,3.833,3.9114,4.0244,4.1029,4.1827,4.2688,4.29,4.313,4.3379,4.4706,4.5304,4.5424,4.6741,4.7309,4.7309,4.7309,4.7309,4.7309,4.7309,4.7309,4.7309,4.7309,4.7309,4.7309,3.1825,3.2664,3.3459,3.3909,3.4357,3.508,3.6254,3.7441,3.8421,3.8998,3.931,3.9387,3.9102,3.8998,3.8736,3.8238,3.7853,3.7111,3.5793,3.4935,3.3834,3.2443,3.1432,3.063,3.0078,2.9343,2.9237,2.9679,3.0078,3.1043,3.2398,0.0,0.0,0.0,3.4527,3.4873,3.5282,3.5433,3.5855,3.6405,3.6405,3.6031,3.5433,3.5133,3.4641,3.4041,3.3528,3.3428,3.3556,3.3556,3.3556,3.3513,3.3368,3.3326,3.3283,3.3154,3.3111,3.3111,3.3111,3.3111,3.3345,3.4449,3.4861,3.5299,3.6387,3.6734,3.6828,3.6828,3.6593,3.6358,3.6026,3.5596,3.492,3.3697,3.2044,3.063,2.9889,2.9711,3.0067,3.1007,3.2192,3.3954,3.6493,3.7023,3.729,3.7484,3.7203,3.6925,3.6726,3.6773,3.6981,3.7294,3.7939,3.8774,3.9766,4.0859,4.1773,4.2474,4.285,4.3369,4.4077,4.4915,4.5574,4.6112,4.695,4.7309,4.7309,4.7309,4.7309,4.7309,4.7309,4.7309,4.7309,4.7309,4.7309,4.7369,3.2835,3.4078,3.5135,3.5576,3.6013,3.6503,3.7173,3.8157,3.8945,3.9413,3.9594,3.9645,3.949,3.9465,3.931,3.8998,3.8841,3.8218,3.6814,3.6183,3.5172,3.3568,3.26,3.1688,3.0961,3.0078,2.9816,3.0203,3.0681,3.1637,3.3001,0.0,0.0,0.0,3.4906,3.5115,3.5508,3.5805,3.6081,3.638,3.6107,3.5726,0.0,3.4978,3.4699,3.4418,3.4234,3.4021,3.3894,3.3979,3.4021,3.3979,3.3768,3.3641,3.3471,3.3283,3.3154,3.3111,3.3111,3.3111,3.3294,3.4148,3.4729,3.5359,3.6315,3.695,3.7407,3.7407,3.7268,3.7036,3.6615,3.6216,3.55,3.4042,3.2246,3.0733,3.0078,2.9659,2.9659,3.0391,3.1249,3.2774,3.5094,3.5819,3.6281,3.681,3.6581,3.6405,3.6405,3.6499,3.6734,3.7108,3.7802,3.8639,3.959,4.0602,4.1564,4.2392,4.3024,4.3675,4.4347,4.5304,4.5963,4.6309,4.701,4.7309,4.7309,4.7309,4.7309,4.7309,4.7309,4.7309,4.7309,4.7309,4.7309,4.7399,3.419,3.5466,3.6526,3.685,3.7601,3.8185,3.8185,3.8841,3.9413,3.9645,3.9697,3.9697,3.9697,3.9697,3.9697,3.9697,3.949,3.8888,3.7717,3.7168,3.618,3.4627,3.3819,3.2873,3.1812,3.1013,3.0599,3.0599,3.133,3.2297,0.0,0.0,0.0,0.0,3.534,3.5433,3.5533,3.6056,3.6355,3.6355,3.5755,3.5365,3.5079,3.4758,3.4682,3.4786,3.5141,3.4853,3.4356,3.4564,3.4605,3.4564,3.4314,3.4105,3.3852,3.3598,3.3411,3.324,3.324,3.3197,3.3237,3.3815,3.4496,3.5341,3.618,3.717,3.7899,3.7978,3.7959,3.773,3.7036,3.664,3.581,3.4042,3.2499,3.1176,3.0266,2.9586,2.9396,2.9994,3.0888,0.0,3.3845,3.4702,3.5548,3.6358,3.6405,3.6405,3.6405,3.6593,3.6803,3.7108,3.788,3.8719,3.9574,4.0427,4.1326,4.2351,4.3284,4.3938,4.4496,4.5753,4.6339,4.6429,4.707,4.7309,4.7309,4.7309,4.7309,4.7309,4.7309,4.7309,4.7309,4.7309,4.7369,4.7519,3.5904,3.7012,3.7761,3.8027,3.8631,3.905,3.905,3.9206,3.9413,3.9645,3.9697,3.9697,3.9697,3.9697,3.9697,3.9697,3.9645,3.9169,3.7966,3.7643,3.6826,3.5453,3.4628,3.377,3.2951,3.2117,3.171,3.171,3.2066,3.2901,0.0,0.0,0.0,3.5437,3.5031,3.5082,3.5508,3.5608,3.5956,3.6355,3.5755,3.5365,3.5079,3.5106,3.5021,3.5032,3.5843,3.5924,3.5669,3.571,3.571,3.5669,3.5304,3.5044,3.4771,3.4356,3.4063,3.392,3.392,3.3666,3.3495,3.4009,3.4517,3.527,3.659,3.7617,3.8448,3.8917,3.8863,3.8549,3.8004,3.7108,3.6026,3.4775,3.3598,3.2398,3.1176,3.0162,2.9711,3.0235,3.0681,3.1739,3.3796,3.4702,3.5548,3.6358,3.6405,3.6405,3.6405,3.6593,3.6803,3.7108,3.8292,3.9055,3.9336,4.0757,4.1639,4.2087,4.3172,4.4175,4.5155,4.5963,4.6621,4.713,4.7249,4.7309,4.7309,4.7309,4.7309,4.7309,4.7309,4.7309,4.7309,4.7309,4.7638,4.8207,3.7334,3.8185,3.8736,3.8841,3.9206,3.9517,3.9517,3.9517,3.9542,3.9697,3.9697,3.9697,3.9697,3.9697,3.9697,3.9697,3.9697,3.922,3.809,3.7891,3.7219,3.5861,3.5307,3.4677,3.3819,3.3151,3.2773,3.2645,3.3001,3.3697,3.4605,3.4771,3.5043,3.5483,3.4931,3.4831,3.5082,3.5382,3.5658,3.5881,3.5282,3.5223,3.5384,3.5044,3.5313,3.5896,3.6598,3.7028,3.725,3.6822,3.6587,3.6468,3.6243,3.5884,3.5481,3.5155,3.4827,3.4564,3.4439,3.4189,3.3929,3.393,3.4427,3.5159,3.607,3.7504,3.8737,3.9255,3.9486,3.9353,3.8368,3.7268,3.6238,3.5331,3.419,3.3001,3.1812,3.0785,3.0391,3.0754,3.1146,3.2145,3.4042,3.4799,3.5548,3.6358,3.6405,3.6405,3.6405,3.6734,3.7015,3.732,3.8608,3.9505,3.9977,4.1079,4.1924,4.2528,4.3701,4.459,4.5334,4.6352,4.701,4.7309,4.7309,4.7309,4.7309,4.7309,4.7309,4.7309,4.7309,4.7309,4.7309,4.7309,4.7728,4.8386,3.8502,3.8998,3.9387,3.9387,3.9542,3.9697,3.9697,3.9697,3.9697,3.9697,3.9697,3.9697,3.9697,3.9697,3.9697,3.9697,3.9697,3.922,3.809,3.8015,3.7415,3.6148,3.5812,3.538,3.4677,3.4213,3.3819,3.3545,3.4017,3.4507,3.4969,3.5004,3.4977,3.4956,3.4575,3.45,3.4751,3.5132,3.5458,3.5655,3.5047,3.5175,3.5642,3.511,3.5615,3.6727,3.7289,3.7938,3.8464,3.7863,3.7519,3.7289,3.7222,3.6805,3.6373,3.6136,3.5776,3.5359,3.5155,3.4868,3.4481,3.4021,3.4399,3.4975,3.5548,3.7126,3.8653,3.9354,3.9897,3.9924,3.8639,3.7638,3.6756,3.6048,3.4824,3.3598,3.265,3.1659,3.1124,3.1323,3.1658,3.2542,3.417,3.4752,3.5425,3.6358,3.6405,3.6405,3.6405,3.6828,3.7201,3.7505,3.8926,4.0003,4.0594,4.1513,4.2363,4.3195,4.4334,4.5124,4.5544,4.677,4.7309,4.7309,4.7309,4.7309,4.7309,4.7309,4.7309,4.7309,4.7309,4.7309,4.7309,4.7459,4.7938,4.8596,3.9154,3.9465,3.9645,3.9645,3.9697,3.9697,3.9697,3.9697,3.9697,3.9697,3.9697,3.9697,3.9697,3.9697,3.9697,3.9697,3.9697,3.922,3.809,3.8015,3.7513,3.6408,3.6098,3.5812,3.5476,3.5211,3.492,3.4628,3.492,3.5235,3.55,3.4725,3.3981,3.3294,3.3244,3.3796,3.468,3.4731,3.5378,3.6229,3.538,3.5309,3.5686,3.5624,3.6136,3.6961,3.7825,3.8389,3.8797,3.8907,3.8686,3.8315,3.8127,3.791,3.7682,3.7491,3.7106,3.6688,3.6492,3.5884,3.5182,3.4703,3.4673,3.4941,3.5763,3.6728,3.7854,3.9452,4.0025,4.0099,3.9336,3.8575,3.7848,3.7108,3.5906,3.4824,3.4239,3.2851,3.1911,3.1942,3.1748,3.229,3.3863,3.4292,3.5032,3.6307,3.6405,3.6405,3.6405,3.6828,3.7201,3.7505,3.9342,4.0406,4.0594,4.2349,4.3442,4.382,4.4979,4.5776,4.6219,4.698,4.7309,4.7309,4.7309,4.7309,4.7309,4.7309,4.7309,4.7309,4.7309,4.7309,4.7369,4.7967,4.864,4.9299,3.9465,3.9645,3.9697,3.9697,3.9697,3.9697,3.9697,3.9697,3.9697,3.9697,3.9697,3.9697,3.9697,3.9697,3.9697,3.9697,3.9697,3.922,3.809,3.8015,3.7513,3.6455,3.631,3.6098,3.586,3.5716,3.5572,3.5284,3.5572,3.5716,3.586,3.5301,3.449,3.3571,3.3571,3.3822,3.4274,3.4881,3.5278,3.5328,3.5198,3.5282,3.5581,3.5655,3.6452,3.7567,3.8165,3.8723,3.9192,3.9265,3.901,3.8686,3.8723,3.8501,3.824,3.8165,3.7938,3.7606,3.7289,3.69,3.6389,3.5683,3.5399,3.5358,3.5585,3.6416,3.7399,3.8308,3.9382,4.0167,4.0158,3.953,3.8819,3.8069,3.7124,3.6235,3.5451,3.4605,3.3997,3.3711,3.3454,3.3624,3.4408,3.4831,3.5351,3.6063,3.6298,3.6452,3.6593,3.7062,3.7598,3.8148,3.965,4.0868,4.1775,4.2789,4.377,4.4705,4.5286,4.5865,4.6309,4.701,4.7309,4.7309,4.7309,4.7309,4.7309,4.7309,4.7309,4.7309,4.7309,4.7549,4.7938,4.8177,4.8955,4.9883,3.9645,3.9697,3.9697,3.9697,3.9697,3.9697,3.9697,3.9697,3.9697,3.9697,3.9697,3.9697,3.9697,3.9697,3.9697,3.9697,3.9697,3.922,3.809,3.8015,3.7513,3.6455,3.6405,3.631,3.6098,3.6098,3.6003,3.586,3.6003,3.6098,3.6098,3.5712,3.5006,3.4148,3.4148,3.4223,3.4424,3.5182,3.5282,3.4951,3.5117,3.5259,3.5437,3.5778,3.6677,3.7825,3.8389,3.89,3.9301,3.9373,3.9228,3.898,3.9156,3.901,3.8752,3.8752,3.8612,3.8389,3.8052,3.7749,3.7366,3.6598,3.6163,3.5911,3.5548,3.6076,3.6797,3.7449,3.893,4.0207,4.0534,4.0247,3.9722,3.921,3.8405,3.754,3.6752,3.6188,3.5616,3.5087,3.4698,3.4619,3.4903,3.5322,3.5743,3.6218,3.6553,3.6734,3.6803,3.7387,3.7985,3.8666,4.016,4.1557,4.2794,4.358,4.4513,4.5639,4.5872,4.6205,4.6621,4.71,4.7309,4.7309,4.7309,4.7309,4.7309,4.7309,4.7309,4.7309,4.7309,4.7698,4.8297,4.8506,4.9284,5.0226,3.9697,3.9697,3.9697,3.9697,3.9697,3.9697,3.9697,3.9697,3.9697,3.9697,3.9697,3.9697,3.9697,3.9697,3.9697,3.9697,3.9697,3.922,3.809,3.8015,3.7513,3.6455,3.6405,3.6405,3.6405,3.6405,3.6405,3.6405,3.6405,3.6405,3.6405,3.5805,3.5207,3.468,3.468,3.4981,3.5483,3.5483,3.5508,3.5479,3.5423,3.5303,3.5267,3.5994,3.6716,3.7443,3.8464,3.8943,3.9156,3.9337,3.9373,3.9373,3.9373,3.9373,3.9373,3.9373,3.9265,3.9017,3.8833,3.8501,3.8052,3.7443,3.6911,3.6441,3.5831,3.571,3.6062,3.7325,3.893,4.0148,4.0383,4.0562,4.0659,4.0603,3.9607,3.8819,3.8522,3.7448,3.6387,3.5579,3.5087,3.49,3.5158,3.5437,3.5987,3.701,3.7294,3.7366,3.7108,3.7802,3.8413,3.8863,4.1021,4.2514,4.3253,4.4931,4.6061,4.658,4.68,4.7019,4.7309,4.7309,4.7309,4.7309,4.7309,4.7309,4.7309,4.7309,4.7309,4.7309,4.7309,4.7698,4.8356,4.906,4.9673,5.0285,3.9697,3.9697,3.9697,3.9697,3.9697,3.9697,3.9697,3.9697,3.9697,3.9697,3.9697,3.9697,3.9697,3.9697,3.9697,3.9697,3.9346,3.8818,3.8065,3.7663,3.7111,3.643,3.6405,3.6405,3.6405,3.6405,3.6405,3.6405,3.6405,3.6405,3.6405,3.5805,3.5408,3.5232,3.5232,3.5332,3.5508,3.5508,3.5282,3.4926,3.4863,3.4779,3.4743,3.5561,3.6389,3.7173,3.7938,3.8501,3.8943,3.9156,3.9301,3.9373,3.9373,3.9373,3.9373,3.9373,3.9337,3.9265,3.9053,3.8907,3.8686,3.824,3.7825,3.7337,3.6744,3.6111,3.5953,3.6961,3.8157,3.9337,4.0285,4.0939,4.1339,4.1339,4.1043,4.0574,3.9853,3.9282,3.8559,3.7469,3.6878,3.649,3.6243,3.6715,3.7172,3.7472,3.8399,3.8684,3.8122,3.8666,3.9336,4.0126,4.1692,4.3013,4.395,4.5113,4.602,4.68,4.6887,4.7019,4.7309,4.7309,4.7309,4.7309,4.7309,4.7309,4.7309,4.7309,4.7309,4.7369,4.7788,4.8386,4.909,4.9673,5.0331,5.0883,3.9697,3.9697,3.9697,3.9697,3.9697,3.9697,3.9697,3.9697,3.9697,3.9697,3.9697,3.9697,3.9697,3.9697,3.9697,3.9697,3.9195,3.8617,3.804,3.7487,3.6935,3.643,3.6405,3.6405,3.6405,3.6405,3.6405,3.6405,3.6405,3.6405,3.6405,3.6006,3.5708,3.5508,3.5508,3.5382,3.5182,3.5182,3.4881,3.4374,3.4419,3.4324,3.423,3.51,3.5924,3.6716,3.7491,3.8202,3.8723,3.9017,3.9228,3.9373,3.9373,3.9373,3.9373,3.9373,3.9373,3.9373,3.9265,3.9228,3.9156,3.8826,3.8427,3.7901,3.7095,3.631,3.5939,3.6443,3.7524,3.874,3.982,4.0961,4.1785,4.2034,4.1951,4.1577,4.0788,4.0358,3.9706,3.8756,3.8229,3.7793,3.7389,3.79,3.8299,3.8414,3.9371,3.9853,3.9645,3.9733,4.0281,4.1283,4.261,4.3802,4.4902,4.5809,4.6515,4.7062,4.7062,4.7149,4.7309,4.7309,4.7309,4.7309,4.7309,4.7309,4.7339,4.7578,4.7668,4.7728,4.8386,4.9045,4.9673,5.0046,5.0614,5.1229,3.9697,3.9697,3.9697,3.9697,3.9697,3.9697,3.9697,3.9697,3.9697,3.9697,3.9697,3.9697,3.9697,3.9697,3.9672,3.9647,3.912,3.8567,3.799,3.7437,3.6933,3.643,3.6405,3.6405,3.6405,3.6405,3.6405,3.6405,3.6405,3.6405,3.6405,3.638,3.6031,3.5508,3.5458,3.5157,3.468,3.4675,3.4374,3.3897,3.4066,3.3972,3.3742,3.462,3.5399,3.6096,3.7183,3.7938,3.8567,3.8943,3.9228,3.9373,3.9373,3.9373,3.9373,3.9373,3.9373,3.9373,3.9373,3.9373,3.9337,3.9192,3.8826,3.8202,3.7017,3.6389,3.5991,3.575,3.703,3.8352,3.9037,4.0551,4.191,4.2566,4.2281,4.1897,4.148,4.0788,4.0099,3.9469,3.9203,3.8953,3.8675,3.9077,3.9475,3.9722,4.0346,4.0958,4.1495,4.1156,4.1369,4.2381,4.3716,4.4916,4.5994,4.6894,4.7309,4.7309,4.7309,4.7309,4.7309,4.7309,4.7309,4.7309,4.7369,4.7369,4.7429,4.8087,4.8356,4.8416,4.912,4.9703,5.0196,5.0255,5.0644,5.1229,3.9697,3.9697,3.9697,3.9697,3.9697,3.9697,3.9697,3.9697,3.9697,3.9697,3.9697,3.9697,3.9697,3.9697,3.9521,3.9145,3.8542,3.7965,3.7412,3.6908,3.6556,3.6405,3.6405,3.6405,3.6405,3.6405,3.6405,3.6405,3.6405,3.6405,3.6405,3.5931,3.5633,3.5483,3.5056,3.4806,3.4655,3.4274,3.4022,3.3872,3.368,3.3555,3.3556,3.4272,3.4977,3.5669,3.6559,3.7519,3.8315,3.8723,3.909,3.9373,3.9373,3.9373,3.9373,3.9373,3.9373,3.9373,3.9373,3.9373,3.9373,3.9337,3.9046,3.8501,3.7567,3.7056,3.6587,3.6031,3.7017,3.8159,3.8656,4.0249,4.1619,4.2075,4.2269,4.2146,4.1702,4.117,4.0659,4.0142,4.0185,4.0229,4.0114,4.0717,4.1128,4.1212,4.1673,4.2237,4.2886,4.2969,4.3111,4.3341,4.4794,4.5802,4.6237,4.6937,4.7309,4.7309,4.7309,4.7309,4.7309,4.7309,4.7309,4.7339,4.7848,4.8057,4.8117,4.882,4.909,4.9149,4.9763,5.0046,5.0255,5.0764,5.1079,5.1229,3.9697,3.9697,3.9697,3.9697,3.9697,3.9697,3.9697,3.9697,3.9697,3.9697,3.9697,3.9697,3.9697,3.9697,3.9471,3.8969,3.8341,3.7764,3.7211,3.6707,3.6405,3.6405,3.6405,3.6405,3.6405,3.6405,3.6405,3.6405,3.6405,3.6405,3.6405,3.6056,3.578,3.5483,3.5182,3.4906,3.463,3.4123,3.3897,3.3847,3.3424,3.3283,3.3326,3.3979,3.4647,3.5386,3.6401,3.7376,3.8306,3.915,3.9572,3.9918,4.0217,4.0307,4.0247,3.9948,3.9649,3.9373,3.9373,3.9373,3.9373,3.9301,3.909,3.876,3.8165,3.7711,3.7335,3.6948,3.7578,3.8367,3.8894,4.0322,4.1522,4.191,4.2117,4.2075,4.1744,4.1409,4.1114,4.083,4.1029,4.1198,4.1226,4.1715,4.1993,4.1993,4.2404,4.2983,4.3661,4.4164,4.4513,4.4756,4.5565,4.6228,4.677,4.713,4.7309,4.7309,4.7309,4.7309,4.7309,4.7309,4.7459,4.7788,4.8117,4.8446,4.882,4.9434,4.9703,4.9763,5.0421,5.0644,5.0674,5.1079,5.1229,5.1229,3.9697,3.9697,3.9697,3.9697,3.9697,3.9697,3.9697,3.9697,3.9697,3.9697,3.9697,3.9697,3.9697,3.9697,3.9471,3.8969,3.8417,3.7889,3.7337,3.686,3.6631,3.6531,3.6531,3.648,3.6405,3.6405,3.6405,3.6405,3.6405,3.6405,3.6405,3.6329,3.5981,3.5508,3.5408,3.5107,3.47,3.4223,3.3972,3.3847,3.3395,3.3144,3.3154,3.3793,3.4439,3.5114,3.6484,3.7518,3.8434,3.9786,4.036,4.0599,4.1205,4.1422,4.1265,4.0696,4.0157,3.9679,3.9433,3.9373,3.9337,3.9192,3.9156,3.9046,3.8679,3.8402,3.815,3.8071,3.8455,3.8935,3.9508,4.059,4.1522,4.1868,4.191,4.1827,4.166,4.1451,4.1396,4.1438,4.166,4.191,4.2129,4.2404,4.2555,4.2555,4.2938,4.3467,4.415,4.5012,4.5669,4.6185,4.6185,4.6539,4.7309,4.7309,4.7309,4.7309,4.7309,4.7309,4.7309,4.7399,4.7758,4.8297,4.8506,4.8895,4.9464,5.0122,5.0345,5.0405,5.099,5.1229,5.1229,5.1229,5.1229,5.1229,3.9697,3.9697,3.9697,3.9697,3.9697,3.9697,3.9697,3.9697,3.9697,3.9697,3.9697,3.9697,3.9697,3.9697,3.9471,3.8969,3.8844,3.8492,3.7914,3.7789,3.7538,3.7086,3.7109,3.6835,3.6405,3.6405,3.6405,3.6405,3.6405,3.6405,3.6405,3.5881,3.5583,3.5483,3.5006,3.4756,3.468,3.4625,3.4324,3.3897,3.3796,3.3495,3.3154,3.3598,3.4189,3.4989,3.6619,3.7805,3.8783,4.0197,4.0817,4.1037,4.1316,4.1422,4.1392,4.1265,4.1145,4.0816,3.9738,3.9373,3.9373,3.9337,3.9337,3.9301,3.9053,3.9276,3.9349,3.8851,3.9482,4.0104,4.0024,4.0772,4.148,4.1702,4.1577,4.148,4.1438,4.1241,4.1212,4.1619,4.2034,4.2444,4.282,4.305,4.317,4.317,4.3717,4.4396,4.5053,4.5741,4.6429,4.7086,4.7116,4.7146,4.7309,4.7309,4.7309,4.7309,4.7309,4.7309,4.7339,4.7878,4.8177,4.8356,4.9464,4.9956,5.0076,5.0734,5.1033,5.1079,5.1169,5.1229,5.1229,5.1229,5.1229,5.1229,3.9697,3.9697,3.9697,3.9697,3.9697,3.9697,3.9697,3.9697,3.9697,3.9697,3.9697,3.9697,3.9697,3.9697,3.9597,3.9346,3.932,3.9195,3.8944,3.8341,3.7889,3.7638,3.7337,3.6935,3.6405,3.6405,3.6405,3.6405,3.6405,3.6405,3.6405,3.6107,3.5981,3.5981,3.573,3.5604,3.5579,3.5257,3.4806,3.4324,3.4022,3.3571,3.3154,3.3683,3.4396,3.5189,3.6702,3.7861,3.8871,4.0408,4.1077,4.1362,4.204,4.2276,4.2225,4.2013,4.1692,4.1175,4.0217,4.0217,4.0397,4.0038,4.0217,4.0449,4.0345,4.0396,4.0456,4.0422,4.071,4.096,4.1073,4.1583,4.1939,4.1868,4.1785,4.1689,4.1577,4.1535,4.166,4.2034,4.2444,4.285,4.313,4.325,4.3439,4.3798,4.4137,4.4766,4.5783,4.6142,4.6621,4.7279,4.7309,4.7309,4.7309,4.7309,4.7309,4.7309,4.7309,4.7489,4.7848,4.8147,4.8656,4.9374,4.9927,5.0375,5.0734,5.1079,5.1229,5.1229,5.1229,5.1229,5.1229,5.1229,5.1229,5.1229,3.9697,3.9697,3.9697,3.9697,3.9697,3.9697,3.9697,3.9697,3.9697,3.9697,3.9697,3.9697,3.9697,3.9697,3.9697,3.9697,3.9697,3.9697,3.9697,3.8894,3.8341,3.8216,3.7538,3.6985,3.6606,3.648,3.6405,3.6405,3.6405,3.6405,3.6405,3.6405,3.6405,3.6405,3.6405,3.6405,3.638,3.5906,3.5382,3.4831,3.4299,3.3746,3.3356,3.3888,3.4555,3.5312,3.6778,3.7827,3.8797,4.0367,4.1076,4.1477,4.2471,4.282,4.2892,4.2613,4.2222,4.1654,4.0846,4.0995,4.1265,4.0756,4.0995,4.1422,4.1422,4.139,4.1466,4.1706,4.1794,4.1829,4.2123,4.2322,4.2433,4.2199,4.2117,4.2034,4.1868,4.1993,4.2187,4.2433,4.2769,4.312,4.3499,4.3529,4.3798,4.4496,4.4706,4.5203,4.6262,4.6429,4.677,4.7279,4.7309,4.7309,4.7309,4.7309,4.7309,4.7309,4.7309,4.7638,4.8297,4.8446,4.9134,5.0196,5.0345,5.0704,5.1229,5.1229,5.1229,5.1229,5.1229,5.1229,5.1229,5.1229,5.1229,5.1229,3.9697,3.9697,3.9697,3.9697,3.9697,3.9697,3.9697,3.9697,3.9697,3.9697,3.9697,3.9697,3.9697,3.9697,3.9697,3.9697,3.9697,3.9697,3.9697,3.9622,3.9346,3.8869,3.7764,3.7161,3.7136,3.6681,3.6405,3.6405,3.6405,3.6405,3.6405,3.6405,3.6405,3.6405,3.6405,3.6405,3.6405,3.6355,3.5981,3.5382,3.4831,3.4324,3.3891,3.4085,3.4372,3.4899,3.6946,3.7853,3.8309,4.008,4.0788,4.1155,4.1852,4.2374,4.2769,4.2881,4.3051,4.2871,4.1654,4.1354,4.1422,4.1324,4.1354,4.1422,4.1422,4.1863,4.2273,4.2,4.2466,4.2801,4.2688,4.2648,4.2648,4.2648,4.2514,4.2351,4.2351,4.2351,4.2474,4.2648,4.289,4.3299,4.4127,4.4257,4.4496,4.5185,4.5813,4.619,4.6279,4.689,4.7249,4.7309,4.7309,4.7309,4.7309,4.7309,4.7309,4.7309,4.7309,4.7638,4.8297,4.897,4.9583,5.0226,5.0853,5.1169,5.1229,5.1229,5.1229,5.1229,5.1229,5.1229,5.1229,5.1229,5.1229,5.1319,3.9697,3.9697,3.9697,3.9697,3.9697,3.9697,3.9697,3.9697,3.9697,3.9697,3.9697,3.9697,3.9697,3.9697,3.9697,3.9697,3.9697,3.9697,3.9697,3.9697,3.9446,3.8944,3.8517,3.7889,3.7211,3.6985,3.6757,3.6405,3.6405,3.6405,3.6405,3.6405,3.6405,3.6405,3.6405,3.6405,3.6405,3.6405,3.6031,3.5483,3.5282,3.4856,3.4399,3.4692,3.5029,3.5539,3.6623,3.7374,3.805,3.9156,3.9809,4.0287,4.1099,4.1715,4.2199,4.282,4.317,4.317,4.2731,4.2581,4.2491,4.2141,4.2282,4.2581,4.2581,4.2791,4.2931,4.2822,4.3031,4.317,4.309,4.305,4.305,4.293,4.2809,4.2729,4.2607,4.2688,4.2809,4.289,4.3448,4.3967,4.4246,4.4676,4.5214,4.5873,4.6172,4.6459,4.692,4.716,4.7309,4.7309,4.7309,4.7309,4.7309,4.7309,4.7309,4.7309,4.7728,4.8267,4.897,4.9553,5.0212,5.0823,5.1109,5.1229,5.1229,5.1229,5.1229,5.1229,5.1229,5.1229,5.1259,5.1678,5.1828,5.1917,3.9697,3.9697,3.9697,3.9697,3.9697,3.9697,3.9697,3.9697,3.9697,3.9697,3.9697,3.9697,3.9697,3.9697,3.9697,3.9697,3.9697,3.9697,3.9697,3.9697,3.9521,3.9145,3.902,3.8517,3.7739,3.7362,3.6985,3.6656,3.648,3.6405,3.6405,3.6405,3.6405,3.6405,3.6405,3.6405,3.6405,3.6405,3.6132,3.578,3.5583,3.5282,3.4977,3.5183,3.5456,3.5877,3.6422,3.6979,3.7592,3.8232,3.8774,3.9309,4.0185,4.1185,4.2158,4.2872,4.3267,4.3458,4.3498,4.3359,4.313,4.2761,4.3,4.329,4.329,4.329,4.329,4.329,4.329,4.329,4.329,4.329,4.325,4.313,4.3061,4.305,4.293,4.301,4.315,4.3398,4.3967,4.4496,4.4915,4.5364,4.5903,4.6591,4.6621,4.683,4.7279,4.7309,4.7309,4.7309,4.7309,4.7309,4.7309,4.7309,4.7399,4.7608,4.8057,4.8745,4.9583,4.9986,5.0554,5.1229,5.1229,5.1229,5.1229,5.1229,5.1229,5.1229,5.1229,5.1349,5.1588,5.2037,5.2336,5.2606,3.9697,3.9697,3.9697,3.9697,3.9697,3.9697,3.9697,3.9697,3.9697,3.9697,3.9697,3.9697,3.9697,3.9697,3.9697,3.9697,3.9697,3.9697,3.9697,3.9697,3.9697,3.9697,3.917,3.8868,3.8919,3.7764,3.7186,3.7186,3.6681,3.6405,3.6405,3.6405,3.6405,3.6405,3.6405,3.6405,3.6405,3.6405,3.6405,3.6355,3.578,3.5508,3.5508,3.5508,3.5508,3.5629,3.6438,3.6709,3.6756,3.732,3.7828,3.8349,3.9096,4.0848,4.2666,4.3173,4.3495,4.3732,4.3938,4.3515,4.305,4.325,4.329,4.329,4.329,4.329,4.329,4.329,4.329,4.329,4.329,4.329,4.329,4.329,4.329,4.329,4.329,4.329,4.3559,4.4257,4.4317,4.4855,4.616,4.6279,4.6548,4.7249,4.7309,4.7309,4.7309,4.7309,4.7309,4.7309,4.7309,4.7309,4.7309,4.7309,4.7638,4.8297,4.8297,4.8985,5.0196,5.0196,5.0554,5.1229,5.1229,5.1229,5.1229,5.1229,5.1229,5.1229,5.1229,5.1618,5.2187,5.2217,5.2636,5.3294,3.9697,3.9697,3.9697,3.9697,3.9697,3.9697,3.9697,3.9697,3.9697,3.9697,3.9697,3.9697,3.9697,3.9697,3.9697,3.9697,3.9697,3.9697,3.9697,3.9697,3.9697,3.9697,3.9546,3.927,3.8919,3.8592,3.8165,3.7764,3.7588,3.7312,3.6935,3.6935,3.6782,3.6405,3.6405,3.6405,3.6405,3.6405,3.6405,3.638,3.6182,3.6107,3.6107,3.6107,3.6107,3.6132,3.6402,3.6499,3.6597,3.7333,3.7771,3.8267,3.9945,4.1286,4.2366,4.3054,4.3531,4.3828,4.3737,4.3719,4.3645,4.3369,4.329,4.329,4.329,4.329,4.329,4.329,4.329,4.329,4.329,4.329,4.329,4.329,4.3678,4.4018,4.4018,4.4436,4.4796,4.4975,4.5424,4.5831,4.6249,4.6741,4.71,4.7279,4.7309,4.7309,4.7309,4.7309,4.7309,4.7309,4.7309,4.7519,4.7997,4.7997,4.8087,4.8297,4.9224,4.9807,5.0196,5.0674,5.0973,5.1229,5.1229,5.1229,5.1229,5.1229,5.1229,5.1259,5.1738,5.2037,5.2306,5.3264,5.3743,5.4012,3.9697,3.9697,3.9697,3.9697,3.9697,3.9697,3.9697,3.9697,3.9697,3.9697,3.9697,3.9697,3.9697,3.9697,3.9697,3.9697,3.9697,3.9697,3.9697,3.9697,3.9697,3.9697,3.9697,3.9546,3.9195,3.8994,3.8693,3.8341,3.8115,3.7839,3.7513,3.7513,3.7211,3.6732,3.6732,3.6606,3.6405,3.6405,3.6405,3.6405,3.6405,3.6405,3.6405,3.6405,3.6405,3.6405,3.6405,3.6556,3.6782,3.7278,3.782,3.8556,4.0059,4.1172,4.1984,4.2789,4.3239,4.3598,4.3719,4.3757,4.3604,4.326,4.3229,4.329,4.329,4.3499,4.3678,4.3678,4.3888,4.3977,4.3738,4.3678,4.3678,4.3678,4.4047,4.4407,4.4676,4.5035,4.5394,4.5663,4.6082,4.6369,4.6681,4.707,4.7309,4.7309,4.7309,4.7309,4.7309,4.7309,4.7429,4.7698,4.7698,4.7997,4.87,4.8925,4.9045,4.9075,4.9807,5.0315,5.0584,5.105,5.1229,5.1229,5.1229,5.1229,5.1229,5.1498,5.1618,5.1678,5.2336,5.2755,5.3084,5.3922,5.4371,5.464,3.9697,3.9697,3.9697,3.9697,3.9697,3.9697,3.9697,3.9697,3.9697,3.9697,3.9697,3.9697,3.9697,3.9697,3.9697,3.9697,3.9697,3.9697,3.9697,3.9697,3.9697,3.9697,3.9697,3.9697,3.9697,3.9195,3.8994,3.8994,3.8417,3.814,3.809,3.809,3.7789,3.7262,3.7262,3.696,3.648,3.648,3.6455,3.6405,3.6405,3.6405,3.6405,3.6405,3.6405,3.6405,3.6455,3.6807,3.7211,3.7312,3.8056,3.9028,3.9703,4.0622,4.1624,4.2383,4.2785,4.3083,4.3806,4.3605,4.3195,4.3011,4.3143,4.3279,4.33,4.3747,4.4236,4.4336,4.4844,4.5083,4.4526,4.4407,4.4407,4.4407,4.4466,4.4706,4.5304,4.5424,4.5723,4.6352,4.6369,4.6651,4.7249,4.7309,4.7309,4.7309,4.7369,4.7399,4.7399,4.7459,4.7758,4.8356,4.8386,4.8686,4.9389,4.9942,5.0196,5.0196,5.0255,5.0584,5.1229,5.1229,5.1229,5.1229,5.1229,5.1259,5.1349,5.1947,5.2247,5.2366,5.3025,5.3653,5.4221,5.4281,5.467,5.5179,3.9697,3.9697,3.9697,3.9697,3.9697,3.9697,3.9697,3.9697,3.9697,3.9697,3.9697,3.9697,3.9697,3.9697,3.9697,3.9697,3.9697,3.9697,3.9697,3.9697,3.9697,3.9697,3.9697,3.9697,3.9697,3.9572,3.9521,3.9521,3.9396,3.912,3.8668,3.8668,3.8391,3.7839,3.7839,3.7513,3.7059,3.7059,3.6807,3.6405,3.6405,3.6405,3.6405,3.6405,3.6405,3.6455,3.6908,3.7086,3.7312,3.8265,3.9121,3.988,4.0233,4.0661,4.1188,4.1977,4.2388,4.2664,4.3092,4.3283,4.333,4.3123,4.3127,4.317,4.3294,4.3419,4.3779,4.4644,4.4965,4.5066,4.5083,4.5095,4.5095,4.5095,4.5544,4.5933,4.6082,4.6561,4.692,4.707,4.71,4.716,4.7309,4.7309,4.7309,4.7309,4.7788,4.8087,4.8087,4.8566,4.894,4.909,4.909,4.9374,5.0032,5.0106,5.0196,5.0196,5.0704,5.1079,5.1229,5.1229,5.1229,5.1229,5.1229,5.1498,5.2007,5.2127,5.2516,5.3025,5.3713,5.4072,5.4281,5.479,5.5059,5.5179,3.9697,3.9697,3.9697,3.9697,3.9697,3.9697,3.9697,3.9697,3.9697,3.9697,3.9697,3.9697,3.9697,3.9697,3.9697,3.9697,3.9697,3.9697,3.9697,3.9697,3.9697,3.9697,3.9697,3.9697,3.9697,3.9697,3.9697,3.9697,3.9697,3.9546,3.927,3.927,3.8969,3.8417,3.8417,3.7965,3.7186,3.7186,3.6908,3.6405,3.6405,3.6405,3.643,3.6707,3.6807,3.6883,3.7387,3.7764,3.8115,3.8969,3.9548,3.9929,4.0236,4.0389,4.0618,4.1322,4.162,4.1789,4.2274,4.2481,4.2507,4.2205,4.2224,4.2513,4.3243,4.366,4.4108,4.4932,4.5341,4.5588,4.5632,4.5615,4.5657,4.5741,4.6082,4.6399,4.6741,4.71,4.7309,4.7309,4.7309,4.7309,4.7309,4.7578,4.7788,4.7788,4.8386,4.879,4.879,4.912,4.9449,4.9733,4.9733,5.0032,5.0644,5.0674,5.0674,5.0674,5.1003,5.1229,5.1229,5.1229,5.1229,5.1229,5.1229,5.1588,5.2217,5.2546,5.3054,5.3743,5.4431,5.467,5.473,5.5059,5.5179,5.5179,3.9645,3.9645,3.9594,3.9542,3.9594,3.9645,3.9645,3.9697,3.9697,3.9697,3.9697,3.9697,3.9697,3.9697,3.9697,3.9697,3.9697,3.9697,3.9697,3.9697,3.9697,3.9697,3.9697,3.9697,3.9697,3.9697,3.9697,3.9697,3.9697,3.9697,3.9697,3.9697,3.9446,3.9019,3.8969,3.8291,3.7312,3.7236,3.6908,3.6405,3.6405,3.6455,3.6606,3.701,3.7236,3.7387,3.7965,3.8517,3.9069,3.9546,3.9697,3.9749,3.9981,4.0032,4.0134,4.0643,4.0795,4.0896,4.1448,4.1547,4.1465,4.121,4.1368,4.1856,4.2998,4.3763,4.4375,4.498,4.5622,4.6004,4.6032,4.603,4.6116,4.6373,4.6416,4.6638,4.7219,4.7309,4.7309,4.7309,4.7266,4.7252,4.7328,4.788,4.8282,4.8402,4.9075,4.9434,4.9434,4.9523,4.9853,5.0345,5.0375,5.0614,5.1199,5.1229,5.1229,5.1229,5.1229,5.1229,5.1229,5.1229,5.1229,5.1229,5.1229,5.1588,5.2247,5.2905,5.3593,5.4281,5.494,5.5179,5.5179,5.5179,5.5179,5.5179,3.9413,3.9362,3.9258,3.8945,3.9154,3.9362,3.9362,3.9542,3.9697,3.9697,3.9697,3.9697,3.9697,3.9697,3.9697,3.9697,3.9697,3.9697,3.9697,3.9697,3.9697,3.9697,3.9697,3.9697,3.9697,3.9697,3.9697,3.9697,3.9697,3.9697,3.9697,3.9697,3.9647,3.9572,3.9094,3.8517,3.7864,3.7387,3.6908,3.6405,3.6405,3.6707,3.7086,3.7161,3.7487,3.7965,3.8542,3.912,3.9597,3.9672,3.9697,3.9697,3.9749,3.9749,3.98,4.0134,4.0236,4.0338,4.087,4.0997,4.1071,4.1217,4.1465,4.1785,4.2194,4.2629,4.3305,4.4503,4.5024,4.5475,4.6063,4.6167,4.63,4.6739,4.6826,4.6929,4.7236,4.7309,4.7309,4.7309,4.7106,4.7095,4.7465,4.7763,4.8194,4.8788,4.9596,5.0076,5.0076,5.0661,5.099,5.1079,5.1079,5.1139,5.1229,5.1229,5.1229,5.1229,5.1229,5.1229,5.1229,5.1229,5.1229,5.1229,5.1229,5.1588,5.2247,5.2905,5.3593,5.4281,5.494,5.5179,5.5179,5.5179,5.5179,5.5179,3.8841,3.8945,3.8945,3.8841,3.905,3.931,3.931,3.9542,3.9697,3.9697,3.9697,3.9697,3.9697,3.9697,3.9697,3.9697,3.9697,3.9697,3.9697,3.9697,3.9697,3.9697,3.9697,3.9697,3.9697,3.9697,3.9697,3.9697,3.9697,3.9697,3.9697,3.9697,3.9697,3.9672,3.912,3.8542,3.7965,3.7412,3.6908,3.643,3.6757,3.696,3.7262,3.7889,3.8266,3.8567,3.912,3.9496,3.9697,3.9697,3.9697,3.9697,3.9697,3.9697,3.9749,3.9826,3.9878,3.9929,4.0185,4.0236,4.0236,4.0389,4.0593,4.0846,4.0971,4.136,4.2156,4.3768,4.4153,4.4555,4.5429,4.5566,4.5747,4.6195,4.6417,4.6535,4.6668,4.6887,4.7019,4.6917,4.6993,4.7094,4.7342,4.8064,4.8761,4.9195,4.991,5.0436,5.0547,5.0815,5.1058,5.1229,5.1229,5.1229,5.1229,5.1229,5.1229,5.1229,5.1229,5.1229,5.1229,5.1229,5.1229,5.1229,5.1229,5.1798,5.2785,5.3054,5.3803,5.479,5.5089,5.5179,5.5179,5.5179,5.5179,5.5179]}]]